<?xml version="1.0" encoding="UTF-8" standalone="no" ?>
<gpx xmlns="http://www.topografix.com/GPX/1/1" xmlns:xsi="http://www.w3.org/2001/XMLSchema-instance" xsi:schemaLocation="http://www.topografix.com/GPX/1/1 http://www.topografix.com/GPX/1/1/gpx.xsd" version="1.1" creator="VisuGPX - https://www.visugpx.com">
  <metadata>
    <name>VTT - Aumont Aubrac petit tour.</name>
    <desc><![CDATA[Un petit tour sympa aux alentours d'Aumont Aubrac pour se mettre en jambe.]]></desc>
  </metadata>
  <trk>
    <name><![CDATA[21-FEV-16 16:33:10]]></name>
    <trkseg>
      <trkpt lat="44.72143" lon="3.28699">
        <ele>943.19</ele>
        <time>2016-02-21T13:18:33Z</time>
      </trkpt>
      <trkpt lat="44.72178" lon="3.28666">
        <ele>937.42</ele>
        <time>2016-02-21T13:21:35Z</time>
      </trkpt>
      <trkpt lat="44.72176" lon="3.28664">
        <ele>937.42</ele>
        <time>2016-02-21T13:21:36Z</time>
      </trkpt>
      <trkpt lat="44.72174" lon="3.28664">
        <ele>941.75</ele>
        <time>2016-02-21T13:21:50Z</time>
      </trkpt>
      <trkpt lat="44.72174" lon="3.28664">
        <ele>946.07</ele>
        <time>2016-02-21T13:21:51Z</time>
      </trkpt>
      <trkpt lat="44.72174" lon="3.28663">
        <ele>949.92</ele>
        <time>2016-02-21T13:21:52Z</time>
      </trkpt>
      <trkpt lat="44.72174" lon="3.28663">
        <ele>953.77</ele>
        <time>2016-02-21T13:21:53Z</time>
      </trkpt>
      <trkpt lat="44.72174" lon="3.28663">
        <ele>957.13</ele>
        <time>2016-02-21T13:21:54Z</time>
      </trkpt>
      <trkpt lat="44.72175" lon="3.28663">
        <ele>960.98</ele>
        <time>2016-02-21T13:21:55Z</time>
      </trkpt>
      <trkpt lat="44.72177" lon="3.28663">
        <ele>964.34</ele>
        <time>2016-02-21T13:21:56Z</time>
      </trkpt>
      <trkpt lat="44.72179" lon="3.28662">
        <ele>967.7</ele>
        <time>2016-02-21T13:21:57Z</time>
      </trkpt>
      <trkpt lat="44.72185" lon="3.2866">
        <ele>972.99</ele>
        <time>2016-02-21T13:21:59Z</time>
      </trkpt>
      <trkpt lat="44.72194" lon="3.28658">
        <ele>977.32</ele>
        <time>2016-02-21T13:22:01Z</time>
      </trkpt>
      <trkpt lat="44.72202" lon="3.28654">
        <ele>982.12</ele>
        <time>2016-02-21T13:22:03Z</time>
      </trkpt>
      <trkpt lat="44.72206" lon="3.28652">
        <ele>984.53</ele>
        <time>2016-02-21T13:22:04Z</time>
      </trkpt>
      <trkpt lat="44.72209" lon="3.28649">
        <ele>986.45</ele>
        <time>2016-02-21T13:22:05Z</time>
      </trkpt>
      <trkpt lat="44.72211" lon="3.28645">
        <ele>988.37</ele>
        <time>2016-02-21T13:22:06Z</time>
      </trkpt>
      <trkpt lat="44.72213" lon="3.28639">
        <ele>990.78</ele>
        <time>2016-02-21T13:22:07Z</time>
      </trkpt>
      <trkpt lat="44.72214" lon="3.28633">
        <ele>992.7</ele>
        <time>2016-02-21T13:22:08Z</time>
      </trkpt>
      <trkpt lat="44.72217" lon="3.28618">
        <ele>996.06</ele>
        <time>2016-02-21T13:22:10Z</time>
      </trkpt>
      <trkpt lat="44.7222" lon="3.28604">
        <ele>998.95</ele>
        <time>2016-02-21T13:22:12Z</time>
      </trkpt>
      <trkpt lat="44.72222" lon="3.28597">
        <ele>1000.39</ele>
        <time>2016-02-21T13:22:13Z</time>
      </trkpt>
      <trkpt lat="44.72225" lon="3.28591">
        <ele>1002.31</ele>
        <time>2016-02-21T13:22:14Z</time>
      </trkpt>
      <trkpt lat="44.72228" lon="3.28585">
        <ele>1003.75</ele>
        <time>2016-02-21T13:22:15Z</time>
      </trkpt>
      <trkpt lat="44.7223" lon="3.28578">
        <ele>1005.2</ele>
        <time>2016-02-21T13:22:16Z</time>
      </trkpt>
      <trkpt lat="44.72233" lon="3.28572">
        <ele>1006.64</ele>
        <time>2016-02-21T13:22:17Z</time>
      </trkpt>
      <trkpt lat="44.72242" lon="3.28551">
        <ele>1010</ele>
        <time>2016-02-21T13:22:20Z</time>
      </trkpt>
      <trkpt lat="44.72251" lon="3.28535">
        <ele>1013.37</ele>
        <time>2016-02-21T13:22:23Z</time>
      </trkpt>
      <trkpt lat="44.72253" lon="3.28533">
        <ele>1014.81</ele>
        <time>2016-02-21T13:22:24Z</time>
      </trkpt>
      <trkpt lat="44.72255" lon="3.28532">
        <ele>1018.65</ele>
        <time>2016-02-21T13:22:27Z</time>
      </trkpt>
      <trkpt lat="44.72255" lon="3.28532">
        <ele>1022.02</ele>
        <time>2016-02-21T13:22:30Z</time>
      </trkpt>
      <trkpt lat="44.72256" lon="3.28532">
        <ele>1022.02</ele>
        <time>2016-02-21T13:22:31Z</time>
      </trkpt>
      <trkpt lat="44.72258" lon="3.28532">
        <ele>1021.54</ele>
        <time>2016-02-21T13:22:32Z</time>
      </trkpt>
      <trkpt lat="44.72261" lon="3.28532">
        <ele>1022.98</ele>
        <time>2016-02-21T13:22:33Z</time>
      </trkpt>
      <trkpt lat="44.72263" lon="3.28532">
        <ele>1023.46</ele>
        <time>2016-02-21T13:22:34Z</time>
      </trkpt>
      <trkpt lat="44.72266" lon="3.28533">
        <ele>1023.94</ele>
        <time>2016-02-21T13:22:35Z</time>
      </trkpt>
      <trkpt lat="44.72271" lon="3.28537">
        <ele>1023.94</ele>
        <time>2016-02-21T13:22:36Z</time>
      </trkpt>
      <trkpt lat="44.72275" lon="3.28542">
        <ele>1023.46</ele>
        <time>2016-02-21T13:22:37Z</time>
      </trkpt>
      <trkpt lat="44.7228" lon="3.28549">
        <ele>1023.46</ele>
        <time>2016-02-21T13:22:38Z</time>
      </trkpt>
      <trkpt lat="44.72285" lon="3.28556">
        <ele>1023.46</ele>
        <time>2016-02-21T13:22:39Z</time>
      </trkpt>
      <trkpt lat="44.72307" lon="3.28589">
        <ele>1024.42</ele>
        <time>2016-02-21T13:22:44Z</time>
      </trkpt>
      <trkpt lat="44.72311" lon="3.28593">
        <ele>1025.38</ele>
        <time>2016-02-21T13:22:45Z</time>
      </trkpt>
      <trkpt lat="44.72316" lon="3.28595">
        <ele>1024.9</ele>
        <time>2016-02-21T13:22:46Z</time>
      </trkpt>
      <trkpt lat="44.72322" lon="3.28595">
        <ele>1024.9</ele>
        <time>2016-02-21T13:22:47Z</time>
      </trkpt>
      <trkpt lat="44.72326" lon="3.28594">
        <ele>1024.42</ele>
        <time>2016-02-21T13:22:48Z</time>
      </trkpt>
      <trkpt lat="44.72332" lon="3.28589">
        <ele>1023.46</ele>
        <time>2016-02-21T13:22:49Z</time>
      </trkpt>
      <trkpt lat="44.72337" lon="3.28585">
        <ele>1023.94</ele>
        <time>2016-02-21T13:22:50Z</time>
      </trkpt>
      <trkpt lat="44.72343" lon="3.28582">
        <ele>1024.42</ele>
        <time>2016-02-21T13:22:51Z</time>
      </trkpt>
      <trkpt lat="44.72348" lon="3.28579">
        <ele>1024.42</ele>
        <time>2016-02-21T13:22:52Z</time>
      </trkpt>
      <trkpt lat="44.72359" lon="3.28574">
        <ele>1024.9</ele>
        <time>2016-02-21T13:22:54Z</time>
      </trkpt>
      <trkpt lat="44.72363" lon="3.28569">
        <ele>1025.38</ele>
        <time>2016-02-21T13:22:55Z</time>
      </trkpt>
      <trkpt lat="44.72366" lon="3.28563">
        <ele>1025.86</ele>
        <time>2016-02-21T13:22:56Z</time>
      </trkpt>
      <trkpt lat="44.72369" lon="3.28557">
        <ele>1026.83</ele>
        <time>2016-02-21T13:22:57Z</time>
      </trkpt>
      <trkpt lat="44.7237" lon="3.28552">
        <ele>1027.79</ele>
        <time>2016-02-21T13:22:58Z</time>
      </trkpt>
      <trkpt lat="44.7237" lon="3.28547">
        <ele>1028.75</ele>
        <time>2016-02-21T13:22:59Z</time>
      </trkpt>
      <trkpt lat="44.72369" lon="3.28542">
        <ele>1029.71</ele>
        <time>2016-02-21T13:23:00Z</time>
      </trkpt>
      <trkpt lat="44.7237" lon="3.28529">
        <ele>1033.07</ele>
        <time>2016-02-21T13:23:04Z</time>
      </trkpt>
      <trkpt lat="44.72365" lon="3.28508">
        <ele>1036.44</ele>
        <time>2016-02-21T13:23:11Z</time>
      </trkpt>
      <trkpt lat="44.72362" lon="3.28479">
        <ele>1039.32</ele>
        <time>2016-02-21T13:23:21Z</time>
      </trkpt>
      <trkpt lat="44.72361" lon="3.28477">
        <ele>1039.8</ele>
        <time>2016-02-21T13:23:22Z</time>
      </trkpt>
      <trkpt lat="44.72359" lon="3.28475">
        <ele>1039.8</ele>
        <time>2016-02-21T13:23:23Z</time>
      </trkpt>
      <trkpt lat="44.72358" lon="3.28473">
        <ele>1039.8</ele>
        <time>2016-02-21T13:23:24Z</time>
      </trkpt>
      <trkpt lat="44.72356" lon="3.28472">
        <ele>1040.28</ele>
        <time>2016-02-21T13:23:25Z</time>
      </trkpt>
      <trkpt lat="44.72353" lon="3.28471">
        <ele>1040.28</ele>
        <time>2016-02-21T13:23:26Z</time>
      </trkpt>
      <trkpt lat="44.72331" lon="3.28453">
        <ele>1043.65</ele>
        <time>2016-02-21T13:23:37Z</time>
      </trkpt>
      <trkpt lat="44.7231" lon="3.28423">
        <ele>1044.13</ele>
        <time>2016-02-21T13:23:48Z</time>
      </trkpt>
      <trkpt lat="44.72308" lon="3.28419">
        <ele>1047.49</ele>
        <time>2016-02-21T13:23:49Z</time>
      </trkpt>
      <trkpt lat="44.72306" lon="3.28407">
        <ele>1045.57</ele>
        <time>2016-02-21T13:23:52Z</time>
      </trkpt>
      <trkpt lat="44.72305" lon="3.28353">
        <ele>1047.01</ele>
        <time>2016-02-21T13:24:04Z</time>
      </trkpt>
      <trkpt lat="44.72301" lon="3.28304">
        <ele>1047.49</ele>
        <time>2016-02-21T13:24:16Z</time>
      </trkpt>
      <trkpt lat="44.72301" lon="3.28294">
        <ele>1047.49</ele>
        <time>2016-02-21T13:24:18Z</time>
      </trkpt>
      <trkpt lat="44.72301" lon="3.2828">
        <ele>1046.53</ele>
        <time>2016-02-21T13:24:20Z</time>
      </trkpt>
      <trkpt lat="44.723" lon="3.28256">
        <ele>1043.65</ele>
        <time>2016-02-21T13:24:23Z</time>
      </trkpt>
      <trkpt lat="44.723" lon="3.28226">
        <ele>1041.73</ele>
        <time>2016-02-21T13:24:27Z</time>
      </trkpt>
      <trkpt lat="44.723" lon="3.28212">
        <ele>1040.28</ele>
        <time>2016-02-21T13:24:35Z</time>
      </trkpt>
      <trkpt lat="44.72301" lon="3.28206">
        <ele>1039.8</ele>
        <time>2016-02-21T13:24:47Z</time>
      </trkpt>
      <trkpt lat="44.72306" lon="3.28179">
        <ele>1035.48</ele>
        <time>2016-02-21T13:24:51Z</time>
      </trkpt>
      <trkpt lat="44.7231" lon="3.28161">
        <ele>1032.11</ele>
        <time>2016-02-21T13:24:53Z</time>
      </trkpt>
      <trkpt lat="44.72314" lon="3.28152">
        <ele>1029.71</ele>
        <time>2016-02-21T13:24:54Z</time>
      </trkpt>
      <trkpt lat="44.72318" lon="3.28142">
        <ele>1028.75</ele>
        <time>2016-02-21T13:24:55Z</time>
      </trkpt>
      <trkpt lat="44.7232" lon="3.28134">
        <ele>1028.27</ele>
        <time>2016-02-21T13:24:56Z</time>
      </trkpt>
      <trkpt lat="44.72322" lon="3.28124">
        <ele>1027.31</ele>
        <time>2016-02-21T13:24:57Z</time>
      </trkpt>
      <trkpt lat="44.72325" lon="3.28115">
        <ele>1026.83</ele>
        <time>2016-02-21T13:24:58Z</time>
      </trkpt>
      <trkpt lat="44.72327" lon="3.28107">
        <ele>1026.34</ele>
        <time>2016-02-21T13:24:59Z</time>
      </trkpt>
      <trkpt lat="44.7233" lon="3.281">
        <ele>1026.34</ele>
        <time>2016-02-21T13:25:00Z</time>
      </trkpt>
      <trkpt lat="44.72333" lon="3.28093">
        <ele>1026.34</ele>
        <time>2016-02-21T13:25:01Z</time>
      </trkpt>
      <trkpt lat="44.72335" lon="3.28085">
        <ele>1025.86</ele>
        <time>2016-02-21T13:25:02Z</time>
      </trkpt>
      <trkpt lat="44.72334" lon="3.28077">
        <ele>1025.38</ele>
        <time>2016-02-21T13:25:03Z</time>
      </trkpt>
      <trkpt lat="44.72331" lon="3.2807">
        <ele>1024.9</ele>
        <time>2016-02-21T13:25:04Z</time>
      </trkpt>
      <trkpt lat="44.72327" lon="3.28064">
        <ele>1024.42</ele>
        <time>2016-02-21T13:25:05Z</time>
      </trkpt>
      <trkpt lat="44.72322" lon="3.28058">
        <ele>1023.94</ele>
        <time>2016-02-21T13:25:06Z</time>
      </trkpt>
      <trkpt lat="44.72299" lon="3.28032">
        <ele>1020.1</ele>
        <time>2016-02-21T13:25:10Z</time>
      </trkpt>
      <trkpt lat="44.72293" lon="3.28026">
        <ele>1020.1</ele>
        <time>2016-02-21T13:25:11Z</time>
      </trkpt>
      <trkpt lat="44.72281" lon="3.28017">
        <ele>1021.06</ele>
        <time>2016-02-21T13:25:13Z</time>
      </trkpt>
      <trkpt lat="44.72276" lon="3.28015">
        <ele>1021.54</ele>
        <time>2016-02-21T13:25:14Z</time>
      </trkpt>
      <trkpt lat="44.72266" lon="3.28012">
        <ele>1022.98</ele>
        <time>2016-02-21T13:25:16Z</time>
      </trkpt>
      <trkpt lat="44.72262" lon="3.28009">
        <ele>1023.46</ele>
        <time>2016-02-21T13:25:17Z</time>
      </trkpt>
      <trkpt lat="44.72258" lon="3.28007">
        <ele>1023.46</ele>
        <time>2016-02-21T13:25:18Z</time>
      </trkpt>
      <trkpt lat="44.72254" lon="3.28004">
        <ele>1023.94</ele>
        <time>2016-02-21T13:25:19Z</time>
      </trkpt>
      <trkpt lat="44.72251" lon="3.28002">
        <ele>1023.94</ele>
        <time>2016-02-21T13:25:20Z</time>
      </trkpt>
      <trkpt lat="44.72199" lon="3.2795">
        <ele>1022.98</ele>
        <time>2016-02-21T13:25:35Z</time>
      </trkpt>
      <trkpt lat="44.72147" lon="3.27912">
        <ele>1022.5</ele>
        <time>2016-02-21T13:25:48Z</time>
      </trkpt>
      <trkpt lat="44.72144" lon="3.27907">
        <ele>1022.5</ele>
        <time>2016-02-21T13:25:49Z</time>
      </trkpt>
      <trkpt lat="44.72142" lon="3.27902">
        <ele>1022.98</ele>
        <time>2016-02-21T13:25:50Z</time>
      </trkpt>
      <trkpt lat="44.72142" lon="3.27897">
        <ele>1022.98</ele>
        <time>2016-02-21T13:25:51Z</time>
      </trkpt>
      <trkpt lat="44.72143" lon="3.27892">
        <ele>1022.98</ele>
        <time>2016-02-21T13:25:52Z</time>
      </trkpt>
      <trkpt lat="44.72144" lon="3.27886">
        <ele>1022.98</ele>
        <time>2016-02-21T13:25:53Z</time>
      </trkpt>
      <trkpt lat="44.72145" lon="3.27881">
        <ele>1022.98</ele>
        <time>2016-02-21T13:25:54Z</time>
      </trkpt>
      <trkpt lat="44.72145" lon="3.27875">
        <ele>1022.98</ele>
        <time>2016-02-21T13:25:55Z</time>
      </trkpt>
      <trkpt lat="44.72135" lon="3.2781">
        <ele>1024.9</ele>
        <time>2016-02-21T13:26:08Z</time>
      </trkpt>
      <trkpt lat="44.72125" lon="3.27773">
        <ele>1028.27</ele>
        <time>2016-02-21T13:26:19Z</time>
      </trkpt>
      <trkpt lat="44.72123" lon="3.27745">
        <ele>1031.15</ele>
        <time>2016-02-21T13:26:28Z</time>
      </trkpt>
      <trkpt lat="44.72132" lon="3.27706">
        <ele>1034.04</ele>
        <time>2016-02-21T13:26:40Z</time>
      </trkpt>
      <trkpt lat="44.72129" lon="3.27643">
        <ele>1036.92</ele>
        <time>2016-02-21T13:26:57Z</time>
      </trkpt>
      <trkpt lat="44.72098" lon="3.27582">
        <ele>1036.92</ele>
        <time>2016-02-21T13:27:12Z</time>
      </trkpt>
      <trkpt lat="44.7207" lon="3.27505">
        <ele>1039.32</ele>
        <time>2016-02-21T13:27:29Z</time>
      </trkpt>
      <trkpt lat="44.72044" lon="3.27444">
        <ele>1040.76</ele>
        <time>2016-02-21T13:27:43Z</time>
      </trkpt>
      <trkpt lat="44.72015" lon="3.27403">
        <ele>1039.32</ele>
        <time>2016-02-21T13:27:52Z</time>
      </trkpt>
      <trkpt lat="44.72012" lon="3.27398">
        <ele>1039.32</ele>
        <time>2016-02-21T13:27:53Z</time>
      </trkpt>
      <trkpt lat="44.72011" lon="3.27392">
        <ele>1039.8</ele>
        <time>2016-02-21T13:27:54Z</time>
      </trkpt>
      <trkpt lat="44.72013" lon="3.27386">
        <ele>1039.32</ele>
        <time>2016-02-21T13:27:55Z</time>
      </trkpt>
      <trkpt lat="44.72015" lon="3.27382">
        <ele>1039.32</ele>
        <time>2016-02-21T13:27:56Z</time>
      </trkpt>
      <trkpt lat="44.72019" lon="3.27377">
        <ele>1039.32</ele>
        <time>2016-02-21T13:27:57Z</time>
      </trkpt>
      <trkpt lat="44.72041" lon="3.27331">
        <ele>1041.73</ele>
        <time>2016-02-21T13:28:08Z</time>
      </trkpt>
      <trkpt lat="44.72029" lon="3.27295">
        <ele>1044.61</ele>
        <time>2016-02-21T13:28:19Z</time>
      </trkpt>
      <trkpt lat="44.72022" lon="3.27249">
        <ele>1047.01</ele>
        <time>2016-02-21T13:28:32Z</time>
      </trkpt>
      <trkpt lat="44.72029" lon="3.27178">
        <ele>1046.53</ele>
        <time>2016-02-21T13:28:47Z</time>
      </trkpt>
      <trkpt lat="44.72044" lon="3.27115">
        <ele>1045.09</ele>
        <time>2016-02-21T13:28:57Z</time>
      </trkpt>
      <trkpt lat="44.72045" lon="3.27108">
        <ele>1044.61</ele>
        <time>2016-02-21T13:28:58Z</time>
      </trkpt>
      <trkpt lat="44.72046" lon="3.271">
        <ele>1044.13</ele>
        <time>2016-02-21T13:28:59Z</time>
      </trkpt>
      <trkpt lat="44.72048" lon="3.27027">
        <ele>1040.76</ele>
        <time>2016-02-21T13:29:07Z</time>
      </trkpt>
      <trkpt lat="44.72053" lon="3.26947">
        <ele>1038.84</ele>
        <time>2016-02-21T13:29:15Z</time>
      </trkpt>
      <trkpt lat="44.72052" lon="3.26938">
        <ele>1038.84</ele>
        <time>2016-02-21T13:29:16Z</time>
      </trkpt>
      <trkpt lat="44.72047" lon="3.26913">
        <ele>1039.32</ele>
        <time>2016-02-21T13:29:19Z</time>
      </trkpt>
      <trkpt lat="44.72043" lon="3.26884">
        <ele>1040.28</ele>
        <time>2016-02-21T13:29:23Z</time>
      </trkpt>
      <trkpt lat="44.72042" lon="3.26878">
        <ele>1040.28</ele>
        <time>2016-02-21T13:29:24Z</time>
      </trkpt>
      <trkpt lat="44.72031" lon="3.26822">
        <ele>1043.17</ele>
        <time>2016-02-21T13:29:36Z</time>
      </trkpt>
      <trkpt lat="44.72026" lon="3.26806">
        <ele>1044.61</ele>
        <time>2016-02-21T13:29:41Z</time>
      </trkpt>
      <trkpt lat="44.72025" lon="3.26803">
        <ele>1045.09</ele>
        <time>2016-02-21T13:29:42Z</time>
      </trkpt>
      <trkpt lat="44.72024" lon="3.268">
        <ele>1045.09</ele>
        <time>2016-02-21T13:29:43Z</time>
      </trkpt>
      <trkpt lat="44.72023" lon="3.26797">
        <ele>1045.57</ele>
        <time>2016-02-21T13:29:44Z</time>
      </trkpt>
      <trkpt lat="44.72006" lon="3.26747">
        <ele>1047.49</ele>
        <time>2016-02-21T13:29:58Z</time>
      </trkpt>
      <trkpt lat="44.71993" lon="3.26688">
        <ele>1048.94</ele>
        <time>2016-02-21T13:30:12Z</time>
      </trkpt>
      <trkpt lat="44.71997" lon="3.2663">
        <ele>1050.38</ele>
        <time>2016-02-21T13:30:26Z</time>
      </trkpt>
      <trkpt lat="44.71999" lon="3.26627">
        <ele>1050.86</ele>
        <time>2016-02-21T13:30:27Z</time>
      </trkpt>
      <trkpt lat="44.72" lon="3.26623">
        <ele>1050.86</ele>
        <time>2016-02-21T13:30:28Z</time>
      </trkpt>
      <trkpt lat="44.72011" lon="3.26578">
        <ele>1053.74</ele>
        <time>2016-02-21T13:30:40Z</time>
      </trkpt>
      <trkpt lat="44.72015" lon="3.26537">
        <ele>1055.18</ele>
        <time>2016-02-21T13:30:51Z</time>
      </trkpt>
      <trkpt lat="44.72022" lon="3.26492">
        <ele>1057.59</ele>
        <time>2016-02-21T13:31:03Z</time>
      </trkpt>
      <trkpt lat="44.72025" lon="3.26438">
        <ele>1059.99</ele>
        <time>2016-02-21T13:31:18Z</time>
      </trkpt>
      <trkpt lat="44.72021" lon="3.26392">
        <ele>1061.43</ele>
        <time>2016-02-21T13:31:31Z</time>
      </trkpt>
      <trkpt lat="44.72014" lon="3.26341">
        <ele>1063.84</ele>
        <time>2016-02-21T13:31:47Z</time>
      </trkpt>
      <trkpt lat="44.72004" lon="3.26299">
        <ele>1065.28</ele>
        <time>2016-02-21T13:32:00Z</time>
      </trkpt>
      <trkpt lat="44.71989" lon="3.26246">
        <ele>1066.72</ele>
        <time>2016-02-21T13:32:15Z</time>
      </trkpt>
      <trkpt lat="44.71985" lon="3.26202">
        <ele>1067.2</ele>
        <time>2016-02-21T13:32:27Z</time>
      </trkpt>
      <trkpt lat="44.71989" lon="3.26127">
        <ele>1068.64</ele>
        <time>2016-02-21T13:32:45Z</time>
      </trkpt>
      <trkpt lat="44.72003" lon="3.26061">
        <ele>1070.08</ele>
        <time>2016-02-21T13:33:01Z</time>
      </trkpt>
      <trkpt lat="44.72013" lon="3.26011">
        <ele>1070.57</ele>
        <time>2016-02-21T13:33:15Z</time>
      </trkpt>
      <trkpt lat="44.72027" lon="3.25955">
        <ele>1071.05</ele>
        <time>2016-02-21T13:33:28Z</time>
      </trkpt>
      <trkpt lat="44.72047" lon="3.25874">
        <ele>1073.45</ele>
        <time>2016-02-21T13:33:47Z</time>
      </trkpt>
      <trkpt lat="44.72049" lon="3.25822">
        <ele>1073.93</ele>
        <time>2016-02-21T13:33:59Z</time>
      </trkpt>
      <trkpt lat="44.72056" lon="3.25759">
        <ele>1075.85</ele>
        <time>2016-02-21T13:34:14Z</time>
      </trkpt>
      <trkpt lat="44.7207" lon="3.25711">
        <ele>1076.81</ele>
        <time>2016-02-21T13:34:26Z</time>
      </trkpt>
      <trkpt lat="44.72091" lon="3.25656">
        <ele>1078.74</ele>
        <time>2016-02-21T13:34:41Z</time>
      </trkpt>
      <trkpt lat="44.72108" lon="3.25614">
        <ele>1080.18</ele>
        <time>2016-02-21T13:34:53Z</time>
      </trkpt>
      <trkpt lat="44.7213" lon="3.25569">
        <ele>1081.14</ele>
        <time>2016-02-21T13:35:07Z</time>
      </trkpt>
      <trkpt lat="44.7215" lon="3.25525">
        <ele>1081.62</ele>
        <time>2016-02-21T13:35:20Z</time>
      </trkpt>
      <trkpt lat="44.72166" lon="3.25477">
        <ele>1082.58</ele>
        <time>2016-02-21T13:35:32Z</time>
      </trkpt>
      <trkpt lat="44.72184" lon="3.25402">
        <ele>1083.06</ele>
        <time>2016-02-21T13:35:48Z</time>
      </trkpt>
      <trkpt lat="44.72199" lon="3.25345">
        <ele>1083.54</ele>
        <time>2016-02-21T13:36:01Z</time>
      </trkpt>
      <trkpt lat="44.72205" lon="3.25295">
        <ele>1084.99</ele>
        <time>2016-02-21T13:36:12Z</time>
      </trkpt>
      <trkpt lat="44.7221" lon="3.25249">
        <ele>1085.95</ele>
        <time>2016-02-21T13:36:23Z</time>
      </trkpt>
      <trkpt lat="44.7221" lon="3.25245">
        <ele>1085.95</ele>
        <time>2016-02-21T13:36:24Z</time>
      </trkpt>
      <trkpt lat="44.7221" lon="3.25241">
        <ele>1085.95</ele>
        <time>2016-02-21T13:36:25Z</time>
      </trkpt>
      <trkpt lat="44.72211" lon="3.25238">
        <ele>1085.95</ele>
        <time>2016-02-21T13:36:26Z</time>
      </trkpt>
      <trkpt lat="44.72212" lon="3.25233">
        <ele>1085.95</ele>
        <time>2016-02-21T13:36:27Z</time>
      </trkpt>
      <trkpt lat="44.72213" lon="3.25229">
        <ele>1086.43</ele>
        <time>2016-02-21T13:36:28Z</time>
      </trkpt>
      <trkpt lat="44.72213" lon="3.25224">
        <ele>1086.43</ele>
        <time>2016-02-21T13:36:29Z</time>
      </trkpt>
      <trkpt lat="44.72214" lon="3.25219">
        <ele>1086.43</ele>
        <time>2016-02-21T13:36:30Z</time>
      </trkpt>
      <trkpt lat="44.72215" lon="3.25215">
        <ele>1086.43</ele>
        <time>2016-02-21T13:36:31Z</time>
      </trkpt>
      <trkpt lat="44.72216" lon="3.2521">
        <ele>1086.91</ele>
        <time>2016-02-21T13:36:32Z</time>
      </trkpt>
      <trkpt lat="44.72221" lon="3.25159">
        <ele>1088.83</ele>
        <time>2016-02-21T13:36:44Z</time>
      </trkpt>
      <trkpt lat="44.7222" lon="3.25149">
        <ele>1089.31</ele>
        <time>2016-02-21T13:36:47Z</time>
      </trkpt>
      <trkpt lat="44.7222" lon="3.25146">
        <ele>1089.31</ele>
        <time>2016-02-21T13:36:48Z</time>
      </trkpt>
      <trkpt lat="44.7222" lon="3.25143">
        <ele>1088.83</ele>
        <time>2016-02-21T13:36:49Z</time>
      </trkpt>
      <trkpt lat="44.72208" lon="3.25087">
        <ele>1089.31</ele>
        <time>2016-02-21T13:37:04Z</time>
      </trkpt>
      <trkpt lat="44.72208" lon="3.25083">
        <ele>1089.31</ele>
        <time>2016-02-21T13:37:05Z</time>
      </trkpt>
      <trkpt lat="44.72208" lon="3.25079">
        <ele>1088.83</ele>
        <time>2016-02-21T13:37:06Z</time>
      </trkpt>
      <trkpt lat="44.72209" lon="3.25075">
        <ele>1089.31</ele>
        <time>2016-02-21T13:37:07Z</time>
      </trkpt>
      <trkpt lat="44.72209" lon="3.25071">
        <ele>1089.31</ele>
        <time>2016-02-21T13:37:08Z</time>
      </trkpt>
      <trkpt lat="44.7221" lon="3.25067">
        <ele>1089.79</ele>
        <time>2016-02-21T13:37:09Z</time>
      </trkpt>
      <trkpt lat="44.72228" lon="3.25019">
        <ele>1090.75</ele>
        <time>2016-02-21T13:37:23Z</time>
      </trkpt>
      <trkpt lat="44.72251" lon="3.24969">
        <ele>1093.64</ele>
        <time>2016-02-21T13:37:41Z</time>
      </trkpt>
      <trkpt lat="44.72263" lon="3.24939">
        <ele>1096.52</ele>
        <time>2016-02-21T13:37:53Z</time>
      </trkpt>
      <trkpt lat="44.72279" lon="3.24902">
        <ele>1099.4</ele>
        <time>2016-02-21T13:38:08Z</time>
      </trkpt>
      <trkpt lat="44.72288" lon="3.24873">
        <ele>1101.81</ele>
        <time>2016-02-21T13:38:18Z</time>
      </trkpt>
      <trkpt lat="44.72291" lon="3.24855">
        <ele>1102.77</ele>
        <time>2016-02-21T13:38:24Z</time>
      </trkpt>
      <trkpt lat="44.72301" lon="3.24804">
        <ele>1104.69</ele>
        <time>2016-02-21T13:38:40Z</time>
      </trkpt>
      <trkpt lat="44.72317" lon="3.24745">
        <ele>1105.17</ele>
        <time>2016-02-21T13:38:55Z</time>
      </trkpt>
      <trkpt lat="44.72345" lon="3.24668">
        <ele>1102.77</ele>
        <time>2016-02-21T13:39:08Z</time>
      </trkpt>
      <trkpt lat="44.72379" lon="3.24588">
        <ele>1101.81</ele>
        <time>2016-02-21T13:39:21Z</time>
      </trkpt>
      <trkpt lat="44.72388" lon="3.24559">
        <ele>1101.81</ele>
        <time>2016-02-21T13:39:26Z</time>
      </trkpt>
      <trkpt lat="44.72401" lon="3.24477">
        <ele>1101.81</ele>
        <time>2016-02-21T13:39:40Z</time>
      </trkpt>
      <trkpt lat="44.72403" lon="3.24459">
        <ele>1101.33</ele>
        <time>2016-02-21T13:39:43Z</time>
      </trkpt>
      <trkpt lat="44.72403" lon="3.24453">
        <ele>1101.81</ele>
        <time>2016-02-21T13:39:44Z</time>
      </trkpt>
      <trkpt lat="44.72404" lon="3.24447">
        <ele>1101.81</ele>
        <time>2016-02-21T13:39:45Z</time>
      </trkpt>
      <trkpt lat="44.72408" lon="3.24423">
        <ele>1102.29</ele>
        <time>2016-02-21T13:39:49Z</time>
      </trkpt>
      <trkpt lat="44.72409" lon="3.24417">
        <ele>1102.29</ele>
        <time>2016-02-21T13:39:50Z</time>
      </trkpt>
      <trkpt lat="44.72432" lon="3.24369">
        <ele>1103.73</ele>
        <time>2016-02-21T13:40:02Z</time>
      </trkpt>
      <trkpt lat="44.72448" lon="3.24332">
        <ele>1106.61</ele>
        <time>2016-02-21T13:40:15Z</time>
      </trkpt>
      <trkpt lat="44.7246" lon="3.24292">
        <ele>1109.98</ele>
        <time>2016-02-21T13:40:28Z</time>
      </trkpt>
      <trkpt lat="44.72468" lon="3.24267">
        <ele>1111.42</ele>
        <time>2016-02-21T13:40:37Z</time>
      </trkpt>
      <trkpt lat="44.72471" lon="3.24266">
        <ele>1111.42</ele>
        <time>2016-02-21T13:40:39Z</time>
      </trkpt>
      <trkpt lat="44.72471" lon="3.24264">
        <ele>1111.42</ele>
        <time>2016-02-21T13:40:40Z</time>
      </trkpt>
      <trkpt lat="44.72469" lon="3.24264">
        <ele>1111.42</ele>
        <time>2016-02-21T13:40:42Z</time>
      </trkpt>
      <trkpt lat="44.72468" lon="3.24266">
        <ele>1111.42</ele>
        <time>2016-02-21T13:40:43Z</time>
      </trkpt>
      <trkpt lat="44.72467" lon="3.24269">
        <ele>1111.42</ele>
        <time>2016-02-21T13:40:44Z</time>
      </trkpt>
      <trkpt lat="44.72461" lon="3.24281">
        <ele>1110.94</ele>
        <time>2016-02-21T13:40:53Z</time>
      </trkpt>
      <trkpt lat="44.72461" lon="3.24281">
        <ele>1110.94</ele>
        <time>2016-02-21T13:41:19Z</time>
      </trkpt>
      <trkpt lat="44.72462" lon="3.24282">
        <ele>1110.46</ele>
        <time>2016-02-21T13:41:48Z</time>
      </trkpt>
      <trkpt lat="44.72462" lon="3.24283">
        <ele>1110.46</ele>
        <time>2016-02-21T13:42:18Z</time>
      </trkpt>
      <trkpt lat="44.72462" lon="3.24282">
        <ele>1110.46</ele>
        <time>2016-02-21T13:42:42Z</time>
      </trkpt>
      <trkpt lat="44.72462" lon="3.24282">
        <ele>1110.94</ele>
        <time>2016-02-21T13:43:02Z</time>
      </trkpt>
      <trkpt lat="44.72462" lon="3.24281">
        <ele>1110.46</ele>
        <time>2016-02-21T13:43:05Z</time>
      </trkpt>
      <trkpt lat="44.72464" lon="3.2428">
        <ele>1110.46</ele>
        <time>2016-02-21T13:43:06Z</time>
      </trkpt>
      <trkpt lat="44.72465" lon="3.24278">
        <ele>1110.46</ele>
        <time>2016-02-21T13:43:07Z</time>
      </trkpt>
      <trkpt lat="44.72466" lon="3.24276">
        <ele>1110.46</ele>
        <time>2016-02-21T13:43:08Z</time>
      </trkpt>
      <trkpt lat="44.72479" lon="3.24224">
        <ele>1111.42</ele>
        <time>2016-02-21T13:43:25Z</time>
      </trkpt>
      <trkpt lat="44.72499" lon="3.24177">
        <ele>1112.38</ele>
        <time>2016-02-21T13:43:40Z</time>
      </trkpt>
      <trkpt lat="44.72516" lon="3.2414">
        <ele>1112.86</ele>
        <time>2016-02-21T13:43:52Z</time>
      </trkpt>
      <trkpt lat="44.72537" lon="3.24087">
        <ele>1113.82</ele>
        <time>2016-02-21T13:44:08Z</time>
      </trkpt>
      <trkpt lat="44.72551" lon="3.24028">
        <ele>1116.23</ele>
        <time>2016-02-21T13:44:26Z</time>
      </trkpt>
      <trkpt lat="44.72554" lon="3.23981">
        <ele>1119.11</ele>
        <time>2016-02-21T13:44:40Z</time>
      </trkpt>
      <trkpt lat="44.72564" lon="3.2394">
        <ele>1120.07</ele>
        <time>2016-02-21T13:44:53Z</time>
      </trkpt>
      <trkpt lat="44.72583" lon="3.23889">
        <ele>1121.52</ele>
        <time>2016-02-21T13:45:09Z</time>
      </trkpt>
      <trkpt lat="44.72601" lon="3.23839">
        <ele>1122.96</ele>
        <time>2016-02-21T13:45:25Z</time>
      </trkpt>
      <trkpt lat="44.72619" lon="3.23795">
        <ele>1124.4</ele>
        <time>2016-02-21T13:45:40Z</time>
      </trkpt>
      <trkpt lat="44.7264" lon="3.23744">
        <ele>1125.36</ele>
        <time>2016-02-21T13:45:58Z</time>
      </trkpt>
      <trkpt lat="44.72658" lon="3.23701">
        <ele>1126.8</ele>
        <time>2016-02-21T13:46:13Z</time>
      </trkpt>
      <trkpt lat="44.72673" lon="3.23661">
        <ele>1127.76</ele>
        <time>2016-02-21T13:46:27Z</time>
      </trkpt>
      <trkpt lat="44.72659" lon="3.23638">
        <ele>1128.73</ele>
        <time>2016-02-21T13:46:38Z</time>
      </trkpt>
      <trkpt lat="44.72627" lon="3.23622">
        <ele>1130.65</ele>
        <time>2016-02-21T13:46:53Z</time>
      </trkpt>
      <trkpt lat="44.72588" lon="3.23583">
        <ele>1128.24</ele>
        <time>2016-02-21T13:47:07Z</time>
      </trkpt>
      <trkpt lat="44.72542" lon="3.23523">
        <ele>1126.32</ele>
        <time>2016-02-21T13:47:21Z</time>
      </trkpt>
      <trkpt lat="44.72494" lon="3.23486">
        <ele>1128.24</ele>
        <time>2016-02-21T13:47:35Z</time>
      </trkpt>
      <trkpt lat="44.72467" lon="3.23454">
        <ele>1128.24</ele>
        <time>2016-02-21T13:47:45Z</time>
      </trkpt>
      <trkpt lat="44.72425" lon="3.23401">
        <ele>1128.24</ele>
        <time>2016-02-21T13:47:59Z</time>
      </trkpt>
      <trkpt lat="44.7239" lon="3.23351">
        <ele>1126.8</ele>
        <time>2016-02-21T13:48:10Z</time>
      </trkpt>
      <trkpt lat="44.72387" lon="3.23345">
        <ele>1126.8</ele>
        <time>2016-02-21T13:48:11Z</time>
      </trkpt>
      <trkpt lat="44.72384" lon="3.23339">
        <ele>1126.32</ele>
        <time>2016-02-21T13:48:12Z</time>
      </trkpt>
      <trkpt lat="44.72362" lon="3.23298">
        <ele>1123.44</ele>
        <time>2016-02-21T13:48:18Z</time>
      </trkpt>
      <trkpt lat="44.72351" lon="3.23276">
        <ele>1122.48</ele>
        <time>2016-02-21T13:48:21Z</time>
      </trkpt>
      <trkpt lat="44.72332" lon="3.23244">
        <ele>1122</ele>
        <time>2016-02-21T13:48:26Z</time>
      </trkpt>
      <trkpt lat="44.72327" lon="3.2324">
        <ele>1121.52</ele>
        <time>2016-02-21T13:48:27Z</time>
      </trkpt>
      <trkpt lat="44.72323" lon="3.23235">
        <ele>1121.52</ele>
        <time>2016-02-21T13:48:28Z</time>
      </trkpt>
      <trkpt lat="44.7232" lon="3.2323">
        <ele>1121.52</ele>
        <time>2016-02-21T13:48:29Z</time>
      </trkpt>
      <trkpt lat="44.72317" lon="3.23226">
        <ele>1122</ele>
        <time>2016-02-21T13:48:30Z</time>
      </trkpt>
      <trkpt lat="44.72314" lon="3.23222">
        <ele>1122</ele>
        <time>2016-02-21T13:48:31Z</time>
      </trkpt>
      <trkpt lat="44.7231" lon="3.23219">
        <ele>1122</ele>
        <time>2016-02-21T13:48:32Z</time>
      </trkpt>
      <trkpt lat="44.72306" lon="3.23215">
        <ele>1122</ele>
        <time>2016-02-21T13:48:33Z</time>
      </trkpt>
      <trkpt lat="44.72303" lon="3.23212">
        <ele>1122</ele>
        <time>2016-02-21T13:48:34Z</time>
      </trkpt>
      <trkpt lat="44.72299" lon="3.23209">
        <ele>1122</ele>
        <time>2016-02-21T13:48:35Z</time>
      </trkpt>
      <trkpt lat="44.72295" lon="3.23206">
        <ele>1122</ele>
        <time>2016-02-21T13:48:36Z</time>
      </trkpt>
      <trkpt lat="44.72255" lon="3.2317">
        <ele>1123.92</ele>
        <time>2016-02-21T13:48:49Z</time>
      </trkpt>
      <trkpt lat="44.7225" lon="3.23162">
        <ele>1123.44</ele>
        <time>2016-02-21T13:48:51Z</time>
      </trkpt>
      <trkpt lat="44.72246" lon="3.23159">
        <ele>1123.44</ele>
        <time>2016-02-21T13:48:52Z</time>
      </trkpt>
      <trkpt lat="44.72237" lon="3.23147">
        <ele>1122.96</ele>
        <time>2016-02-21T13:48:55Z</time>
      </trkpt>
      <trkpt lat="44.72211" lon="3.23105">
        <ele>1123.44</ele>
        <time>2016-02-21T13:49:06Z</time>
      </trkpt>
      <trkpt lat="44.72188" lon="3.23071">
        <ele>1124.4</ele>
        <time>2016-02-21T13:49:16Z</time>
      </trkpt>
      <trkpt lat="44.72161" lon="3.23033">
        <ele>1125.36</ele>
        <time>2016-02-21T13:49:28Z</time>
      </trkpt>
      <trkpt lat="44.72161" lon="3.2303">
        <ele>1125.84</ele>
        <time>2016-02-21T13:49:29Z</time>
      </trkpt>
      <trkpt lat="44.72161" lon="3.23028">
        <ele>1126.32</ele>
        <time>2016-02-21T13:49:30Z</time>
      </trkpt>
      <trkpt lat="44.72162" lon="3.23026">
        <ele>1126.32</ele>
        <time>2016-02-21T13:49:31Z</time>
      </trkpt>
      <trkpt lat="44.72163" lon="3.23025">
        <ele>1126.32</ele>
        <time>2016-02-21T13:49:32Z</time>
      </trkpt>
      <trkpt lat="44.72165" lon="3.23025">
        <ele>1126.32</ele>
        <time>2016-02-21T13:49:33Z</time>
      </trkpt>
      <trkpt lat="44.72166" lon="3.23023">
        <ele>1125.84</ele>
        <time>2016-02-21T13:49:35Z</time>
      </trkpt>
      <trkpt lat="44.72168" lon="3.23019">
        <ele>1125.84</ele>
        <time>2016-02-21T13:49:46Z</time>
      </trkpt>
      <trkpt lat="44.72169" lon="3.23017">
        <ele>1125.84</ele>
        <time>2016-02-21T13:49:47Z</time>
      </trkpt>
      <trkpt lat="44.72171" lon="3.23015">
        <ele>1125.84</ele>
        <time>2016-02-21T13:49:48Z</time>
      </trkpt>
      <trkpt lat="44.72196" lon="3.2298">
        <ele>1124.88</ele>
        <time>2016-02-21T13:49:58Z</time>
      </trkpt>
      <trkpt lat="44.72215" lon="3.22939">
        <ele>1124.88</ele>
        <time>2016-02-21T13:50:10Z</time>
      </trkpt>
      <trkpt lat="44.72231" lon="3.22904">
        <ele>1124.4</ele>
        <time>2016-02-21T13:50:23Z</time>
      </trkpt>
      <trkpt lat="44.72255" lon="3.22852">
        <ele>1123.44</ele>
        <time>2016-02-21T13:50:34Z</time>
      </trkpt>
      <trkpt lat="44.72262" lon="3.22839">
        <ele>1123.92</ele>
        <time>2016-02-21T13:50:37Z</time>
      </trkpt>
      <trkpt lat="44.72267" lon="3.22829">
        <ele>1123.44</ele>
        <time>2016-02-21T13:50:39Z</time>
      </trkpt>
      <trkpt lat="44.72272" lon="3.22819">
        <ele>1123.44</ele>
        <time>2016-02-21T13:50:41Z</time>
      </trkpt>
      <trkpt lat="44.72275" lon="3.22814">
        <ele>1122.96</ele>
        <time>2016-02-21T13:50:42Z</time>
      </trkpt>
      <trkpt lat="44.72318" lon="3.22732">
        <ele>1122</ele>
        <time>2016-02-21T13:50:58Z</time>
      </trkpt>
      <trkpt lat="44.72325" lon="3.22718">
        <ele>1121.52</ele>
        <time>2016-02-21T13:51:01Z</time>
      </trkpt>
      <trkpt lat="44.72329" lon="3.22715">
        <ele>1121.52</ele>
        <time>2016-02-21T13:51:02Z</time>
      </trkpt>
      <trkpt lat="44.72332" lon="3.22712">
        <ele>1121.03</ele>
        <time>2016-02-21T13:51:03Z</time>
      </trkpt>
      <trkpt lat="44.72354" lon="3.22702">
        <ele>1120.07</ele>
        <time>2016-02-21T13:51:12Z</time>
      </trkpt>
      <trkpt lat="44.72359" lon="3.227">
        <ele>1120.07</ele>
        <time>2016-02-21T13:51:18Z</time>
      </trkpt>
      <trkpt lat="44.72361" lon="3.22702">
        <ele>1119.59</ele>
        <time>2016-02-21T13:51:19Z</time>
      </trkpt>
      <trkpt lat="44.72364" lon="3.22704">
        <ele>1118.63</ele>
        <time>2016-02-21T13:51:20Z</time>
      </trkpt>
      <trkpt lat="44.72366" lon="3.22707">
        <ele>1118.63</ele>
        <time>2016-02-21T13:51:21Z</time>
      </trkpt>
      <trkpt lat="44.72369" lon="3.22711">
        <ele>1118.15</ele>
        <time>2016-02-21T13:51:22Z</time>
      </trkpt>
      <trkpt lat="44.72372" lon="3.22715">
        <ele>1117.67</ele>
        <time>2016-02-21T13:51:23Z</time>
      </trkpt>
      <trkpt lat="44.72376" lon="3.22719">
        <ele>1117.67</ele>
        <time>2016-02-21T13:51:24Z</time>
      </trkpt>
      <trkpt lat="44.7238" lon="3.22723">
        <ele>1117.19</ele>
        <time>2016-02-21T13:51:25Z</time>
      </trkpt>
      <trkpt lat="44.72393" lon="3.22735">
        <ele>1113.34</ele>
        <time>2016-02-21T13:51:28Z</time>
      </trkpt>
      <trkpt lat="44.72397" lon="3.22739">
        <ele>1112.86</ele>
        <time>2016-02-21T13:51:29Z</time>
      </trkpt>
      <trkpt lat="44.72407" lon="3.22748">
        <ele>1110.94</ele>
        <time>2016-02-21T13:51:31Z</time>
      </trkpt>
      <trkpt lat="44.72412" lon="3.22752">
        <ele>1109.98</ele>
        <time>2016-02-21T13:51:32Z</time>
      </trkpt>
      <trkpt lat="44.72417" lon="3.22756">
        <ele>1109.02</ele>
        <time>2016-02-21T13:51:33Z</time>
      </trkpt>
      <trkpt lat="44.72423" lon="3.22757">
        <ele>1109.02</ele>
        <time>2016-02-21T13:51:34Z</time>
      </trkpt>
      <trkpt lat="44.72428" lon="3.22758">
        <ele>1109.02</ele>
        <time>2016-02-21T13:51:35Z</time>
      </trkpt>
      <trkpt lat="44.72433" lon="3.22758">
        <ele>1108.54</ele>
        <time>2016-02-21T13:51:36Z</time>
      </trkpt>
      <trkpt lat="44.72437" lon="3.22756">
        <ele>1108.54</ele>
        <time>2016-02-21T13:51:37Z</time>
      </trkpt>
      <trkpt lat="44.72441" lon="3.22755">
        <ele>1108.54</ele>
        <time>2016-02-21T13:51:38Z</time>
      </trkpt>
      <trkpt lat="44.72446" lon="3.22754">
        <ele>1108.06</ele>
        <time>2016-02-21T13:51:39Z</time>
      </trkpt>
      <trkpt lat="44.72451" lon="3.22753">
        <ele>1107.58</ele>
        <time>2016-02-21T13:51:40Z</time>
      </trkpt>
      <trkpt lat="44.72456" lon="3.22754">
        <ele>1107.1</ele>
        <time>2016-02-21T13:51:41Z</time>
      </trkpt>
      <trkpt lat="44.72462" lon="3.22755">
        <ele>1106.61</ele>
        <time>2016-02-21T13:51:42Z</time>
      </trkpt>
      <trkpt lat="44.72467" lon="3.22756">
        <ele>1106.13</ele>
        <time>2016-02-21T13:51:43Z</time>
      </trkpt>
      <trkpt lat="44.72478" lon="3.22759">
        <ele>1104.21</ele>
        <time>2016-02-21T13:51:45Z</time>
      </trkpt>
      <trkpt lat="44.72484" lon="3.22759">
        <ele>1103.73</ele>
        <time>2016-02-21T13:51:46Z</time>
      </trkpt>
      <trkpt lat="44.72489" lon="3.22758">
        <ele>1103.25</ele>
        <time>2016-02-21T13:51:47Z</time>
      </trkpt>
      <trkpt lat="44.72494" lon="3.22756">
        <ele>1102.29</ele>
        <time>2016-02-21T13:51:48Z</time>
      </trkpt>
      <trkpt lat="44.725" lon="3.22753">
        <ele>1102.29</ele>
        <time>2016-02-21T13:51:49Z</time>
      </trkpt>
      <trkpt lat="44.72505" lon="3.2275">
        <ele>1101.33</ele>
        <time>2016-02-21T13:51:50Z</time>
      </trkpt>
      <trkpt lat="44.7251" lon="3.22747">
        <ele>1101.33</ele>
        <time>2016-02-21T13:51:51Z</time>
      </trkpt>
      <trkpt lat="44.72514" lon="3.22745">
        <ele>1100.37</ele>
        <time>2016-02-21T13:51:52Z</time>
      </trkpt>
      <trkpt lat="44.72524" lon="3.22742">
        <ele>1098.44</ele>
        <time>2016-02-21T13:51:54Z</time>
      </trkpt>
      <trkpt lat="44.72529" lon="3.22741">
        <ele>1097.48</ele>
        <time>2016-02-21T13:51:55Z</time>
      </trkpt>
      <trkpt lat="44.72534" lon="3.22741">
        <ele>1097</ele>
        <time>2016-02-21T13:51:56Z</time>
      </trkpt>
      <trkpt lat="44.72539" lon="3.22743">
        <ele>1096.52</ele>
        <time>2016-02-21T13:51:57Z</time>
      </trkpt>
      <trkpt lat="44.72545" lon="3.22746">
        <ele>1096.04</ele>
        <time>2016-02-21T13:51:58Z</time>
      </trkpt>
      <trkpt lat="44.7255" lon="3.22748">
        <ele>1095.56</ele>
        <time>2016-02-21T13:51:59Z</time>
      </trkpt>
      <trkpt lat="44.72567" lon="3.22759">
        <ele>1092.68</ele>
        <time>2016-02-21T13:52:02Z</time>
      </trkpt>
      <trkpt lat="44.72583" lon="3.22772">
        <ele>1090.27</ele>
        <time>2016-02-21T13:52:05Z</time>
      </trkpt>
      <trkpt lat="44.72588" lon="3.22772">
        <ele>1090.27</ele>
        <time>2016-02-21T13:52:06Z</time>
      </trkpt>
      <trkpt lat="44.72606" lon="3.22767">
        <ele>1087.87</ele>
        <time>2016-02-21T13:52:09Z</time>
      </trkpt>
      <trkpt lat="44.72619" lon="3.22764">
        <ele>1086.91</ele>
        <time>2016-02-21T13:52:11Z</time>
      </trkpt>
      <trkpt lat="44.72625" lon="3.22761">
        <ele>1086.43</ele>
        <time>2016-02-21T13:52:12Z</time>
      </trkpt>
      <trkpt lat="44.72629" lon="3.22757">
        <ele>1086.43</ele>
        <time>2016-02-21T13:52:13Z</time>
      </trkpt>
      <trkpt lat="44.72632" lon="3.22751">
        <ele>1086.91</ele>
        <time>2016-02-21T13:52:14Z</time>
      </trkpt>
      <trkpt lat="44.72634" lon="3.22746">
        <ele>1087.39</ele>
        <time>2016-02-21T13:52:15Z</time>
      </trkpt>
      <trkpt lat="44.72635" lon="3.22739">
        <ele>1086.91</ele>
        <time>2016-02-21T13:52:16Z</time>
      </trkpt>
      <trkpt lat="44.72637" lon="3.22733">
        <ele>1086.91</ele>
        <time>2016-02-21T13:52:17Z</time>
      </trkpt>
      <trkpt lat="44.72639" lon="3.22728">
        <ele>1086.43</ele>
        <time>2016-02-21T13:52:18Z</time>
      </trkpt>
      <trkpt lat="44.72643" lon="3.22724">
        <ele>1085.95</ele>
        <time>2016-02-21T13:52:19Z</time>
      </trkpt>
      <trkpt lat="44.72647" lon="3.2272">
        <ele>1085.95</ele>
        <time>2016-02-21T13:52:20Z</time>
      </trkpt>
      <trkpt lat="44.72652" lon="3.22717">
        <ele>1085.47</ele>
        <time>2016-02-21T13:52:21Z</time>
      </trkpt>
      <trkpt lat="44.72656" lon="3.22715">
        <ele>1084.99</ele>
        <time>2016-02-21T13:52:22Z</time>
      </trkpt>
      <trkpt lat="44.72714" lon="3.22676">
        <ele>1084.02</ele>
        <time>2016-02-21T13:52:35Z</time>
      </trkpt>
      <trkpt lat="44.72718" lon="3.22673">
        <ele>1084.02</ele>
        <time>2016-02-21T13:52:36Z</time>
      </trkpt>
      <trkpt lat="44.72721" lon="3.22671">
        <ele>1084.02</ele>
        <time>2016-02-21T13:52:37Z</time>
      </trkpt>
      <trkpt lat="44.72726" lon="3.2267">
        <ele>1084.02</ele>
        <time>2016-02-21T13:52:38Z</time>
      </trkpt>
      <trkpt lat="44.7273" lon="3.2267">
        <ele>1084.02</ele>
        <time>2016-02-21T13:52:39Z</time>
      </trkpt>
      <trkpt lat="44.72734" lon="3.2267">
        <ele>1083.54</ele>
        <time>2016-02-21T13:52:40Z</time>
      </trkpt>
      <trkpt lat="44.72739" lon="3.22669">
        <ele>1083.54</ele>
        <time>2016-02-21T13:52:41Z</time>
      </trkpt>
      <trkpt lat="44.72748" lon="3.22668">
        <ele>1082.58</ele>
        <time>2016-02-21T13:52:43Z</time>
      </trkpt>
      <trkpt lat="44.72753" lon="3.22669">
        <ele>1082.1</ele>
        <time>2016-02-21T13:52:44Z</time>
      </trkpt>
      <trkpt lat="44.72762" lon="3.22671">
        <ele>1082.1</ele>
        <time>2016-02-21T13:52:46Z</time>
      </trkpt>
      <trkpt lat="44.72766" lon="3.2267">
        <ele>1082.1</ele>
        <time>2016-02-21T13:52:47Z</time>
      </trkpt>
      <trkpt lat="44.72769" lon="3.22668">
        <ele>1081.62</ele>
        <time>2016-02-21T13:52:48Z</time>
      </trkpt>
      <trkpt lat="44.72772" lon="3.22664">
        <ele>1081.62</ele>
        <time>2016-02-21T13:52:49Z</time>
      </trkpt>
      <trkpt lat="44.72775" lon="3.22661">
        <ele>1081.62</ele>
        <time>2016-02-21T13:52:50Z</time>
      </trkpt>
      <trkpt lat="44.72777" lon="3.22657">
        <ele>1082.1</ele>
        <time>2016-02-21T13:52:51Z</time>
      </trkpt>
      <trkpt lat="44.72779" lon="3.22654">
        <ele>1082.58</ele>
        <time>2016-02-21T13:52:52Z</time>
      </trkpt>
      <trkpt lat="44.728" lon="3.2264">
        <ele>1083.06</ele>
        <time>2016-02-21T13:53:01Z</time>
      </trkpt>
      <trkpt lat="44.72815" lon="3.22638">
        <ele>1083.06</ele>
        <time>2016-02-21T13:53:08Z</time>
      </trkpt>
      <trkpt lat="44.72818" lon="3.22641">
        <ele>1082.58</ele>
        <time>2016-02-21T13:53:09Z</time>
      </trkpt>
      <trkpt lat="44.72821" lon="3.22643">
        <ele>1082.58</ele>
        <time>2016-02-21T13:53:10Z</time>
      </trkpt>
      <trkpt lat="44.72824" lon="3.22646">
        <ele>1082.58</ele>
        <time>2016-02-21T13:53:11Z</time>
      </trkpt>
      <trkpt lat="44.72828" lon="3.22647">
        <ele>1082.58</ele>
        <time>2016-02-21T13:53:12Z</time>
      </trkpt>
      <trkpt lat="44.72832" lon="3.22647">
        <ele>1082.1</ele>
        <time>2016-02-21T13:53:13Z</time>
      </trkpt>
      <trkpt lat="44.72836" lon="3.22645">
        <ele>1082.1</ele>
        <time>2016-02-21T13:53:14Z</time>
      </trkpt>
      <trkpt lat="44.7284" lon="3.22643">
        <ele>1082.1</ele>
        <time>2016-02-21T13:53:15Z</time>
      </trkpt>
      <trkpt lat="44.72874" lon="3.22619">
        <ele>1084.99</ele>
        <time>2016-02-21T13:53:28Z</time>
      </trkpt>
      <trkpt lat="44.72915" lon="3.22608">
        <ele>1087.39</ele>
        <time>2016-02-21T13:53:42Z</time>
      </trkpt>
      <trkpt lat="44.72945" lon="3.22587">
        <ele>1090.27</ele>
        <time>2016-02-21T13:53:55Z</time>
      </trkpt>
      <trkpt lat="44.72971" lon="3.22559">
        <ele>1093.16</ele>
        <time>2016-02-21T13:54:09Z</time>
      </trkpt>
      <trkpt lat="44.72984" lon="3.2253">
        <ele>1096.04</ele>
        <time>2016-02-21T13:54:22Z</time>
      </trkpt>
      <trkpt lat="44.73003" lon="3.22511">
        <ele>1099.4</ele>
        <time>2016-02-21T13:54:35Z</time>
      </trkpt>
      <trkpt lat="44.73005" lon="3.22512">
        <ele>1099.4</ele>
        <time>2016-02-21T13:54:36Z</time>
      </trkpt>
      <trkpt lat="44.73031" lon="3.22529">
        <ele>1098.44</ele>
        <time>2016-02-21T13:54:47Z</time>
      </trkpt>
      <trkpt lat="44.73057" lon="3.2255">
        <ele>1097.96</ele>
        <time>2016-02-21T13:54:56Z</time>
      </trkpt>
      <trkpt lat="44.73061" lon="3.22551">
        <ele>1097.96</ele>
        <time>2016-02-21T13:54:57Z</time>
      </trkpt>
      <trkpt lat="44.73099" lon="3.22546">
        <ele>1097.96</ele>
        <time>2016-02-21T13:55:09Z</time>
      </trkpt>
      <trkpt lat="44.73124" lon="3.22535">
        <ele>1098.44</ele>
        <time>2016-02-21T13:55:19Z</time>
      </trkpt>
      <trkpt lat="44.73135" lon="3.22532">
        <ele>1098.92</ele>
        <time>2016-02-21T13:55:24Z</time>
      </trkpt>
      <trkpt lat="44.73138" lon="3.22532">
        <ele>1098.92</ele>
        <time>2016-02-21T13:55:25Z</time>
      </trkpt>
      <trkpt lat="44.73172" lon="3.22541">
        <ele>1097.48</ele>
        <time>2016-02-21T13:55:37Z</time>
      </trkpt>
      <trkpt lat="44.73206" lon="3.22552">
        <ele>1098.44</ele>
        <time>2016-02-21T13:55:50Z</time>
      </trkpt>
      <trkpt lat="44.73239" lon="3.2256">
        <ele>1099.4</ele>
        <time>2016-02-21T13:56:05Z</time>
      </trkpt>
      <trkpt lat="44.73246" lon="3.22558">
        <ele>1100.37</ele>
        <time>2016-02-21T13:56:16Z</time>
      </trkpt>
      <trkpt lat="44.73258" lon="3.22554">
        <ele>1102.77</ele>
        <time>2016-02-21T13:56:29Z</time>
      </trkpt>
      <trkpt lat="44.73261" lon="3.2255">
        <ele>1103.73</ele>
        <time>2016-02-21T13:56:40Z</time>
      </trkpt>
      <trkpt lat="44.7327" lon="3.22548">
        <ele>1104.69</ele>
        <time>2016-02-21T13:56:51Z</time>
      </trkpt>
      <trkpt lat="44.7327" lon="3.22548">
        <ele>1105.17</ele>
        <time>2016-02-21T13:57:06Z</time>
      </trkpt>
      <trkpt lat="44.7327" lon="3.22548">
        <ele>1104.69</ele>
        <time>2016-02-21T13:57:17Z</time>
      </trkpt>
      <trkpt lat="44.7327" lon="3.22548">
        <ele>1104.69</ele>
        <time>2016-02-21T13:57:28Z</time>
      </trkpt>
      <trkpt lat="44.73273" lon="3.22549">
        <ele>1105.17</ele>
        <time>2016-02-21T13:57:35Z</time>
      </trkpt>
      <trkpt lat="44.73286" lon="3.22546">
        <ele>1105.65</ele>
        <time>2016-02-21T13:57:50Z</time>
      </trkpt>
      <trkpt lat="44.73291" lon="3.22546">
        <ele>1105.17</ele>
        <time>2016-02-21T13:58:00Z</time>
      </trkpt>
      <trkpt lat="44.73296" lon="3.22546">
        <ele>1105.17</ele>
        <time>2016-02-21T13:58:02Z</time>
      </trkpt>
      <trkpt lat="44.73306" lon="3.22545">
        <ele>1105.17</ele>
        <time>2016-02-21T13:58:12Z</time>
      </trkpt>
      <trkpt lat="44.7331" lon="3.22545">
        <ele>1105.17</ele>
        <time>2016-02-21T13:58:14Z</time>
      </trkpt>
      <trkpt lat="44.73314" lon="3.22545">
        <ele>1104.69</ele>
        <time>2016-02-21T13:58:16Z</time>
      </trkpt>
      <trkpt lat="44.7332" lon="3.22544">
        <ele>1104.69</ele>
        <time>2016-02-21T13:58:27Z</time>
      </trkpt>
      <trkpt lat="44.7332" lon="3.22543">
        <ele>1097</ele>
        <time>2016-02-21T13:58:30Z</time>
      </trkpt>
      <trkpt lat="44.7332" lon="3.22543">
        <ele>1105.17</ele>
        <time>2016-02-21T13:58:31Z</time>
      </trkpt>
      <trkpt lat="44.73323" lon="3.22544">
        <ele>1105.17</ele>
        <time>2016-02-21T13:58:37Z</time>
      </trkpt>
      <trkpt lat="44.73337" lon="3.22543">
        <ele>1106.13</ele>
        <time>2016-02-21T13:58:50Z</time>
      </trkpt>
      <trkpt lat="44.73344" lon="3.22542">
        <ele>1105.65</ele>
        <time>2016-02-21T13:59:01Z</time>
      </trkpt>
      <trkpt lat="44.73346" lon="3.22542">
        <ele>1106.13</ele>
        <time>2016-02-21T13:59:14Z</time>
      </trkpt>
      <trkpt lat="44.73346" lon="3.22541">
        <ele>1106.13</ele>
        <time>2016-02-21T13:59:26Z</time>
      </trkpt>
      <trkpt lat="44.73349" lon="3.22539">
        <ele>1106.13</ele>
        <time>2016-02-21T13:59:44Z</time>
      </trkpt>
      <trkpt lat="44.73358" lon="3.22538">
        <ele>1106.61</ele>
        <time>2016-02-21T13:59:53Z</time>
      </trkpt>
      <trkpt lat="44.73381" lon="3.22528">
        <ele>1106.61</ele>
        <time>2016-02-21T14:00:02Z</time>
      </trkpt>
      <trkpt lat="44.73388" lon="3.2252">
        <ele>1107.1</ele>
        <time>2016-02-21T14:00:07Z</time>
      </trkpt>
      <trkpt lat="44.73401" lon="3.22508">
        <ele>1108.54</ele>
        <time>2016-02-21T14:00:14Z</time>
      </trkpt>
      <trkpt lat="44.73424" lon="3.22483">
        <ele>1108.54</ele>
        <time>2016-02-21T14:00:26Z</time>
      </trkpt>
      <trkpt lat="44.73429" lon="3.22475">
        <ele>1109.02</ele>
        <time>2016-02-21T14:00:38Z</time>
      </trkpt>
      <trkpt lat="44.7343" lon="3.22474">
        <ele>1109.02</ele>
        <time>2016-02-21T14:00:39Z</time>
      </trkpt>
      <trkpt lat="44.73437" lon="3.22473">
        <ele>1109.02</ele>
        <time>2016-02-21T14:00:50Z</time>
      </trkpt>
      <trkpt lat="44.73439" lon="3.22472">
        <ele>1108.54</ele>
        <time>2016-02-21T14:00:52Z</time>
      </trkpt>
      <trkpt lat="44.73443" lon="3.2247">
        <ele>1108.54</ele>
        <time>2016-02-21T14:01:01Z</time>
      </trkpt>
      <trkpt lat="44.73443" lon="3.2247">
        <ele>1108.54</ele>
        <time>2016-02-21T14:01:16Z</time>
      </trkpt>
      <trkpt lat="44.73443" lon="3.22469">
        <ele>1108.54</ele>
        <time>2016-02-21T14:01:45Z</time>
      </trkpt>
      <trkpt lat="44.73442" lon="3.2247">
        <ele>1108.54</ele>
        <time>2016-02-21T14:01:57Z</time>
      </trkpt>
      <trkpt lat="44.73443" lon="3.22469">
        <ele>1108.54</ele>
        <time>2016-02-21T14:02:15Z</time>
      </trkpt>
      <trkpt lat="44.73447" lon="3.22468">
        <ele>1108.54</ele>
        <time>2016-02-21T14:02:19Z</time>
      </trkpt>
      <trkpt lat="44.7349" lon="3.22456">
        <ele>1107.1</ele>
        <time>2016-02-21T14:02:33Z</time>
      </trkpt>
      <trkpt lat="44.73554" lon="3.22463">
        <ele>1106.13</ele>
        <time>2016-02-21T14:02:49Z</time>
      </trkpt>
      <trkpt lat="44.73601" lon="3.22491">
        <ele>1108.06</ele>
        <time>2016-02-21T14:03:03Z</time>
      </trkpt>
      <trkpt lat="44.73621" lon="3.22517">
        <ele>1106.13</ele>
        <time>2016-02-21T14:03:12Z</time>
      </trkpt>
      <trkpt lat="44.73628" lon="3.22532">
        <ele>1104.21</ele>
        <time>2016-02-21T14:03:15Z</time>
      </trkpt>
      <trkpt lat="44.7364" lon="3.22559">
        <ele>1101.33</ele>
        <time>2016-02-21T14:03:23Z</time>
      </trkpt>
      <trkpt lat="44.73649" lon="3.22586">
        <ele>1098.44</ele>
        <time>2016-02-21T14:03:31Z</time>
      </trkpt>
      <trkpt lat="44.73675" lon="3.22626">
        <ele>1096.04</ele>
        <time>2016-02-21T14:03:42Z</time>
      </trkpt>
      <trkpt lat="44.73682" lon="3.22631">
        <ele>1095.08</ele>
        <time>2016-02-21T14:03:44Z</time>
      </trkpt>
      <trkpt lat="44.73711" lon="3.22644">
        <ele>1092.2</ele>
        <time>2016-02-21T14:03:52Z</time>
      </trkpt>
      <trkpt lat="44.73715" lon="3.22648">
        <ele>1091.71</ele>
        <time>2016-02-21T14:03:53Z</time>
      </trkpt>
      <trkpt lat="44.73717" lon="3.22654">
        <ele>1091.71</ele>
        <time>2016-02-21T14:03:54Z</time>
      </trkpt>
      <trkpt lat="44.73719" lon="3.2266">
        <ele>1091.71</ele>
        <time>2016-02-21T14:04:01Z</time>
      </trkpt>
      <trkpt lat="44.73725" lon="3.22667">
        <ele>1091.23</ele>
        <time>2016-02-21T14:04:06Z</time>
      </trkpt>
      <trkpt lat="44.73727" lon="3.22669">
        <ele>1091.23</ele>
        <time>2016-02-21T14:04:07Z</time>
      </trkpt>
      <trkpt lat="44.7375" lon="3.22694">
        <ele>1089.31</ele>
        <time>2016-02-21T14:04:20Z</time>
      </trkpt>
      <trkpt lat="44.73776" lon="3.22729">
        <ele>1087.39</ele>
        <time>2016-02-21T14:04:31Z</time>
      </trkpt>
      <trkpt lat="44.73797" lon="3.22752">
        <ele>1087.87</ele>
        <time>2016-02-21T14:04:41Z</time>
      </trkpt>
      <trkpt lat="44.73826" lon="3.22769">
        <ele>1088.35</ele>
        <time>2016-02-21T14:04:52Z</time>
      </trkpt>
      <trkpt lat="44.73832" lon="3.22771">
        <ele>1087.87</ele>
        <time>2016-02-21T14:05:02Z</time>
      </trkpt>
      <trkpt lat="44.73833" lon="3.2277">
        <ele>1088.35</ele>
        <time>2016-02-21T14:05:14Z</time>
      </trkpt>
      <trkpt lat="44.73834" lon="3.2277">
        <ele>1087.87</ele>
        <time>2016-02-21T14:05:26Z</time>
      </trkpt>
      <trkpt lat="44.73834" lon="3.2277">
        <ele>1087.87</ele>
        <time>2016-02-21T14:05:48Z</time>
      </trkpt>
      <trkpt lat="44.73836" lon="3.22771">
        <ele>1086.91</ele>
        <time>2016-02-21T14:05:57Z</time>
      </trkpt>
      <trkpt lat="44.73837" lon="3.22769">
        <ele>1086.91</ele>
        <time>2016-02-21T14:05:58Z</time>
      </trkpt>
      <trkpt lat="44.73839" lon="3.22768">
        <ele>1086.43</ele>
        <time>2016-02-21T14:05:59Z</time>
      </trkpt>
      <trkpt lat="44.7384" lon="3.22766">
        <ele>1086.43</ele>
        <time>2016-02-21T14:06:00Z</time>
      </trkpt>
      <trkpt lat="44.73841" lon="3.22765">
        <ele>1085.95</ele>
        <time>2016-02-21T14:06:01Z</time>
      </trkpt>
      <trkpt lat="44.73842" lon="3.22764">
        <ele>1085.47</ele>
        <time>2016-02-21T14:06:02Z</time>
      </trkpt>
      <trkpt lat="44.73843" lon="3.22763">
        <ele>1085.47</ele>
        <time>2016-02-21T14:06:03Z</time>
      </trkpt>
      <trkpt lat="44.73844" lon="3.22761">
        <ele>1084.99</ele>
        <time>2016-02-21T14:06:04Z</time>
      </trkpt>
      <trkpt lat="44.73845" lon="3.2276">
        <ele>1084.99</ele>
        <time>2016-02-21T14:06:05Z</time>
      </trkpt>
      <trkpt lat="44.73847" lon="3.22759">
        <ele>1084.5</ele>
        <time>2016-02-21T14:06:06Z</time>
      </trkpt>
      <trkpt lat="44.73849" lon="3.22758">
        <ele>1084.5</ele>
        <time>2016-02-21T14:06:07Z</time>
      </trkpt>
      <trkpt lat="44.7385" lon="3.22757">
        <ele>1084.02</ele>
        <time>2016-02-21T14:06:08Z</time>
      </trkpt>
      <trkpt lat="44.73853" lon="3.22756">
        <ele>1083.06</ele>
        <time>2016-02-21T14:06:21Z</time>
      </trkpt>
      <trkpt lat="44.73853" lon="3.2275">
        <ele>1082.58</ele>
        <time>2016-02-21T14:06:28Z</time>
      </trkpt>
      <trkpt lat="44.73853" lon="3.22748">
        <ele>1082.58</ele>
        <time>2016-02-21T14:06:29Z</time>
      </trkpt>
      <trkpt lat="44.73855" lon="3.22742">
        <ele>1081.14</ele>
        <time>2016-02-21T14:06:33Z</time>
      </trkpt>
      <trkpt lat="44.73857" lon="3.22732">
        <ele>1079.22</ele>
        <time>2016-02-21T14:06:37Z</time>
      </trkpt>
      <trkpt lat="44.73863" lon="3.22719">
        <ele>1076.33</ele>
        <time>2016-02-21T14:06:42Z</time>
      </trkpt>
      <trkpt lat="44.73867" lon="3.22718">
        <ele>1074.89</ele>
        <time>2016-02-21T14:06:45Z</time>
      </trkpt>
      <trkpt lat="44.73871" lon="3.2272">
        <ele>1074.41</ele>
        <time>2016-02-21T14:06:49Z</time>
      </trkpt>
      <trkpt lat="44.73876" lon="3.22722">
        <ele>1073.45</ele>
        <time>2016-02-21T14:07:02Z</time>
      </trkpt>
      <trkpt lat="44.7388" lon="3.22727">
        <ele>1073.45</ele>
        <time>2016-02-21T14:07:12Z</time>
      </trkpt>
      <trkpt lat="44.73884" lon="3.22728">
        <ele>1073.45</ele>
        <time>2016-02-21T14:07:15Z</time>
      </trkpt>
      <trkpt lat="44.73895" lon="3.22729">
        <ele>1071.05</ele>
        <time>2016-02-21T14:07:23Z</time>
      </trkpt>
      <trkpt lat="44.73901" lon="3.22726">
        <ele>1068.64</ele>
        <time>2016-02-21T14:07:28Z</time>
      </trkpt>
      <trkpt lat="44.73904" lon="3.22721">
        <ele>1066.72</ele>
        <time>2016-02-21T14:07:41Z</time>
      </trkpt>
      <trkpt lat="44.73906" lon="3.22712">
        <ele>1064.32</ele>
        <time>2016-02-21T14:07:52Z</time>
      </trkpt>
      <trkpt lat="44.73904" lon="3.22704">
        <ele>1062.87</ele>
        <time>2016-02-21T14:08:02Z</time>
      </trkpt>
      <trkpt lat="44.73905" lon="3.22691">
        <ele>1059.99</ele>
        <time>2016-02-21T14:08:08Z</time>
      </trkpt>
      <trkpt lat="44.73914" lon="3.22698">
        <ele>1059.03</ele>
        <time>2016-02-21T14:08:16Z</time>
      </trkpt>
      <trkpt lat="44.73932" lon="3.22718">
        <ele>1058.55</ele>
        <time>2016-02-21T14:08:27Z</time>
      </trkpt>
      <trkpt lat="44.73949" lon="3.22742">
        <ele>1059.03</ele>
        <time>2016-02-21T14:08:36Z</time>
      </trkpt>
      <trkpt lat="44.73969" lon="3.22776">
        <ele>1059.03</ele>
        <time>2016-02-21T14:08:48Z</time>
      </trkpt>
      <trkpt lat="44.7397" lon="3.22781">
        <ele>1059.03</ele>
        <time>2016-02-21T14:08:58Z</time>
      </trkpt>
      <trkpt lat="44.73972" lon="3.22784">
        <ele>1058.55</ele>
        <time>2016-02-21T14:09:04Z</time>
      </trkpt>
      <trkpt lat="44.73981" lon="3.22797">
        <ele>1058.07</ele>
        <time>2016-02-21T14:09:10Z</time>
      </trkpt>
      <trkpt lat="44.7399" lon="3.22808">
        <ele>1056.63</ele>
        <time>2016-02-21T14:09:14Z</time>
      </trkpt>
      <trkpt lat="44.74005" lon="3.2281">
        <ele>1053.26</ele>
        <time>2016-02-21T14:09:18Z</time>
      </trkpt>
      <trkpt lat="44.74008" lon="3.2281">
        <ele>1052.78</ele>
        <time>2016-02-21T14:09:19Z</time>
      </trkpt>
      <trkpt lat="44.74015" lon="3.22812">
        <ele>1051.34</ele>
        <time>2016-02-21T14:09:21Z</time>
      </trkpt>
      <trkpt lat="44.7402" lon="3.22814">
        <ele>1050.38</ele>
        <time>2016-02-21T14:09:22Z</time>
      </trkpt>
      <trkpt lat="44.7405" lon="3.22819">
        <ele>1047.01</ele>
        <time>2016-02-21T14:09:27Z</time>
      </trkpt>
      <trkpt lat="44.74056" lon="3.2282">
        <ele>1047.01</ele>
        <time>2016-02-21T14:09:28Z</time>
      </trkpt>
      <trkpt lat="44.74061" lon="3.22821">
        <ele>1047.01</ele>
        <time>2016-02-21T14:09:29Z</time>
      </trkpt>
      <trkpt lat="44.74067" lon="3.22824">
        <ele>1047.01</ele>
        <time>2016-02-21T14:09:30Z</time>
      </trkpt>
      <trkpt lat="44.74071" lon="3.22827">
        <ele>1047.01</ele>
        <time>2016-02-21T14:09:31Z</time>
      </trkpt>
      <trkpt lat="44.74076" lon="3.22829">
        <ele>1047.01</ele>
        <time>2016-02-21T14:09:32Z</time>
      </trkpt>
      <trkpt lat="44.74081" lon="3.2283">
        <ele>1047.01</ele>
        <time>2016-02-21T14:09:33Z</time>
      </trkpt>
      <trkpt lat="44.74086" lon="3.22832">
        <ele>1046.05</ele>
        <time>2016-02-21T14:09:34Z</time>
      </trkpt>
      <trkpt lat="44.74102" lon="3.22837">
        <ele>1046.05</ele>
        <time>2016-02-21T14:09:42Z</time>
      </trkpt>
      <trkpt lat="44.74102" lon="3.22836">
        <ele>1046.05</ele>
        <time>2016-02-21T14:09:57Z</time>
      </trkpt>
      <trkpt lat="44.74102" lon="3.22838">
        <ele>1046.05</ele>
        <time>2016-02-21T14:10:08Z</time>
      </trkpt>
      <trkpt lat="44.74102" lon="3.22837">
        <ele>1046.05</ele>
        <time>2016-02-21T14:10:20Z</time>
      </trkpt>
      <trkpt lat="44.74105" lon="3.22838">
        <ele>1046.05</ele>
        <time>2016-02-21T14:10:42Z</time>
      </trkpt>
      <trkpt lat="44.74106" lon="3.22838">
        <ele>1046.05</ele>
        <time>2016-02-21T14:10:43Z</time>
      </trkpt>
      <trkpt lat="44.74106" lon="3.22839">
        <ele>1046.05</ele>
        <time>2016-02-21T14:10:44Z</time>
      </trkpt>
      <trkpt lat="44.74107" lon="3.22841">
        <ele>1046.05</ele>
        <time>2016-02-21T14:10:45Z</time>
      </trkpt>
      <trkpt lat="44.74108" lon="3.22843">
        <ele>1046.05</ele>
        <time>2016-02-21T14:10:46Z</time>
      </trkpt>
      <trkpt lat="44.7411" lon="3.22846">
        <ele>1045.57</ele>
        <time>2016-02-21T14:10:47Z</time>
      </trkpt>
      <trkpt lat="44.74111" lon="3.22848">
        <ele>1046.05</ele>
        <time>2016-02-21T14:10:48Z</time>
      </trkpt>
      <trkpt lat="44.74112" lon="3.22851">
        <ele>1046.05</ele>
        <time>2016-02-21T14:10:49Z</time>
      </trkpt>
      <trkpt lat="44.74113" lon="3.22854">
        <ele>1045.57</ele>
        <time>2016-02-21T14:10:50Z</time>
      </trkpt>
      <trkpt lat="44.74114" lon="3.22857">
        <ele>1045.57</ele>
        <time>2016-02-21T14:10:51Z</time>
      </trkpt>
      <trkpt lat="44.74115" lon="3.22859">
        <ele>1045.57</ele>
        <time>2016-02-21T14:10:52Z</time>
      </trkpt>
      <trkpt lat="44.74117" lon="3.22861">
        <ele>1046.05</ele>
        <time>2016-02-21T14:10:53Z</time>
      </trkpt>
      <trkpt lat="44.74119" lon="3.22863">
        <ele>1046.05</ele>
        <time>2016-02-21T14:10:54Z</time>
      </trkpt>
      <trkpt lat="44.74122" lon="3.22864">
        <ele>1046.05</ele>
        <time>2016-02-21T14:10:55Z</time>
      </trkpt>
      <trkpt lat="44.74127" lon="3.22866">
        <ele>1046.53</ele>
        <time>2016-02-21T14:10:58Z</time>
      </trkpt>
      <trkpt lat="44.74129" lon="3.22865">
        <ele>1046.53</ele>
        <time>2016-02-21T14:10:59Z</time>
      </trkpt>
      <trkpt lat="44.74137" lon="3.22862">
        <ele>1047.49</ele>
        <time>2016-02-21T14:11:03Z</time>
      </trkpt>
      <trkpt lat="44.74139" lon="3.2286">
        <ele>1047.49</ele>
        <time>2016-02-21T14:11:04Z</time>
      </trkpt>
      <trkpt lat="44.7414" lon="3.22857">
        <ele>1047.49</ele>
        <time>2016-02-21T14:11:05Z</time>
      </trkpt>
      <trkpt lat="44.74142" lon="3.22855">
        <ele>1047.49</ele>
        <time>2016-02-21T14:11:06Z</time>
      </trkpt>
      <trkpt lat="44.74144" lon="3.22852">
        <ele>1047.97</ele>
        <time>2016-02-21T14:11:07Z</time>
      </trkpt>
      <trkpt lat="44.74146" lon="3.2285">
        <ele>1048.45</ele>
        <time>2016-02-21T14:11:08Z</time>
      </trkpt>
      <trkpt lat="44.74147" lon="3.22849">
        <ele>1048.94</ele>
        <time>2016-02-21T14:11:09Z</time>
      </trkpt>
      <trkpt lat="44.74149" lon="3.22847">
        <ele>1048.94</ele>
        <time>2016-02-21T14:11:10Z</time>
      </trkpt>
      <trkpt lat="44.74149" lon="3.22845">
        <ele>1049.42</ele>
        <time>2016-02-21T14:11:11Z</time>
      </trkpt>
      <trkpt lat="44.7415" lon="3.22843">
        <ele>1049.9</ele>
        <time>2016-02-21T14:11:12Z</time>
      </trkpt>
      <trkpt lat="44.74152" lon="3.22841">
        <ele>1050.38</ele>
        <time>2016-02-21T14:11:13Z</time>
      </trkpt>
      <trkpt lat="44.74153" lon="3.22839">
        <ele>1050.38</ele>
        <time>2016-02-21T14:11:14Z</time>
      </trkpt>
      <trkpt lat="44.74153" lon="3.22838">
        <ele>1050.38</ele>
        <time>2016-02-21T14:11:15Z</time>
      </trkpt>
      <trkpt lat="44.74153" lon="3.22836">
        <ele>1050.38</ele>
        <time>2016-02-21T14:11:16Z</time>
      </trkpt>
      <trkpt lat="44.74152" lon="3.22834">
        <ele>1050.86</ele>
        <time>2016-02-21T14:11:18Z</time>
      </trkpt>
      <trkpt lat="44.74152" lon="3.22832">
        <ele>1050.86</ele>
        <time>2016-02-21T14:11:19Z</time>
      </trkpt>
      <trkpt lat="44.74151" lon="3.2283">
        <ele>1050.86</ele>
        <time>2016-02-21T14:11:20Z</time>
      </trkpt>
      <trkpt lat="44.74152" lon="3.22828">
        <ele>1050.86</ele>
        <time>2016-02-21T14:11:21Z</time>
      </trkpt>
      <trkpt lat="44.74153" lon="3.22825">
        <ele>1051.34</ele>
        <time>2016-02-21T14:11:22Z</time>
      </trkpt>
      <trkpt lat="44.74153" lon="3.22819">
        <ele>1051.34</ele>
        <time>2016-02-21T14:11:25Z</time>
      </trkpt>
      <trkpt lat="44.74152" lon="3.22817">
        <ele>1051.82</ele>
        <time>2016-02-21T14:11:26Z</time>
      </trkpt>
      <trkpt lat="44.74152" lon="3.22815">
        <ele>1051.82</ele>
        <time>2016-02-21T14:11:27Z</time>
      </trkpt>
      <trkpt lat="44.74151" lon="3.22813">
        <ele>1052.3</ele>
        <time>2016-02-21T14:11:28Z</time>
      </trkpt>
      <trkpt lat="44.74151" lon="3.22812">
        <ele>1052.3</ele>
        <time>2016-02-21T14:11:29Z</time>
      </trkpt>
      <trkpt lat="44.7415" lon="3.22811">
        <ele>1052.78</ele>
        <time>2016-02-21T14:11:41Z</time>
      </trkpt>
      <trkpt lat="44.7415" lon="3.22811">
        <ele>1052.3</ele>
        <time>2016-02-21T14:12:10Z</time>
      </trkpt>
      <trkpt lat="44.7415" lon="3.22811">
        <ele>1052.78</ele>
        <time>2016-02-21T14:12:39Z</time>
      </trkpt>
      <trkpt lat="44.7415" lon="3.22811">
        <ele>1052.3</ele>
        <time>2016-02-21T14:12:40Z</time>
      </trkpt>
      <trkpt lat="44.7415" lon="3.22814">
        <ele>1052.3</ele>
        <time>2016-02-21T14:12:41Z</time>
      </trkpt>
      <trkpt lat="44.74157" lon="3.22863">
        <ele>1048.94</ele>
        <time>2016-02-21T14:12:49Z</time>
      </trkpt>
      <trkpt lat="44.74163" lon="3.22912">
        <ele>1048.94</ele>
        <time>2016-02-21T14:12:56Z</time>
      </trkpt>
      <trkpt lat="44.74181" lon="3.22954">
        <ele>1050.86</ele>
        <time>2016-02-21T14:13:07Z</time>
      </trkpt>
      <trkpt lat="44.74219" lon="3.2299">
        <ele>1053.26</ele>
        <time>2016-02-21T14:13:24Z</time>
      </trkpt>
      <trkpt lat="44.74233" lon="3.2303">
        <ele>1055.18</ele>
        <time>2016-02-21T14:13:36Z</time>
      </trkpt>
      <trkpt lat="44.74246" lon="3.23066">
        <ele>1056.63</ele>
        <time>2016-02-21T14:13:48Z</time>
      </trkpt>
      <trkpt lat="44.74251" lon="3.23083">
        <ele>1057.59</ele>
        <time>2016-02-21T14:13:54Z</time>
      </trkpt>
      <trkpt lat="44.74251" lon="3.23085">
        <ele>1057.59</ele>
        <time>2016-02-21T14:13:55Z</time>
      </trkpt>
      <trkpt lat="44.74251" lon="3.23088">
        <ele>1057.59</ele>
        <time>2016-02-21T14:13:56Z</time>
      </trkpt>
      <trkpt lat="44.74251" lon="3.2309">
        <ele>1058.07</ele>
        <time>2016-02-21T14:13:57Z</time>
      </trkpt>
      <trkpt lat="44.74251" lon="3.23092">
        <ele>1058.55</ele>
        <time>2016-02-21T14:13:58Z</time>
      </trkpt>
      <trkpt lat="44.74251" lon="3.23094">
        <ele>1059.03</ele>
        <time>2016-02-21T14:13:59Z</time>
      </trkpt>
      <trkpt lat="44.7425" lon="3.23097">
        <ele>1059.03</ele>
        <time>2016-02-21T14:14:00Z</time>
      </trkpt>
      <trkpt lat="44.74249" lon="3.23105">
        <ele>1059.99</ele>
        <time>2016-02-21T14:14:04Z</time>
      </trkpt>
      <trkpt lat="44.7425" lon="3.23107">
        <ele>1060.47</ele>
        <time>2016-02-21T14:14:05Z</time>
      </trkpt>
      <trkpt lat="44.7425" lon="3.23109">
        <ele>1060.47</ele>
        <time>2016-02-21T14:14:06Z</time>
      </trkpt>
      <trkpt lat="44.74254" lon="3.23127">
        <ele>1062.87</ele>
        <time>2016-02-21T14:14:15Z</time>
      </trkpt>
      <trkpt lat="44.74254" lon="3.2313">
        <ele>1063.36</ele>
        <time>2016-02-21T14:14:16Z</time>
      </trkpt>
      <trkpt lat="44.74255" lon="3.23132">
        <ele>1063.84</ele>
        <time>2016-02-21T14:14:17Z</time>
      </trkpt>
      <trkpt lat="44.74256" lon="3.23134">
        <ele>1063.84</ele>
        <time>2016-02-21T14:14:18Z</time>
      </trkpt>
      <trkpt lat="44.74256" lon="3.23136">
        <ele>1064.32</ele>
        <time>2016-02-21T14:14:19Z</time>
      </trkpt>
      <trkpt lat="44.74257" lon="3.23138">
        <ele>1064.8</ele>
        <time>2016-02-21T14:14:20Z</time>
      </trkpt>
      <trkpt lat="44.74257" lon="3.2314">
        <ele>1064.8</ele>
        <time>2016-02-21T14:14:21Z</time>
      </trkpt>
      <trkpt lat="44.74258" lon="3.23142">
        <ele>1065.28</ele>
        <time>2016-02-21T14:14:22Z</time>
      </trkpt>
      <trkpt lat="44.74259" lon="3.23145">
        <ele>1065.76</ele>
        <time>2016-02-21T14:14:23Z</time>
      </trkpt>
      <trkpt lat="44.74259" lon="3.23147">
        <ele>1065.76</ele>
        <time>2016-02-21T14:14:24Z</time>
      </trkpt>
      <trkpt lat="44.74261" lon="3.23156">
        <ele>1066.72</ele>
        <time>2016-02-21T14:14:29Z</time>
      </trkpt>
      <trkpt lat="44.74261" lon="3.23158">
        <ele>1067.2</ele>
        <time>2016-02-21T14:14:30Z</time>
      </trkpt>
      <trkpt lat="44.74262" lon="3.2316">
        <ele>1067.2</ele>
        <time>2016-02-21T14:14:31Z</time>
      </trkpt>
      <trkpt lat="44.74262" lon="3.23162">
        <ele>1067.68</ele>
        <time>2016-02-21T14:14:32Z</time>
      </trkpt>
      <trkpt lat="44.74263" lon="3.23164">
        <ele>1067.68</ele>
        <time>2016-02-21T14:14:33Z</time>
      </trkpt>
      <trkpt lat="44.74265" lon="3.2317">
        <ele>1068.16</ele>
        <time>2016-02-21T14:14:36Z</time>
      </trkpt>
      <trkpt lat="44.74265" lon="3.23173">
        <ele>1068.64</ele>
        <time>2016-02-21T14:14:37Z</time>
      </trkpt>
      <trkpt lat="44.74267" lon="3.23186">
        <ele>1070.08</ele>
        <time>2016-02-21T14:14:43Z</time>
      </trkpt>
      <trkpt lat="44.74268" lon="3.23192">
        <ele>1070.57</ele>
        <time>2016-02-21T14:14:46Z</time>
      </trkpt>
      <trkpt lat="44.74268" lon="3.23194">
        <ele>1071.05</ele>
        <time>2016-02-21T14:14:47Z</time>
      </trkpt>
      <trkpt lat="44.74266" lon="3.23196">
        <ele>1071.05</ele>
        <time>2016-02-21T14:14:48Z</time>
      </trkpt>
      <trkpt lat="44.74265" lon="3.23198">
        <ele>1071.53</ele>
        <time>2016-02-21T14:14:49Z</time>
      </trkpt>
      <trkpt lat="44.74265" lon="3.23201">
        <ele>1071.53</ele>
        <time>2016-02-21T14:14:50Z</time>
      </trkpt>
      <trkpt lat="44.74264" lon="3.23203">
        <ele>1072.01</ele>
        <time>2016-02-21T14:14:51Z</time>
      </trkpt>
      <trkpt lat="44.74264" lon="3.23205">
        <ele>1072.01</ele>
        <time>2016-02-21T14:14:52Z</time>
      </trkpt>
      <trkpt lat="44.74263" lon="3.23207">
        <ele>1072.01</ele>
        <time>2016-02-21T14:14:53Z</time>
      </trkpt>
      <trkpt lat="44.74264" lon="3.23209">
        <ele>1072.49</ele>
        <time>2016-02-21T14:14:54Z</time>
      </trkpt>
      <trkpt lat="44.74264" lon="3.23212">
        <ele>1072.49</ele>
        <time>2016-02-21T14:14:55Z</time>
      </trkpt>
      <trkpt lat="44.74264" lon="3.23214">
        <ele>1072.97</ele>
        <time>2016-02-21T14:14:56Z</time>
      </trkpt>
      <trkpt lat="44.74265" lon="3.23217">
        <ele>1072.97</ele>
        <time>2016-02-21T14:14:57Z</time>
      </trkpt>
      <trkpt lat="44.74265" lon="3.23219">
        <ele>1072.97</ele>
        <time>2016-02-21T14:14:58Z</time>
      </trkpt>
      <trkpt lat="44.74265" lon="3.23221">
        <ele>1073.45</ele>
        <time>2016-02-21T14:14:59Z</time>
      </trkpt>
      <trkpt lat="44.74265" lon="3.23223">
        <ele>1073.45</ele>
        <time>2016-02-21T14:15:00Z</time>
      </trkpt>
      <trkpt lat="44.74265" lon="3.23226">
        <ele>1073.93</ele>
        <time>2016-02-21T14:15:01Z</time>
      </trkpt>
      <trkpt lat="44.74265" lon="3.23228">
        <ele>1073.93</ele>
        <time>2016-02-21T14:15:02Z</time>
      </trkpt>
      <trkpt lat="44.74265" lon="3.2323">
        <ele>1073.93</ele>
        <time>2016-02-21T14:15:03Z</time>
      </trkpt>
      <trkpt lat="44.74265" lon="3.23232">
        <ele>1074.41</ele>
        <time>2016-02-21T14:15:04Z</time>
      </trkpt>
      <trkpt lat="44.74265" lon="3.23234">
        <ele>1074.41</ele>
        <time>2016-02-21T14:15:05Z</time>
      </trkpt>
      <trkpt lat="44.74265" lon="3.23236">
        <ele>1074.89</ele>
        <time>2016-02-21T14:15:06Z</time>
      </trkpt>
      <trkpt lat="44.74266" lon="3.2325">
        <ele>1076.81</ele>
        <time>2016-02-21T14:15:13Z</time>
      </trkpt>
      <trkpt lat="44.74268" lon="3.23252">
        <ele>1077.29</ele>
        <time>2016-02-21T14:15:14Z</time>
      </trkpt>
      <trkpt lat="44.74269" lon="3.23254">
        <ele>1077.29</ele>
        <time>2016-02-21T14:15:15Z</time>
      </trkpt>
      <trkpt lat="44.7427" lon="3.23256">
        <ele>1077.78</ele>
        <time>2016-02-21T14:15:16Z</time>
      </trkpt>
      <trkpt lat="44.74271" lon="3.23258">
        <ele>1077.78</ele>
        <time>2016-02-21T14:15:17Z</time>
      </trkpt>
      <trkpt lat="44.74275" lon="3.23266">
        <ele>1079.22</ele>
        <time>2016-02-21T14:15:22Z</time>
      </trkpt>
      <trkpt lat="44.74285" lon="3.23281">
        <ele>1080.66</ele>
        <time>2016-02-21T14:15:30Z</time>
      </trkpt>
      <trkpt lat="44.74286" lon="3.23283">
        <ele>1080.66</ele>
        <time>2016-02-21T14:15:31Z</time>
      </trkpt>
      <trkpt lat="44.74287" lon="3.23284">
        <ele>1080.66</ele>
        <time>2016-02-21T14:15:32Z</time>
      </trkpt>
      <trkpt lat="44.74288" lon="3.23286">
        <ele>1081.62</ele>
        <time>2016-02-21T14:15:33Z</time>
      </trkpt>
      <trkpt lat="44.7429" lon="3.23288">
        <ele>1081.14</ele>
        <time>2016-02-21T14:15:34Z</time>
      </trkpt>
      <trkpt lat="44.7429" lon="3.2329">
        <ele>1081.62</ele>
        <time>2016-02-21T14:15:35Z</time>
      </trkpt>
      <trkpt lat="44.74291" lon="3.23292">
        <ele>1081.62</ele>
        <time>2016-02-21T14:15:36Z</time>
      </trkpt>
      <trkpt lat="44.74294" lon="3.23296">
        <ele>1082.1</ele>
        <time>2016-02-21T14:15:38Z</time>
      </trkpt>
      <trkpt lat="44.74295" lon="3.23298">
        <ele>1082.1</ele>
        <time>2016-02-21T14:15:39Z</time>
      </trkpt>
      <trkpt lat="44.74296" lon="3.233">
        <ele>1082.1</ele>
        <time>2016-02-21T14:15:40Z</time>
      </trkpt>
      <trkpt lat="44.74297" lon="3.23302">
        <ele>1082.58</ele>
        <time>2016-02-21T14:15:41Z</time>
      </trkpt>
      <trkpt lat="44.74298" lon="3.23304">
        <ele>1082.58</ele>
        <time>2016-02-21T14:15:42Z</time>
      </trkpt>
      <trkpt lat="44.74299" lon="3.23307">
        <ele>1082.58</ele>
        <time>2016-02-21T14:15:43Z</time>
      </trkpt>
      <trkpt lat="44.743" lon="3.23309">
        <ele>1082.58</ele>
        <time>2016-02-21T14:15:44Z</time>
      </trkpt>
      <trkpt lat="44.74302" lon="3.23311">
        <ele>1082.58</ele>
        <time>2016-02-21T14:15:45Z</time>
      </trkpt>
      <trkpt lat="44.74303" lon="3.23312">
        <ele>1083.06</ele>
        <time>2016-02-21T14:15:46Z</time>
      </trkpt>
      <trkpt lat="44.74304" lon="3.23315">
        <ele>1083.06</ele>
        <time>2016-02-21T14:15:47Z</time>
      </trkpt>
      <trkpt lat="44.74306" lon="3.23317">
        <ele>1083.06</ele>
        <time>2016-02-21T14:15:48Z</time>
      </trkpt>
      <trkpt lat="44.74307" lon="3.23319">
        <ele>1083.06</ele>
        <time>2016-02-21T14:15:49Z</time>
      </trkpt>
      <trkpt lat="44.74308" lon="3.23321">
        <ele>1083.06</ele>
        <time>2016-02-21T14:15:50Z</time>
      </trkpt>
      <trkpt lat="44.7431" lon="3.23325">
        <ele>1083.54</ele>
        <time>2016-02-21T14:15:52Z</time>
      </trkpt>
      <trkpt lat="44.74311" lon="3.23328">
        <ele>1083.54</ele>
        <time>2016-02-21T14:15:54Z</time>
      </trkpt>
      <trkpt lat="44.74312" lon="3.2333">
        <ele>1084.02</ele>
        <time>2016-02-21T14:15:55Z</time>
      </trkpt>
      <trkpt lat="44.74313" lon="3.23333">
        <ele>1084.02</ele>
        <time>2016-02-21T14:15:57Z</time>
      </trkpt>
      <trkpt lat="44.74314" lon="3.23335">
        <ele>1084.5</ele>
        <time>2016-02-21T14:15:58Z</time>
      </trkpt>
      <trkpt lat="44.74317" lon="3.23338">
        <ele>1084.99</ele>
        <time>2016-02-21T14:16:00Z</time>
      </trkpt>
      <trkpt lat="44.74318" lon="3.23341">
        <ele>1084.99</ele>
        <time>2016-02-21T14:16:01Z</time>
      </trkpt>
      <trkpt lat="44.74319" lon="3.23343">
        <ele>1084.99</ele>
        <time>2016-02-21T14:16:02Z</time>
      </trkpt>
      <trkpt lat="44.74321" lon="3.23345">
        <ele>1084.99</ele>
        <time>2016-02-21T14:16:03Z</time>
      </trkpt>
      <trkpt lat="44.74323" lon="3.23347">
        <ele>1084.99</ele>
        <time>2016-02-21T14:16:04Z</time>
      </trkpt>
      <trkpt lat="44.74335" lon="3.23362">
        <ele>1086.91</ele>
        <time>2016-02-21T14:16:13Z</time>
      </trkpt>
      <trkpt lat="44.7434" lon="3.23368">
        <ele>1087.87</ele>
        <time>2016-02-21T14:16:17Z</time>
      </trkpt>
      <trkpt lat="44.74341" lon="3.23369">
        <ele>1087.87</ele>
        <time>2016-02-21T14:16:18Z</time>
      </trkpt>
      <trkpt lat="44.74345" lon="3.23376">
        <ele>1089.31</ele>
        <time>2016-02-21T14:16:22Z</time>
      </trkpt>
      <trkpt lat="44.74345" lon="3.23378">
        <ele>1089.79</ele>
        <time>2016-02-21T14:16:23Z</time>
      </trkpt>
      <trkpt lat="44.74348" lon="3.23393">
        <ele>1091.23</ele>
        <time>2016-02-21T14:16:31Z</time>
      </trkpt>
      <trkpt lat="44.74348" lon="3.23395">
        <ele>1091.71</ele>
        <time>2016-02-21T14:16:32Z</time>
      </trkpt>
      <trkpt lat="44.74343" lon="3.23401">
        <ele>1093.16</ele>
        <time>2016-02-21T14:16:39Z</time>
      </trkpt>
      <trkpt lat="44.74326" lon="3.23401">
        <ele>1095.56</ele>
        <time>2016-02-21T14:16:52Z</time>
      </trkpt>
      <trkpt lat="44.7432" lon="3.23396">
        <ele>1096.04</ele>
        <time>2016-02-21T14:17:03Z</time>
      </trkpt>
      <trkpt lat="44.7432" lon="3.23396">
        <ele>1096.04</ele>
        <time>2016-02-21T14:17:18Z</time>
      </trkpt>
      <trkpt lat="44.74307" lon="3.23393">
        <ele>1097</ele>
        <time>2016-02-21T14:17:33Z</time>
      </trkpt>
      <trkpt lat="44.74291" lon="3.23386">
        <ele>1100.37</ele>
        <time>2016-02-21T14:17:46Z</time>
      </trkpt>
      <trkpt lat="44.74289" lon="3.23385">
        <ele>1100.37</ele>
        <time>2016-02-21T14:17:47Z</time>
      </trkpt>
      <trkpt lat="44.74275" lon="3.23373">
        <ele>1103.73</ele>
        <time>2016-02-21T14:17:59Z</time>
      </trkpt>
      <trkpt lat="44.74257" lon="3.23352">
        <ele>1105.17</ele>
        <time>2016-02-21T14:18:11Z</time>
      </trkpt>
      <trkpt lat="44.74242" lon="3.23342">
        <ele>1105.65</ele>
        <time>2016-02-21T14:18:23Z</time>
      </trkpt>
      <trkpt lat="44.74237" lon="3.23342">
        <ele>1106.61</ele>
        <time>2016-02-21T14:18:34Z</time>
      </trkpt>
      <trkpt lat="44.74228" lon="3.23343">
        <ele>1109.02</ele>
        <time>2016-02-21T14:18:46Z</time>
      </trkpt>
      <trkpt lat="44.7422" lon="3.23344">
        <ele>1111.42</ele>
        <time>2016-02-21T14:18:59Z</time>
      </trkpt>
      <trkpt lat="44.7421" lon="3.23347">
        <ele>1112.38</ele>
        <time>2016-02-21T14:19:12Z</time>
      </trkpt>
      <trkpt lat="44.74195" lon="3.2335">
        <ele>1113.34</ele>
        <time>2016-02-21T14:19:21Z</time>
      </trkpt>
      <trkpt lat="44.74188" lon="3.23353">
        <ele>1113.82</ele>
        <time>2016-02-21T14:19:24Z</time>
      </trkpt>
      <trkpt lat="44.74177" lon="3.23356">
        <ele>1115.27</ele>
        <time>2016-02-21T14:19:34Z</time>
      </trkpt>
      <trkpt lat="44.74163" lon="3.23355">
        <ele>1115.27</ele>
        <time>2016-02-21T14:19:48Z</time>
      </trkpt>
      <trkpt lat="44.74147" lon="3.23356">
        <ele>1115.75</ele>
        <time>2016-02-21T14:20:02Z</time>
      </trkpt>
      <trkpt lat="44.74133" lon="3.2336">
        <ele>1117.19</ele>
        <time>2016-02-21T14:20:17Z</time>
      </trkpt>
      <trkpt lat="44.74134" lon="3.23362">
        <ele>1118.63</ele>
        <time>2016-02-21T14:20:32Z</time>
      </trkpt>
      <trkpt lat="44.74133" lon="3.23364">
        <ele>1118.63</ele>
        <time>2016-02-21T14:20:44Z</time>
      </trkpt>
      <trkpt lat="44.74133" lon="3.23364">
        <ele>1118.15</ele>
        <time>2016-02-21T14:21:09Z</time>
      </trkpt>
      <trkpt lat="44.74133" lon="3.23364">
        <ele>1119.11</ele>
        <time>2016-02-21T14:21:25Z</time>
      </trkpt>
      <trkpt lat="44.74132" lon="3.23367">
        <ele>1119.11</ele>
        <time>2016-02-21T14:21:30Z</time>
      </trkpt>
      <trkpt lat="44.74134" lon="3.23371">
        <ele>1119.11</ele>
        <time>2016-02-21T14:21:41Z</time>
      </trkpt>
      <trkpt lat="44.7414" lon="3.23382">
        <ele>1119.11</ele>
        <time>2016-02-21T14:21:47Z</time>
      </trkpt>
      <trkpt lat="44.74144" lon="3.23387">
        <ele>1119.59</ele>
        <time>2016-02-21T14:21:50Z</time>
      </trkpt>
      <trkpt lat="44.74151" lon="3.234">
        <ele>1120.55</ele>
        <time>2016-02-21T14:21:57Z</time>
      </trkpt>
      <trkpt lat="44.74163" lon="3.23422">
        <ele>1122</ele>
        <time>2016-02-21T14:22:10Z</time>
      </trkpt>
      <trkpt lat="44.74177" lon="3.23445">
        <ele>1122.96</ele>
        <time>2016-02-21T14:22:23Z</time>
      </trkpt>
      <trkpt lat="44.74198" lon="3.23468">
        <ele>1123.92</ele>
        <time>2016-02-21T14:22:38Z</time>
      </trkpt>
      <trkpt lat="44.74214" lon="3.23492">
        <ele>1124.88</ele>
        <time>2016-02-21T14:22:51Z</time>
      </trkpt>
      <trkpt lat="44.74229" lon="3.2352">
        <ele>1126.8</ele>
        <time>2016-02-21T14:23:05Z</time>
      </trkpt>
      <trkpt lat="44.74232" lon="3.23528">
        <ele>1126.8</ele>
        <time>2016-02-21T14:23:09Z</time>
      </trkpt>
      <trkpt lat="44.74238" lon="3.23539">
        <ele>1127.76</ele>
        <time>2016-02-21T14:23:20Z</time>
      </trkpt>
      <trkpt lat="44.74245" lon="3.23551">
        <ele>1128.24</ele>
        <time>2016-02-21T14:23:33Z</time>
      </trkpt>
      <trkpt lat="44.7425" lon="3.23561">
        <ele>1128.24</ele>
        <time>2016-02-21T14:23:39Z</time>
      </trkpt>
      <trkpt lat="44.74248" lon="3.23585">
        <ele>1128.73</ele>
        <time>2016-02-21T14:23:49Z</time>
      </trkpt>
      <trkpt lat="44.74255" lon="3.23604">
        <ele>1129.69</ele>
        <time>2016-02-21T14:23:56Z</time>
      </trkpt>
      <trkpt lat="44.74258" lon="3.23609">
        <ele>1129.69</ele>
        <time>2016-02-21T14:23:59Z</time>
      </trkpt>
      <trkpt lat="44.7426" lon="3.23613">
        <ele>1129.21</ele>
        <time>2016-02-21T14:24:07Z</time>
      </trkpt>
      <trkpt lat="44.74267" lon="3.23618">
        <ele>1128.73</ele>
        <time>2016-02-21T14:24:10Z</time>
      </trkpt>
      <trkpt lat="44.74274" lon="3.23624">
        <ele>1127.76</ele>
        <time>2016-02-21T14:24:12Z</time>
      </trkpt>
      <trkpt lat="44.74298" lon="3.23637">
        <ele>1125.36</ele>
        <time>2016-02-21T14:24:16Z</time>
      </trkpt>
      <trkpt lat="44.74325" lon="3.23655">
        <ele>1124.4</ele>
        <time>2016-02-21T14:24:21Z</time>
      </trkpt>
      <trkpt lat="44.74335" lon="3.23663">
        <ele>1123.92</ele>
        <time>2016-02-21T14:24:23Z</time>
      </trkpt>
      <trkpt lat="44.7434" lon="3.23667">
        <ele>1123.92</ele>
        <time>2016-02-21T14:24:24Z</time>
      </trkpt>
      <trkpt lat="44.74344" lon="3.23669">
        <ele>1123.92</ele>
        <time>2016-02-21T14:24:25Z</time>
      </trkpt>
      <trkpt lat="44.74349" lon="3.23671">
        <ele>1122.96</ele>
        <time>2016-02-21T14:24:26Z</time>
      </trkpt>
      <trkpt lat="44.74353" lon="3.23673">
        <ele>1122.96</ele>
        <time>2016-02-21T14:24:27Z</time>
      </trkpt>
      <trkpt lat="44.74357" lon="3.23673">
        <ele>1122.48</ele>
        <time>2016-02-21T14:24:28Z</time>
      </trkpt>
      <trkpt lat="44.74359" lon="3.23673">
        <ele>1122.48</ele>
        <time>2016-02-21T14:24:29Z</time>
      </trkpt>
      <trkpt lat="44.74361" lon="3.23674">
        <ele>1122.48</ele>
        <time>2016-02-21T14:24:30Z</time>
      </trkpt>
      <trkpt lat="44.74363" lon="3.23672">
        <ele>1122</ele>
        <time>2016-02-21T14:24:40Z</time>
      </trkpt>
      <trkpt lat="44.74363" lon="3.23672">
        <ele>1121.52</ele>
        <time>2016-02-21T14:24:52Z</time>
      </trkpt>
      <trkpt lat="44.74364" lon="3.23673">
        <ele>1121.52</ele>
        <time>2016-02-21T14:25:06Z</time>
      </trkpt>
      <trkpt lat="44.74366" lon="3.23674">
        <ele>1121.52</ele>
        <time>2016-02-21T14:25:07Z</time>
      </trkpt>
      <trkpt lat="44.74368" lon="3.23676">
        <ele>1121.03</ele>
        <time>2016-02-21T14:25:08Z</time>
      </trkpt>
      <trkpt lat="44.74371" lon="3.23679">
        <ele>1121.03</ele>
        <time>2016-02-21T14:25:09Z</time>
      </trkpt>
      <trkpt lat="44.74371" lon="3.23681">
        <ele>1121.03</ele>
        <time>2016-02-21T14:25:10Z</time>
      </trkpt>
      <trkpt lat="44.74371" lon="3.23683">
        <ele>1121.03</ele>
        <time>2016-02-21T14:25:11Z</time>
      </trkpt>
      <trkpt lat="44.74373" lon="3.23692">
        <ele>1122</ele>
        <time>2016-02-21T14:25:15Z</time>
      </trkpt>
      <trkpt lat="44.74375" lon="3.23709">
        <ele>1122.48</ele>
        <time>2016-02-21T14:25:22Z</time>
      </trkpt>
      <trkpt lat="44.74375" lon="3.23712">
        <ele>1122.96</ele>
        <time>2016-02-21T14:25:23Z</time>
      </trkpt>
      <trkpt lat="44.74375" lon="3.23716">
        <ele>1122.96</ele>
        <time>2016-02-21T14:25:24Z</time>
      </trkpt>
      <trkpt lat="44.74374" lon="3.2372">
        <ele>1122.96</ele>
        <time>2016-02-21T14:25:25Z</time>
      </trkpt>
      <trkpt lat="44.74375" lon="3.23723">
        <ele>1122.96</ele>
        <time>2016-02-21T14:25:26Z</time>
      </trkpt>
      <trkpt lat="44.74374" lon="3.23724">
        <ele>1123.44</ele>
        <time>2016-02-21T14:25:27Z</time>
      </trkpt>
      <trkpt lat="44.74373" lon="3.23726">
        <ele>1123.44</ele>
        <time>2016-02-21T14:25:28Z</time>
      </trkpt>
      <trkpt lat="44.74374" lon="3.23728">
        <ele>1123.92</ele>
        <time>2016-02-21T14:25:34Z</time>
      </trkpt>
      <trkpt lat="44.74376" lon="3.23722">
        <ele>1122.96</ele>
        <time>2016-02-21T14:25:38Z</time>
      </trkpt>
      <trkpt lat="44.74376" lon="3.2372">
        <ele>1123.44</ele>
        <time>2016-02-21T14:25:39Z</time>
      </trkpt>
      <trkpt lat="44.74375" lon="3.23718">
        <ele>1122.96</ele>
        <time>2016-02-21T14:25:40Z</time>
      </trkpt>
      <trkpt lat="44.74375" lon="3.23716">
        <ele>1122.96</ele>
        <time>2016-02-21T14:25:41Z</time>
      </trkpt>
      <trkpt lat="44.74374" lon="3.23713">
        <ele>1122.96</ele>
        <time>2016-02-21T14:25:42Z</time>
      </trkpt>
      <trkpt lat="44.74374" lon="3.2371">
        <ele>1122.48</ele>
        <time>2016-02-21T14:25:43Z</time>
      </trkpt>
      <trkpt lat="44.74374" lon="3.23706">
        <ele>1122.48</ele>
        <time>2016-02-21T14:25:44Z</time>
      </trkpt>
      <trkpt lat="44.74375" lon="3.23702">
        <ele>1122</ele>
        <time>2016-02-21T14:25:45Z</time>
      </trkpt>
      <trkpt lat="44.74379" lon="3.23678">
        <ele>1120.55</ele>
        <time>2016-02-21T14:25:56Z</time>
      </trkpt>
      <trkpt lat="44.74379" lon="3.23677">
        <ele>1116.23</ele>
        <time>2016-02-21T14:26:06Z</time>
      </trkpt>
      <trkpt lat="44.74379" lon="3.23677">
        <ele>1119.59</ele>
        <time>2016-02-21T14:26:07Z</time>
      </trkpt>
      <trkpt lat="44.74379" lon="3.23677">
        <ele>1122.96</ele>
        <time>2016-02-21T14:26:08Z</time>
      </trkpt>
      <trkpt lat="44.74379" lon="3.23677">
        <ele>1114.31</ele>
        <time>2016-02-21T14:26:09Z</time>
      </trkpt>
      <trkpt lat="44.74379" lon="3.23677">
        <ele>1125.84</ele>
        <time>2016-02-21T14:26:10Z</time>
      </trkpt>
      <trkpt lat="44.74379" lon="3.23677">
        <ele>1118.15</ele>
        <time>2016-02-21T14:26:11Z</time>
      </trkpt>
      <trkpt lat="44.74379" lon="3.23677">
        <ele>1123.92</ele>
        <time>2016-02-21T14:26:12Z</time>
      </trkpt>
      <trkpt lat="44.74379" lon="3.23677">
        <ele>1120.07</ele>
        <time>2016-02-21T14:26:13Z</time>
      </trkpt>
      <trkpt lat="44.74379" lon="3.23677">
        <ele>1120.55</ele>
        <time>2016-02-21T14:26:20Z</time>
      </trkpt>
      <trkpt lat="44.74379" lon="3.23679">
        <ele>1120.55</ele>
        <time>2016-02-21T14:26:37Z</time>
      </trkpt>
      <trkpt lat="44.74379" lon="3.23682">
        <ele>1120.55</ele>
        <time>2016-02-21T14:26:42Z</time>
      </trkpt>
      <trkpt lat="44.74378" lon="3.23691">
        <ele>1121.03</ele>
        <time>2016-02-21T14:26:47Z</time>
      </trkpt>
      <trkpt lat="44.74377" lon="3.23693">
        <ele>1121.52</ele>
        <time>2016-02-21T14:26:48Z</time>
      </trkpt>
      <trkpt lat="44.74377" lon="3.23694">
        <ele>1121.52</ele>
        <time>2016-02-21T14:26:49Z</time>
      </trkpt>
      <trkpt lat="44.74376" lon="3.23697">
        <ele>1121.52</ele>
        <time>2016-02-21T14:26:51Z</time>
      </trkpt>
      <trkpt lat="44.74377" lon="3.23703">
        <ele>1122</ele>
        <time>2016-02-21T14:26:55Z</time>
      </trkpt>
      <trkpt lat="44.74377" lon="3.23709">
        <ele>1122.48</ele>
        <time>2016-02-21T14:26:58Z</time>
      </trkpt>
      <trkpt lat="44.74378" lon="3.2371">
        <ele>1122.48</ele>
        <time>2016-02-21T14:26:59Z</time>
      </trkpt>
      <trkpt lat="44.74378" lon="3.23722">
        <ele>1122.96</ele>
        <time>2016-02-21T14:27:04Z</time>
      </trkpt>
      <trkpt lat="44.74376" lon="3.23734">
        <ele>1123.44</ele>
        <time>2016-02-21T14:27:10Z</time>
      </trkpt>
      <trkpt lat="44.74375" lon="3.23737">
        <ele>1122.96</ele>
        <time>2016-02-21T14:27:11Z</time>
      </trkpt>
      <trkpt lat="44.74374" lon="3.2374">
        <ele>1123.44</ele>
        <time>2016-02-21T14:27:12Z</time>
      </trkpt>
      <trkpt lat="44.74374" lon="3.23743">
        <ele>1123.44</ele>
        <time>2016-02-21T14:27:13Z</time>
      </trkpt>
      <trkpt lat="44.74374" lon="3.23745">
        <ele>1123.44</ele>
        <time>2016-02-21T14:27:14Z</time>
      </trkpt>
      <trkpt lat="44.74374" lon="3.23749">
        <ele>1123.44</ele>
        <time>2016-02-21T14:27:15Z</time>
      </trkpt>
      <trkpt lat="44.74374" lon="3.23753">
        <ele>1123.44</ele>
        <time>2016-02-21T14:27:16Z</time>
      </trkpt>
      <trkpt lat="44.74374" lon="3.23757">
        <ele>1123.44</ele>
        <time>2016-02-21T14:27:17Z</time>
      </trkpt>
      <trkpt lat="44.74372" lon="3.2376">
        <ele>1123.44</ele>
        <time>2016-02-21T14:27:18Z</time>
      </trkpt>
      <trkpt lat="44.74371" lon="3.23763">
        <ele>1123.44</ele>
        <time>2016-02-21T14:27:19Z</time>
      </trkpt>
      <trkpt lat="44.74369" lon="3.23767">
        <ele>1123.92</ele>
        <time>2016-02-21T14:27:20Z</time>
      </trkpt>
      <trkpt lat="44.74368" lon="3.2377">
        <ele>1123.92</ele>
        <time>2016-02-21T14:27:21Z</time>
      </trkpt>
      <trkpt lat="44.74367" lon="3.23773">
        <ele>1123.92</ele>
        <time>2016-02-21T14:27:22Z</time>
      </trkpt>
      <trkpt lat="44.74365" lon="3.23776">
        <ele>1123.92</ele>
        <time>2016-02-21T14:27:23Z</time>
      </trkpt>
      <trkpt lat="44.74363" lon="3.23778">
        <ele>1123.92</ele>
        <time>2016-02-21T14:27:24Z</time>
      </trkpt>
      <trkpt lat="44.74362" lon="3.23782">
        <ele>1123.92</ele>
        <time>2016-02-21T14:27:25Z</time>
      </trkpt>
      <trkpt lat="44.74362" lon="3.23786">
        <ele>1124.4</ele>
        <time>2016-02-21T14:27:26Z</time>
      </trkpt>
      <trkpt lat="44.74361" lon="3.2379">
        <ele>1124.4</ele>
        <time>2016-02-21T14:27:27Z</time>
      </trkpt>
      <trkpt lat="44.74365" lon="3.23815">
        <ele>1124.88</ele>
        <time>2016-02-21T14:27:34Z</time>
      </trkpt>
      <trkpt lat="44.74364" lon="3.2382">
        <ele>1125.36</ele>
        <time>2016-02-21T14:27:35Z</time>
      </trkpt>
      <trkpt lat="44.74362" lon="3.23859">
        <ele>1125.84</ele>
        <time>2016-02-21T14:27:45Z</time>
      </trkpt>
      <trkpt lat="44.74363" lon="3.23905">
        <ele>1126.8</ele>
        <time>2016-02-21T14:27:57Z</time>
      </trkpt>
      <trkpt lat="44.74364" lon="3.23937">
        <ele>1127.76</ele>
        <time>2016-02-21T14:28:06Z</time>
      </trkpt>
      <trkpt lat="44.74364" lon="3.23941">
        <ele>1127.76</ele>
        <time>2016-02-21T14:28:07Z</time>
      </trkpt>
      <trkpt lat="44.74365" lon="3.23944">
        <ele>1128.24</ele>
        <time>2016-02-21T14:28:08Z</time>
      </trkpt>
      <trkpt lat="44.74365" lon="3.23947">
        <ele>1128.24</ele>
        <time>2016-02-21T14:28:09Z</time>
      </trkpt>
      <trkpt lat="44.74366" lon="3.23949">
        <ele>1128.24</ele>
        <time>2016-02-21T14:28:10Z</time>
      </trkpt>
      <trkpt lat="44.74367" lon="3.23951">
        <ele>1128.24</ele>
        <time>2016-02-21T14:28:11Z</time>
      </trkpt>
      <trkpt lat="44.74368" lon="3.23953">
        <ele>1128.24</ele>
        <time>2016-02-21T14:28:12Z</time>
      </trkpt>
      <trkpt lat="44.74369" lon="3.23956">
        <ele>1128.73</ele>
        <time>2016-02-21T14:28:13Z</time>
      </trkpt>
      <trkpt lat="44.74368" lon="3.2396">
        <ele>1128.73</ele>
        <time>2016-02-21T14:28:14Z</time>
      </trkpt>
      <trkpt lat="44.74366" lon="3.23965">
        <ele>1128.73</ele>
        <time>2016-02-21T14:28:15Z</time>
      </trkpt>
      <trkpt lat="44.74362" lon="3.23978">
        <ele>1129.21</ele>
        <time>2016-02-21T14:28:18Z</time>
      </trkpt>
      <trkpt lat="44.74361" lon="3.23983">
        <ele>1129.21</ele>
        <time>2016-02-21T14:28:19Z</time>
      </trkpt>
      <trkpt lat="44.7436" lon="3.23987">
        <ele>1128.73</ele>
        <time>2016-02-21T14:28:20Z</time>
      </trkpt>
      <trkpt lat="44.74353" lon="3.24012">
        <ele>1130.17</ele>
        <time>2016-02-21T14:28:27Z</time>
      </trkpt>
      <trkpt lat="44.7435" lon="3.24022">
        <ele>1130.17</ele>
        <time>2016-02-21T14:28:33Z</time>
      </trkpt>
      <trkpt lat="44.74344" lon="3.2404">
        <ele>1130.65</ele>
        <time>2016-02-21T14:28:45Z</time>
      </trkpt>
      <trkpt lat="44.74332" lon="3.2407">
        <ele>1132.09</ele>
        <time>2016-02-21T14:28:57Z</time>
      </trkpt>
      <trkpt lat="44.7433" lon="3.24076">
        <ele>1132.09</ele>
        <time>2016-02-21T14:28:59Z</time>
      </trkpt>
      <trkpt lat="44.74329" lon="3.24078">
        <ele>1132.57</ele>
        <time>2016-02-21T14:29:00Z</time>
      </trkpt>
      <trkpt lat="44.74328" lon="3.24081">
        <ele>1132.57</ele>
        <time>2016-02-21T14:29:01Z</time>
      </trkpt>
      <trkpt lat="44.74326" lon="3.24083">
        <ele>1132.57</ele>
        <time>2016-02-21T14:29:02Z</time>
      </trkpt>
      <trkpt lat="44.74325" lon="3.24085">
        <ele>1133.05</ele>
        <time>2016-02-21T14:29:03Z</time>
      </trkpt>
      <trkpt lat="44.74324" lon="3.24087">
        <ele>1133.05</ele>
        <time>2016-02-21T14:29:04Z</time>
      </trkpt>
      <trkpt lat="44.74322" lon="3.24092">
        <ele>1133.53</ele>
        <time>2016-02-21T14:29:06Z</time>
      </trkpt>
      <trkpt lat="44.7432" lon="3.24094">
        <ele>1133.53</ele>
        <time>2016-02-21T14:29:07Z</time>
      </trkpt>
      <trkpt lat="44.74319" lon="3.24097">
        <ele>1133.53</ele>
        <time>2016-02-21T14:29:08Z</time>
      </trkpt>
      <trkpt lat="44.74315" lon="3.24105">
        <ele>1134.01</ele>
        <time>2016-02-21T14:29:12Z</time>
      </trkpt>
      <trkpt lat="44.74314" lon="3.24108">
        <ele>1134.01</ele>
        <time>2016-02-21T14:29:13Z</time>
      </trkpt>
      <trkpt lat="44.74294" lon="3.24137">
        <ele>1135.94</ele>
        <time>2016-02-21T14:29:25Z</time>
      </trkpt>
      <trkpt lat="44.74265" lon="3.2417">
        <ele>1136.42</ele>
        <time>2016-02-21T14:29:41Z</time>
      </trkpt>
      <trkpt lat="44.74245" lon="3.24198">
        <ele>1136.9</ele>
        <time>2016-02-21T14:29:53Z</time>
      </trkpt>
      <trkpt lat="44.74233" lon="3.24212">
        <ele>1136.42</ele>
        <time>2016-02-21T14:30:01Z</time>
      </trkpt>
      <trkpt lat="44.74231" lon="3.24213">
        <ele>1135.94</ele>
        <time>2016-02-21T14:30:02Z</time>
      </trkpt>
      <trkpt lat="44.74229" lon="3.24215">
        <ele>1136.42</ele>
        <time>2016-02-21T14:30:03Z</time>
      </trkpt>
      <trkpt lat="44.74219" lon="3.24227">
        <ele>1135.94</ele>
        <time>2016-02-21T14:30:10Z</time>
      </trkpt>
      <trkpt lat="44.74218" lon="3.24228">
        <ele>1135.94</ele>
        <time>2016-02-21T14:30:11Z</time>
      </trkpt>
      <trkpt lat="44.74217" lon="3.24229">
        <ele>1135.94</ele>
        <time>2016-02-21T14:30:12Z</time>
      </trkpt>
      <trkpt lat="44.7421" lon="3.24237">
        <ele>1135.45</ele>
        <time>2016-02-21T14:30:21Z</time>
      </trkpt>
      <trkpt lat="44.74199" lon="3.24255">
        <ele>1133.53</ele>
        <time>2016-02-21T14:30:32Z</time>
      </trkpt>
      <trkpt lat="44.74183" lon="3.24279">
        <ele>1130.17</ele>
        <time>2016-02-21T14:30:38Z</time>
      </trkpt>
      <trkpt lat="44.7418" lon="3.24284">
        <ele>1129.21</ele>
        <time>2016-02-21T14:30:39Z</time>
      </trkpt>
      <trkpt lat="44.74178" lon="3.24288">
        <ele>1128.24</ele>
        <time>2016-02-21T14:30:40Z</time>
      </trkpt>
      <trkpt lat="44.74168" lon="3.24303">
        <ele>1125.36</ele>
        <time>2016-02-21T14:30:44Z</time>
      </trkpt>
      <trkpt lat="44.74165" lon="3.24304">
        <ele>1124.88</ele>
        <time>2016-02-21T14:30:45Z</time>
      </trkpt>
      <trkpt lat="44.74162" lon="3.24303">
        <ele>1124.88</ele>
        <time>2016-02-21T14:30:46Z</time>
      </trkpt>
      <trkpt lat="44.7416" lon="3.24302">
        <ele>1124.4</ele>
        <time>2016-02-21T14:30:47Z</time>
      </trkpt>
      <trkpt lat="44.74158" lon="3.243">
        <ele>1124.4</ele>
        <time>2016-02-21T14:30:48Z</time>
      </trkpt>
      <trkpt lat="44.74156" lon="3.24296">
        <ele>1124.4</ele>
        <time>2016-02-21T14:30:49Z</time>
      </trkpt>
      <trkpt lat="44.74149" lon="3.2428">
        <ele>1121.52</ele>
        <time>2016-02-21T14:30:52Z</time>
      </trkpt>
      <trkpt lat="44.74145" lon="3.24275">
        <ele>1121.52</ele>
        <time>2016-02-21T14:30:53Z</time>
      </trkpt>
      <trkpt lat="44.74141" lon="3.24273">
        <ele>1120.55</ele>
        <time>2016-02-21T14:30:54Z</time>
      </trkpt>
      <trkpt lat="44.74138" lon="3.2427">
        <ele>1120.55</ele>
        <time>2016-02-21T14:30:55Z</time>
      </trkpt>
      <trkpt lat="44.74135" lon="3.24268">
        <ele>1120.55</ele>
        <time>2016-02-21T14:30:56Z</time>
      </trkpt>
      <trkpt lat="44.74133" lon="3.24266">
        <ele>1120.55</ele>
        <time>2016-02-21T14:30:57Z</time>
      </trkpt>
      <trkpt lat="44.74131" lon="3.24265">
        <ele>1121.03</ele>
        <time>2016-02-21T14:30:58Z</time>
      </trkpt>
      <trkpt lat="44.74129" lon="3.24266">
        <ele>1121.03</ele>
        <time>2016-02-21T14:31:11Z</time>
      </trkpt>
      <trkpt lat="44.74122" lon="3.24266">
        <ele>1120.55</ele>
        <time>2016-02-21T14:31:15Z</time>
      </trkpt>
      <trkpt lat="44.74119" lon="3.24266">
        <ele>1120.55</ele>
        <time>2016-02-21T14:31:16Z</time>
      </trkpt>
      <trkpt lat="44.74117" lon="3.24265">
        <ele>1120.55</ele>
        <time>2016-02-21T14:31:17Z</time>
      </trkpt>
      <trkpt lat="44.74115" lon="3.24265">
        <ele>1120.07</ele>
        <time>2016-02-21T14:31:18Z</time>
      </trkpt>
      <trkpt lat="44.74113" lon="3.24264">
        <ele>1120.07</ele>
        <time>2016-02-21T14:31:19Z</time>
      </trkpt>
      <trkpt lat="44.74107" lon="3.24264">
        <ele>1120.07</ele>
        <time>2016-02-21T14:31:22Z</time>
      </trkpt>
      <trkpt lat="44.74104" lon="3.24264">
        <ele>1119.59</ele>
        <time>2016-02-21T14:31:23Z</time>
      </trkpt>
      <trkpt lat="44.74102" lon="3.24265">
        <ele>1119.59</ele>
        <time>2016-02-21T14:31:24Z</time>
      </trkpt>
      <trkpt lat="44.74082" lon="3.24266">
        <ele>1119.11</ele>
        <time>2016-02-21T14:31:32Z</time>
      </trkpt>
      <trkpt lat="44.74079" lon="3.24266">
        <ele>1119.11</ele>
        <time>2016-02-21T14:31:33Z</time>
      </trkpt>
      <trkpt lat="44.74065" lon="3.24266">
        <ele>1119.59</ele>
        <time>2016-02-21T14:31:45Z</time>
      </trkpt>
      <trkpt lat="44.74065" lon="3.24266">
        <ele>1120.07</ele>
        <time>2016-02-21T14:32:00Z</time>
      </trkpt>
      <trkpt lat="44.74064" lon="3.24266">
        <ele>1119.59</ele>
        <time>2016-02-21T14:32:11Z</time>
      </trkpt>
      <trkpt lat="44.74064" lon="3.24266">
        <ele>1119.59</ele>
        <time>2016-02-21T14:32:30Z</time>
      </trkpt>
      <trkpt lat="44.74063" lon="3.24265">
        <ele>1119.59</ele>
        <time>2016-02-21T14:32:53Z</time>
      </trkpt>
      <trkpt lat="44.7406" lon="3.24264">
        <ele>1120.07</ele>
        <time>2016-02-21T14:32:58Z</time>
      </trkpt>
      <trkpt lat="44.74057" lon="3.24264">
        <ele>1119.59</ele>
        <time>2016-02-21T14:33:06Z</time>
      </trkpt>
      <trkpt lat="44.7403" lon="3.24275">
        <ele>1118.15</ele>
        <time>2016-02-21T14:33:19Z</time>
      </trkpt>
      <trkpt lat="44.74002" lon="3.24293">
        <ele>1115.75</ele>
        <time>2016-02-21T14:33:29Z</time>
      </trkpt>
      <trkpt lat="44.73997" lon="3.24304">
        <ele>1116.23</ele>
        <time>2016-02-21T14:33:35Z</time>
      </trkpt>
      <trkpt lat="44.73997" lon="3.24306">
        <ele>1115.75</ele>
        <time>2016-02-21T14:33:36Z</time>
      </trkpt>
      <trkpt lat="44.73996" lon="3.24309">
        <ele>1115.75</ele>
        <time>2016-02-21T14:33:37Z</time>
      </trkpt>
      <trkpt lat="44.73994" lon="3.24311">
        <ele>1115.75</ele>
        <time>2016-02-21T14:33:38Z</time>
      </trkpt>
      <trkpt lat="44.73993" lon="3.24313">
        <ele>1115.27</ele>
        <time>2016-02-21T14:33:39Z</time>
      </trkpt>
      <trkpt lat="44.73992" lon="3.24316">
        <ele>1115.27</ele>
        <time>2016-02-21T14:33:40Z</time>
      </trkpt>
      <trkpt lat="44.73991" lon="3.24318">
        <ele>1115.27</ele>
        <time>2016-02-21T14:33:41Z</time>
      </trkpt>
      <trkpt lat="44.7399" lon="3.24321">
        <ele>1114.79</ele>
        <time>2016-02-21T14:33:42Z</time>
      </trkpt>
      <trkpt lat="44.73974" lon="3.24359">
        <ele>1113.34</ele>
        <time>2016-02-21T14:33:55Z</time>
      </trkpt>
      <trkpt lat="44.73953" lon="3.24397">
        <ele>1111.42</ele>
        <time>2016-02-21T14:34:06Z</time>
      </trkpt>
      <trkpt lat="44.7395" lon="3.24407">
        <ele>1110.46</ele>
        <time>2016-02-21T14:34:08Z</time>
      </trkpt>
      <trkpt lat="44.73946" lon="3.24419">
        <ele>1109.02</ele>
        <time>2016-02-21T14:34:10Z</time>
      </trkpt>
      <trkpt lat="44.73945" lon="3.24424">
        <ele>1108.54</ele>
        <time>2016-02-21T14:34:11Z</time>
      </trkpt>
      <trkpt lat="44.73945" lon="3.24428">
        <ele>1109.02</ele>
        <time>2016-02-21T14:34:12Z</time>
      </trkpt>
      <trkpt lat="44.73944" lon="3.24433">
        <ele>1108.54</ele>
        <time>2016-02-21T14:34:13Z</time>
      </trkpt>
      <trkpt lat="44.73944" lon="3.24436">
        <ele>1108.54</ele>
        <time>2016-02-21T14:34:14Z</time>
      </trkpt>
      <trkpt lat="44.73943" lon="3.2444">
        <ele>1108.06</ele>
        <time>2016-02-21T14:34:15Z</time>
      </trkpt>
      <trkpt lat="44.73942" lon="3.24444">
        <ele>1108.06</ele>
        <time>2016-02-21T14:34:16Z</time>
      </trkpt>
      <trkpt lat="44.73931" lon="3.24476">
        <ele>1106.61</ele>
        <time>2016-02-21T14:34:26Z</time>
      </trkpt>
      <trkpt lat="44.73931" lon="3.24479">
        <ele>1106.61</ele>
        <time>2016-02-21T14:34:27Z</time>
      </trkpt>
      <trkpt lat="44.7393" lon="3.24483">
        <ele>1106.61</ele>
        <time>2016-02-21T14:34:28Z</time>
      </trkpt>
      <trkpt lat="44.73929" lon="3.24485">
        <ele>1106.13</ele>
        <time>2016-02-21T14:34:29Z</time>
      </trkpt>
      <trkpt lat="44.73929" lon="3.24488">
        <ele>1106.13</ele>
        <time>2016-02-21T14:34:30Z</time>
      </trkpt>
      <trkpt lat="44.73923" lon="3.24508">
        <ele>1104.69</ele>
        <time>2016-02-21T14:34:36Z</time>
      </trkpt>
      <trkpt lat="44.7392" lon="3.24517">
        <ele>1103.73</ele>
        <time>2016-02-21T14:34:38Z</time>
      </trkpt>
      <trkpt lat="44.73921" lon="3.2452">
        <ele>1103.73</ele>
        <time>2016-02-21T14:34:39Z</time>
      </trkpt>
      <trkpt lat="44.7392" lon="3.24522">
        <ele>1103.73</ele>
        <time>2016-02-21T14:34:40Z</time>
      </trkpt>
      <trkpt lat="44.7392" lon="3.24525">
        <ele>1103.73</ele>
        <time>2016-02-21T14:34:41Z</time>
      </trkpt>
      <trkpt lat="44.73919" lon="3.24527">
        <ele>1103.73</ele>
        <time>2016-02-21T14:34:42Z</time>
      </trkpt>
      <trkpt lat="44.73918" lon="3.24529">
        <ele>1103.25</ele>
        <time>2016-02-21T14:34:43Z</time>
      </trkpt>
      <trkpt lat="44.73913" lon="3.24544">
        <ele>1102.77</ele>
        <time>2016-02-21T14:34:47Z</time>
      </trkpt>
      <trkpt lat="44.73913" lon="3.24546">
        <ele>1102.77</ele>
        <time>2016-02-21T14:34:48Z</time>
      </trkpt>
      <trkpt lat="44.73902" lon="3.24592">
        <ele>1101.81</ele>
        <time>2016-02-21T14:34:59Z</time>
      </trkpt>
      <trkpt lat="44.73889" lon="3.24625">
        <ele>1100.85</ele>
        <time>2016-02-21T14:35:04Z</time>
      </trkpt>
      <trkpt lat="44.73886" lon="3.24632">
        <ele>1100.85</ele>
        <time>2016-02-21T14:35:05Z</time>
      </trkpt>
      <trkpt lat="44.73883" lon="3.24638">
        <ele>1100.37</ele>
        <time>2016-02-21T14:35:06Z</time>
      </trkpt>
      <trkpt lat="44.7388" lon="3.24643">
        <ele>1099.89</ele>
        <time>2016-02-21T14:35:07Z</time>
      </trkpt>
      <trkpt lat="44.73879" lon="3.24648">
        <ele>1099.4</ele>
        <time>2016-02-21T14:35:08Z</time>
      </trkpt>
      <trkpt lat="44.73877" lon="3.24653">
        <ele>1099.4</ele>
        <time>2016-02-21T14:35:09Z</time>
      </trkpt>
      <trkpt lat="44.73871" lon="3.24709">
        <ele>1096.52</ele>
        <time>2016-02-21T14:35:19Z</time>
      </trkpt>
      <trkpt lat="44.73866" lon="3.24733">
        <ele>1095.08</ele>
        <time>2016-02-21T14:35:23Z</time>
      </trkpt>
      <trkpt lat="44.73864" lon="3.2478">
        <ele>1093.16</ele>
        <time>2016-02-21T14:35:31Z</time>
      </trkpt>
      <trkpt lat="44.73864" lon="3.24786">
        <ele>1093.16</ele>
        <time>2016-02-21T14:35:32Z</time>
      </trkpt>
      <trkpt lat="44.73865" lon="3.24792">
        <ele>1092.68</ele>
        <time>2016-02-21T14:35:33Z</time>
      </trkpt>
      <trkpt lat="44.73864" lon="3.24804">
        <ele>1092.2</ele>
        <time>2016-02-21T14:35:35Z</time>
      </trkpt>
      <trkpt lat="44.73863" lon="3.2481">
        <ele>1091.23</ele>
        <time>2016-02-21T14:35:36Z</time>
      </trkpt>
      <trkpt lat="44.73862" lon="3.24816">
        <ele>1091.23</ele>
        <time>2016-02-21T14:35:37Z</time>
      </trkpt>
      <trkpt lat="44.73861" lon="3.24821">
        <ele>1091.23</ele>
        <time>2016-02-21T14:35:38Z</time>
      </trkpt>
      <trkpt lat="44.7386" lon="3.24824">
        <ele>1091.23</ele>
        <time>2016-02-21T14:35:39Z</time>
      </trkpt>
      <trkpt lat="44.73859" lon="3.24828">
        <ele>1091.23</ele>
        <time>2016-02-21T14:35:40Z</time>
      </trkpt>
      <trkpt lat="44.73858" lon="3.24832">
        <ele>1090.75</ele>
        <time>2016-02-21T14:35:41Z</time>
      </trkpt>
      <trkpt lat="44.73856" lon="3.24836">
        <ele>1090.75</ele>
        <time>2016-02-21T14:35:42Z</time>
      </trkpt>
      <trkpt lat="44.73855" lon="3.2484">
        <ele>1090.75</ele>
        <time>2016-02-21T14:35:43Z</time>
      </trkpt>
      <trkpt lat="44.73833" lon="3.24887">
        <ele>1089.31</ele>
        <time>2016-02-21T14:35:53Z</time>
      </trkpt>
      <trkpt lat="44.73815" lon="3.24913">
        <ele>1087.87</ele>
        <time>2016-02-21T14:36:00Z</time>
      </trkpt>
      <trkpt lat="44.73812" lon="3.24916">
        <ele>1087.87</ele>
        <time>2016-02-21T14:36:01Z</time>
      </trkpt>
      <trkpt lat="44.73809" lon="3.24921">
        <ele>1087.39</ele>
        <time>2016-02-21T14:36:02Z</time>
      </trkpt>
      <trkpt lat="44.73807" lon="3.24926">
        <ele>1086.91</ele>
        <time>2016-02-21T14:36:03Z</time>
      </trkpt>
      <trkpt lat="44.73806" lon="3.24931">
        <ele>1086.43</ele>
        <time>2016-02-21T14:36:04Z</time>
      </trkpt>
      <trkpt lat="44.73805" lon="3.24938">
        <ele>1085.95</ele>
        <time>2016-02-21T14:36:05Z</time>
      </trkpt>
      <trkpt lat="44.73806" lon="3.24945">
        <ele>1085.47</ele>
        <time>2016-02-21T14:36:06Z</time>
      </trkpt>
      <trkpt lat="44.73807" lon="3.24951">
        <ele>1084.99</ele>
        <time>2016-02-21T14:36:07Z</time>
      </trkpt>
      <trkpt lat="44.73808" lon="3.24957">
        <ele>1084.5</ele>
        <time>2016-02-21T14:36:08Z</time>
      </trkpt>
      <trkpt lat="44.73809" lon="3.2497">
        <ele>1083.06</ele>
        <time>2016-02-21T14:36:10Z</time>
      </trkpt>
      <trkpt lat="44.73809" lon="3.24977">
        <ele>1082.58</ele>
        <time>2016-02-21T14:36:11Z</time>
      </trkpt>
      <trkpt lat="44.73809" lon="3.24984">
        <ele>1082.1</ele>
        <time>2016-02-21T14:36:12Z</time>
      </trkpt>
      <trkpt lat="44.73809" lon="3.24991">
        <ele>1082.1</ele>
        <time>2016-02-21T14:36:13Z</time>
      </trkpt>
      <trkpt lat="44.73811" lon="3.24997">
        <ele>1081.62</ele>
        <time>2016-02-21T14:36:14Z</time>
      </trkpt>
      <trkpt lat="44.73813" lon="3.25004">
        <ele>1081.14</ele>
        <time>2016-02-21T14:36:15Z</time>
      </trkpt>
      <trkpt lat="44.73814" lon="3.2501">
        <ele>1080.66</ele>
        <time>2016-02-21T14:36:16Z</time>
      </trkpt>
      <trkpt lat="44.73815" lon="3.25016">
        <ele>1079.7</ele>
        <time>2016-02-21T14:36:17Z</time>
      </trkpt>
      <trkpt lat="44.73815" lon="3.25023">
        <ele>1078.74</ele>
        <time>2016-02-21T14:36:18Z</time>
      </trkpt>
      <trkpt lat="44.73814" lon="3.2503">
        <ele>1078.74</ele>
        <time>2016-02-21T14:36:19Z</time>
      </trkpt>
      <trkpt lat="44.73813" lon="3.25036">
        <ele>1078.26</ele>
        <time>2016-02-21T14:36:20Z</time>
      </trkpt>
      <trkpt lat="44.73812" lon="3.25041">
        <ele>1077.78</ele>
        <time>2016-02-21T14:36:21Z</time>
      </trkpt>
      <trkpt lat="44.73811" lon="3.25046">
        <ele>1078.26</ele>
        <time>2016-02-21T14:36:22Z</time>
      </trkpt>
      <trkpt lat="44.73811" lon="3.25049">
        <ele>1077.78</ele>
        <time>2016-02-21T14:36:23Z</time>
      </trkpt>
      <trkpt lat="44.7381" lon="3.25053">
        <ele>1077.78</ele>
        <time>2016-02-21T14:36:24Z</time>
      </trkpt>
      <trkpt lat="44.73809" lon="3.25057">
        <ele>1076.81</ele>
        <time>2016-02-21T14:36:25Z</time>
      </trkpt>
      <trkpt lat="44.73807" lon="3.25064">
        <ele>1075.85</ele>
        <time>2016-02-21T14:36:27Z</time>
      </trkpt>
      <trkpt lat="44.73807" lon="3.25066">
        <ele>1075.85</ele>
        <time>2016-02-21T14:36:28Z</time>
      </trkpt>
      <trkpt lat="44.73807" lon="3.25067">
        <ele>1075.37</ele>
        <time>2016-02-21T14:36:39Z</time>
      </trkpt>
      <trkpt lat="44.73806" lon="3.2507">
        <ele>1074.89</ele>
        <time>2016-02-21T14:36:54Z</time>
      </trkpt>
      <trkpt lat="44.73805" lon="3.25081">
        <ele>1074.41</ele>
        <time>2016-02-21T14:37:17Z</time>
      </trkpt>
      <trkpt lat="44.73804" lon="3.25108">
        <ele>1073.93</ele>
        <time>2016-02-21T14:37:25Z</time>
      </trkpt>
      <trkpt lat="44.73803" lon="3.2511">
        <ele>1073.93</ele>
        <time>2016-02-21T14:37:26Z</time>
      </trkpt>
      <trkpt lat="44.73803" lon="3.25111">
        <ele>1073.93</ele>
        <time>2016-02-21T14:37:35Z</time>
      </trkpt>
      <trkpt lat="44.73804" lon="3.25111">
        <ele>1073.45</ele>
        <time>2016-02-21T14:37:54Z</time>
      </trkpt>
      <trkpt lat="44.73804" lon="3.25111">
        <ele>1073.45</ele>
        <time>2016-02-21T14:37:56Z</time>
      </trkpt>
      <trkpt lat="44.73804" lon="3.25114">
        <ele>1073.45</ele>
        <time>2016-02-21T14:38:04Z</time>
      </trkpt>
      <trkpt lat="44.73804" lon="3.25114">
        <ele>1073.45</ele>
        <time>2016-02-21T14:38:14Z</time>
      </trkpt>
      <trkpt lat="44.73802" lon="3.25116">
        <ele>1074.41</ele>
        <time>2016-02-21T14:40:58Z</time>
      </trkpt>
      <trkpt lat="44.73802" lon="3.25116">
        <ele>1074.41</ele>
        <time>2016-02-21T14:40:59Z</time>
      </trkpt>
      <trkpt lat="44.73802" lon="3.25117">
        <ele>1074.41</ele>
        <time>2016-02-21T14:41:24Z</time>
      </trkpt>
      <trkpt lat="44.73802" lon="3.25116">
        <ele>1072.49</ele>
        <time>2016-02-21T14:41:26Z</time>
      </trkpt>
      <trkpt lat="44.73805" lon="3.25115">
        <ele>1074.41</ele>
        <time>2016-02-21T14:45:57Z</time>
      </trkpt>
      <trkpt lat="44.73805" lon="3.25114">
        <ele>1074.41</ele>
        <time>2016-02-21T14:45:58Z</time>
      </trkpt>
      <trkpt lat="44.73805" lon="3.25115">
        <ele>1073.45</ele>
        <time>2016-02-21T14:46:05Z</time>
      </trkpt>
      <trkpt lat="44.73808" lon="3.25135">
        <ele>1072.49</ele>
        <time>2016-02-21T14:46:11Z</time>
      </trkpt>
      <trkpt lat="44.73825" lon="3.25219">
        <ele>1069.12</ele>
        <time>2016-02-21T14:46:22Z</time>
      </trkpt>
      <trkpt lat="44.73856" lon="3.25297">
        <ele>1067.2</ele>
        <time>2016-02-21T14:46:32Z</time>
      </trkpt>
      <trkpt lat="44.73861" lon="3.25309">
        <ele>1067.2</ele>
        <time>2016-02-21T14:46:34Z</time>
      </trkpt>
      <trkpt lat="44.73865" lon="3.25313">
        <ele>1067.68</ele>
        <time>2016-02-21T14:46:35Z</time>
      </trkpt>
      <trkpt lat="44.73869" lon="3.25315">
        <ele>1067.68</ele>
        <time>2016-02-21T14:46:36Z</time>
      </trkpt>
      <trkpt lat="44.73873" lon="3.25313">
        <ele>1067.68</ele>
        <time>2016-02-21T14:46:37Z</time>
      </trkpt>
      <trkpt lat="44.73876" lon="3.25309">
        <ele>1067.68</ele>
        <time>2016-02-21T14:46:38Z</time>
      </trkpt>
      <trkpt lat="44.73878" lon="3.25303">
        <ele>1067.2</ele>
        <time>2016-02-21T14:46:39Z</time>
      </trkpt>
      <trkpt lat="44.7388" lon="3.25297">
        <ele>1067.2</ele>
        <time>2016-02-21T14:46:40Z</time>
      </trkpt>
      <trkpt lat="44.73905" lon="3.25194">
        <ele>1065.76</ele>
        <time>2016-02-21T14:46:54Z</time>
      </trkpt>
      <trkpt lat="44.73908" lon="3.25188">
        <ele>1065.28</ele>
        <time>2016-02-21T14:46:55Z</time>
      </trkpt>
      <trkpt lat="44.73938" lon="3.25143">
        <ele>1064.8</ele>
        <time>2016-02-21T14:47:02Z</time>
      </trkpt>
      <trkpt lat="44.73942" lon="3.25136">
        <ele>1064.8</ele>
        <time>2016-02-21T14:47:03Z</time>
      </trkpt>
      <trkpt lat="44.73945" lon="3.25128">
        <ele>1064.32</ele>
        <time>2016-02-21T14:47:04Z</time>
      </trkpt>
      <trkpt lat="44.73947" lon="3.25119">
        <ele>1064.32</ele>
        <time>2016-02-21T14:47:05Z</time>
      </trkpt>
      <trkpt lat="44.73949" lon="3.25111">
        <ele>1063.84</ele>
        <time>2016-02-21T14:47:06Z</time>
      </trkpt>
      <trkpt lat="44.73962" lon="3.25052">
        <ele>1061.91</ele>
        <time>2016-02-21T14:47:12Z</time>
      </trkpt>
      <trkpt lat="44.73968" lon="3.25031">
        <ele>1060.47</ele>
        <time>2016-02-21T14:47:14Z</time>
      </trkpt>
      <trkpt lat="44.73973" lon="3.25022">
        <ele>1060.47</ele>
        <time>2016-02-21T14:47:15Z</time>
      </trkpt>
      <trkpt lat="44.73978" lon="3.25014">
        <ele>1059.99</ele>
        <time>2016-02-21T14:47:16Z</time>
      </trkpt>
      <trkpt lat="44.73985" lon="3.25006">
        <ele>1059.99</ele>
        <time>2016-02-21T14:47:17Z</time>
      </trkpt>
      <trkpt lat="44.73992" lon="3.25">
        <ele>1059.51</ele>
        <time>2016-02-21T14:47:18Z</time>
      </trkpt>
      <trkpt lat="44.73999" lon="3.24994">
        <ele>1059.51</ele>
        <time>2016-02-21T14:47:19Z</time>
      </trkpt>
      <trkpt lat="44.74007" lon="3.24989">
        <ele>1059.51</ele>
        <time>2016-02-21T14:47:20Z</time>
      </trkpt>
      <trkpt lat="44.74015" lon="3.24984">
        <ele>1058.55</ele>
        <time>2016-02-21T14:47:21Z</time>
      </trkpt>
      <trkpt lat="44.74023" lon="3.24981">
        <ele>1058.07</ele>
        <time>2016-02-21T14:47:22Z</time>
      </trkpt>
      <trkpt lat="44.74032" lon="3.24978">
        <ele>1057.59</ele>
        <time>2016-02-21T14:47:23Z</time>
      </trkpt>
      <trkpt lat="44.7404" lon="3.24973">
        <ele>1057.59</ele>
        <time>2016-02-21T14:47:24Z</time>
      </trkpt>
      <trkpt lat="44.74048" lon="3.24968">
        <ele>1057.11</ele>
        <time>2016-02-21T14:47:25Z</time>
      </trkpt>
      <trkpt lat="44.74055" lon="3.2496">
        <ele>1056.63</ele>
        <time>2016-02-21T14:47:26Z</time>
      </trkpt>
      <trkpt lat="44.74061" lon="3.2495">
        <ele>1056.15</ele>
        <time>2016-02-21T14:47:27Z</time>
      </trkpt>
      <trkpt lat="44.74066" lon="3.2494">
        <ele>1055.67</ele>
        <time>2016-02-21T14:47:28Z</time>
      </trkpt>
      <trkpt lat="44.7407" lon="3.24929">
        <ele>1055.67</ele>
        <time>2016-02-21T14:47:29Z</time>
      </trkpt>
      <trkpt lat="44.74073" lon="3.24917">
        <ele>1055.18</ele>
        <time>2016-02-21T14:47:30Z</time>
      </trkpt>
      <trkpt lat="44.74076" lon="3.24905">
        <ele>1054.7</ele>
        <time>2016-02-21T14:47:31Z</time>
      </trkpt>
      <trkpt lat="44.74081" lon="3.24895">
        <ele>1054.22</ele>
        <time>2016-02-21T14:47:32Z</time>
      </trkpt>
      <trkpt lat="44.74087" lon="3.24885">
        <ele>1053.74</ele>
        <time>2016-02-21T14:47:33Z</time>
      </trkpt>
      <trkpt lat="44.74094" lon="3.24878">
        <ele>1052.78</ele>
        <time>2016-02-21T14:47:34Z</time>
      </trkpt>
      <trkpt lat="44.74102" lon="3.24872">
        <ele>1052.3</ele>
        <time>2016-02-21T14:47:35Z</time>
      </trkpt>
      <trkpt lat="44.7411" lon="3.24868">
        <ele>1052.3</ele>
        <time>2016-02-21T14:47:36Z</time>
      </trkpt>
      <trkpt lat="44.74117" lon="3.24866">
        <ele>1052.3</ele>
        <time>2016-02-21T14:47:37Z</time>
      </trkpt>
      <trkpt lat="44.74125" lon="3.24866">
        <ele>1052.78</ele>
        <time>2016-02-21T14:47:38Z</time>
      </trkpt>
      <trkpt lat="44.74132" lon="3.24866">
        <ele>1053.26</ele>
        <time>2016-02-21T14:47:39Z</time>
      </trkpt>
      <trkpt lat="44.7415" lon="3.24867">
        <ele>1054.7</ele>
        <time>2016-02-21T14:47:42Z</time>
      </trkpt>
      <trkpt lat="44.74206" lon="3.24861">
        <ele>1056.63</ele>
        <time>2016-02-21T14:47:55Z</time>
      </trkpt>
      <trkpt lat="44.74214" lon="3.24856">
        <ele>1056.63</ele>
        <time>2016-02-21T14:48:06Z</time>
      </trkpt>
      <trkpt lat="44.74238" lon="3.24841">
        <ele>1056.63</ele>
        <time>2016-02-21T14:48:15Z</time>
      </trkpt>
      <trkpt lat="44.74267" lon="3.24818">
        <ele>1057.11</ele>
        <time>2016-02-21T14:48:23Z</time>
      </trkpt>
      <trkpt lat="44.74285" lon="3.24796">
        <ele>1057.59</ele>
        <time>2016-02-21T14:48:28Z</time>
      </trkpt>
      <trkpt lat="44.74295" lon="3.24783">
        <ele>1057.59</ele>
        <time>2016-02-21T14:48:31Z</time>
      </trkpt>
      <trkpt lat="44.74299" lon="3.24778">
        <ele>1057.59</ele>
        <time>2016-02-21T14:48:32Z</time>
      </trkpt>
      <trkpt lat="44.74302" lon="3.24774">
        <ele>1058.07</ele>
        <time>2016-02-21T14:48:33Z</time>
      </trkpt>
      <trkpt lat="44.74306" lon="3.2477">
        <ele>1058.07</ele>
        <time>2016-02-21T14:48:34Z</time>
      </trkpt>
      <trkpt lat="44.7431" lon="3.24766">
        <ele>1058.07</ele>
        <time>2016-02-21T14:48:35Z</time>
      </trkpt>
      <trkpt lat="44.74318" lon="3.24758">
        <ele>1058.07</ele>
        <time>2016-02-21T14:48:37Z</time>
      </trkpt>
      <trkpt lat="44.74321" lon="3.24755">
        <ele>1058.07</ele>
        <time>2016-02-21T14:48:38Z</time>
      </trkpt>
      <trkpt lat="44.74325" lon="3.24752">
        <ele>1058.55</ele>
        <time>2016-02-21T14:48:39Z</time>
      </trkpt>
      <trkpt lat="44.74329" lon="3.24751">
        <ele>1058.55</ele>
        <time>2016-02-21T14:48:40Z</time>
      </trkpt>
      <trkpt lat="44.74333" lon="3.2475">
        <ele>1058.55</ele>
        <time>2016-02-21T14:48:41Z</time>
      </trkpt>
      <trkpt lat="44.74337" lon="3.24749">
        <ele>1058.55</ele>
        <time>2016-02-21T14:48:42Z</time>
      </trkpt>
      <trkpt lat="44.74341" lon="3.2475">
        <ele>1059.03</ele>
        <time>2016-02-21T14:48:43Z</time>
      </trkpt>
      <trkpt lat="44.74345" lon="3.24751">
        <ele>1059.03</ele>
        <time>2016-02-21T14:48:44Z</time>
      </trkpt>
      <trkpt lat="44.74349" lon="3.24753">
        <ele>1059.03</ele>
        <time>2016-02-21T14:48:45Z</time>
      </trkpt>
      <trkpt lat="44.74352" lon="3.24755">
        <ele>1059.03</ele>
        <time>2016-02-21T14:48:46Z</time>
      </trkpt>
      <trkpt lat="44.74385" lon="3.24787">
        <ele>1059.99</ele>
        <time>2016-02-21T14:49:00Z</time>
      </trkpt>
      <trkpt lat="44.74392" lon="3.2479">
        <ele>1059.99</ele>
        <time>2016-02-21T14:49:04Z</time>
      </trkpt>
      <trkpt lat="44.74393" lon="3.24792">
        <ele>1059.99</ele>
        <time>2016-02-21T14:49:05Z</time>
      </trkpt>
      <trkpt lat="44.74395" lon="3.24793">
        <ele>1059.99</ele>
        <time>2016-02-21T14:49:06Z</time>
      </trkpt>
      <trkpt lat="44.74423" lon="3.24819">
        <ele>1059.51</ele>
        <time>2016-02-21T14:49:17Z</time>
      </trkpt>
      <trkpt lat="44.74431" lon="3.24827">
        <ele>1059.99</ele>
        <time>2016-02-21T14:49:19Z</time>
      </trkpt>
      <trkpt lat="44.74436" lon="3.2483">
        <ele>1059.99</ele>
        <time>2016-02-21T14:49:20Z</time>
      </trkpt>
      <trkpt lat="44.7444" lon="3.24833">
        <ele>1060.47</ele>
        <time>2016-02-21T14:49:21Z</time>
      </trkpt>
      <trkpt lat="44.74445" lon="3.24835">
        <ele>1060.47</ele>
        <time>2016-02-21T14:49:22Z</time>
      </trkpt>
      <trkpt lat="44.7445" lon="3.24837">
        <ele>1060.47</ele>
        <time>2016-02-21T14:49:23Z</time>
      </trkpt>
      <trkpt lat="44.74455" lon="3.24838">
        <ele>1060.47</ele>
        <time>2016-02-21T14:49:24Z</time>
      </trkpt>
      <trkpt lat="44.74521" lon="3.24847">
        <ele>1061.43</ele>
        <time>2016-02-21T14:49:39Z</time>
      </trkpt>
      <trkpt lat="44.74582" lon="3.24849">
        <ele>1061.91</ele>
        <time>2016-02-21T14:49:54Z</time>
      </trkpt>
      <trkpt lat="44.74611" lon="3.24844">
        <ele>1062.87</ele>
        <time>2016-02-21T14:50:01Z</time>
      </trkpt>
      <trkpt lat="44.7466" lon="3.24825">
        <ele>1063.36</ele>
        <time>2016-02-21T14:50:13Z</time>
      </trkpt>
      <trkpt lat="44.74716" lon="3.24772">
        <ele>1063.36</ele>
        <time>2016-02-21T14:50:28Z</time>
      </trkpt>
      <trkpt lat="44.7475" lon="3.24736">
        <ele>1063.36</ele>
        <time>2016-02-21T14:50:38Z</time>
      </trkpt>
      <trkpt lat="44.74753" lon="3.24732">
        <ele>1063.36</ele>
        <time>2016-02-21T14:50:39Z</time>
      </trkpt>
      <trkpt lat="44.74762" lon="3.24719">
        <ele>1063.36</ele>
        <time>2016-02-21T14:50:42Z</time>
      </trkpt>
      <trkpt lat="44.74773" lon="3.247">
        <ele>1063.36</ele>
        <time>2016-02-21T14:50:46Z</time>
      </trkpt>
      <trkpt lat="44.74784" lon="3.24675">
        <ele>1064.32</ele>
        <time>2016-02-21T14:50:52Z</time>
      </trkpt>
      <trkpt lat="44.74783" lon="3.24674">
        <ele>1064.32</ele>
        <time>2016-02-21T14:50:53Z</time>
      </trkpt>
      <trkpt lat="44.74776" lon="3.24685">
        <ele>1063.84</ele>
        <time>2016-02-21T14:50:58Z</time>
      </trkpt>
      <trkpt lat="44.74758" lon="3.24716">
        <ele>1063.36</ele>
        <time>2016-02-21T14:51:06Z</time>
      </trkpt>
      <trkpt lat="44.74755" lon="3.2472">
        <ele>1062.87</ele>
        <time>2016-02-21T14:51:07Z</time>
      </trkpt>
      <trkpt lat="44.74741" lon="3.24741">
        <ele>1062.87</ele>
        <time>2016-02-21T14:51:12Z</time>
      </trkpt>
      <trkpt lat="44.74738" lon="3.24745">
        <ele>1062.87</ele>
        <time>2016-02-21T14:51:13Z</time>
      </trkpt>
      <trkpt lat="44.74712" lon="3.24773">
        <ele>1063.36</ele>
        <time>2016-02-21T14:51:21Z</time>
      </trkpt>
      <trkpt lat="44.74663" lon="3.24819">
        <ele>1062.87</ele>
        <time>2016-02-21T14:51:34Z</time>
      </trkpt>
      <trkpt lat="44.74638" lon="3.24837">
        <ele>1062.87</ele>
        <time>2016-02-21T14:51:40Z</time>
      </trkpt>
      <trkpt lat="44.74561" lon="3.24848">
        <ele>1060.95</ele>
        <time>2016-02-21T14:51:56Z</time>
      </trkpt>
      <trkpt lat="44.74538" lon="3.24846">
        <ele>1060.95</ele>
        <time>2016-02-21T14:52:01Z</time>
      </trkpt>
      <trkpt lat="44.74534" lon="3.24846">
        <ele>1060.95</ele>
        <time>2016-02-21T14:52:02Z</time>
      </trkpt>
      <trkpt lat="44.74529" lon="3.24846">
        <ele>1060.47</ele>
        <time>2016-02-21T14:52:03Z</time>
      </trkpt>
      <trkpt lat="44.7452" lon="3.24846">
        <ele>1060.95</ele>
        <time>2016-02-21T14:52:05Z</time>
      </trkpt>
      <trkpt lat="44.74515" lon="3.24844">
        <ele>1060.95</ele>
        <time>2016-02-21T14:52:06Z</time>
      </trkpt>
      <trkpt lat="44.74511" lon="3.24842">
        <ele>1060.95</ele>
        <time>2016-02-21T14:52:07Z</time>
      </trkpt>
      <trkpt lat="44.74507" lon="3.24839">
        <ele>1060.95</ele>
        <time>2016-02-21T14:52:08Z</time>
      </trkpt>
      <trkpt lat="44.74504" lon="3.24836">
        <ele>1061.43</ele>
        <time>2016-02-21T14:52:09Z</time>
      </trkpt>
      <trkpt lat="44.745" lon="3.24835">
        <ele>1061.43</ele>
        <time>2016-02-21T14:52:10Z</time>
      </trkpt>
      <trkpt lat="44.74498" lon="3.24835">
        <ele>1061.43</ele>
        <time>2016-02-21T14:52:11Z</time>
      </trkpt>
      <trkpt lat="44.74496" lon="3.24836">
        <ele>1061.91</ele>
        <time>2016-02-21T14:52:12Z</time>
      </trkpt>
      <trkpt lat="44.74495" lon="3.24839">
        <ele>1062.39</ele>
        <time>2016-02-21T14:52:13Z</time>
      </trkpt>
      <trkpt lat="44.74494" lon="3.24843">
        <ele>1061.91</ele>
        <time>2016-02-21T14:52:14Z</time>
      </trkpt>
      <trkpt lat="44.74496" lon="3.24845">
        <ele>1061.43</ele>
        <time>2016-02-21T14:52:15Z</time>
      </trkpt>
      <trkpt lat="44.74499" lon="3.24846">
        <ele>1061.43</ele>
        <time>2016-02-21T14:52:16Z</time>
      </trkpt>
      <trkpt lat="44.74501" lon="3.24846">
        <ele>1061.43</ele>
        <time>2016-02-21T14:52:17Z</time>
      </trkpt>
      <trkpt lat="44.74503" lon="3.24845">
        <ele>1057.11</ele>
        <time>2016-02-21T14:52:25Z</time>
      </trkpt>
      <trkpt lat="44.74503" lon="3.24845">
        <ele>1062.39</ele>
        <time>2016-02-21T14:52:26Z</time>
      </trkpt>
      <trkpt lat="44.74503" lon="3.24845">
        <ele>1065.28</ele>
        <time>2016-02-21T14:52:27Z</time>
      </trkpt>
      <trkpt lat="44.74503" lon="3.24845">
        <ele>1062.39</ele>
        <time>2016-02-21T14:52:28Z</time>
      </trkpt>
      <trkpt lat="44.74503" lon="3.24845">
        <ele>1063.84</ele>
        <time>2016-02-21T14:52:53Z</time>
      </trkpt>
      <trkpt lat="44.74503" lon="3.24845">
        <ele>1060.47</ele>
        <time>2016-02-21T14:52:54Z</time>
      </trkpt>
      <trkpt lat="44.74505" lon="3.24846">
        <ele>1061.91</ele>
        <time>2016-02-21T14:53:13Z</time>
      </trkpt>
      <trkpt lat="44.74508" lon="3.24846">
        <ele>1061.91</ele>
        <time>2016-02-21T14:53:14Z</time>
      </trkpt>
      <trkpt lat="44.74536" lon="3.24858">
        <ele>1061.91</ele>
        <time>2016-02-21T14:53:23Z</time>
      </trkpt>
      <trkpt lat="44.74539" lon="3.24861">
        <ele>1060.95</ele>
        <time>2016-02-21T14:53:24Z</time>
      </trkpt>
      <trkpt lat="44.74543" lon="3.24864">
        <ele>1060.47</ele>
        <time>2016-02-21T14:53:25Z</time>
      </trkpt>
      <trkpt lat="44.74547" lon="3.24867">
        <ele>1059.51</ele>
        <time>2016-02-21T14:53:26Z</time>
      </trkpt>
      <trkpt lat="44.74564" lon="3.24878">
        <ele>1056.15</ele>
        <time>2016-02-21T14:53:30Z</time>
      </trkpt>
      <trkpt lat="44.74578" lon="3.2489">
        <ele>1052.78</ele>
        <time>2016-02-21T14:53:33Z</time>
      </trkpt>
      <trkpt lat="44.74582" lon="3.24896">
        <ele>1051.82</ele>
        <time>2016-02-21T14:53:34Z</time>
      </trkpt>
      <trkpt lat="44.7459" lon="3.24908">
        <ele>1049.9</ele>
        <time>2016-02-21T14:53:36Z</time>
      </trkpt>
      <trkpt lat="44.74615" lon="3.24931">
        <ele>1046.53</ele>
        <time>2016-02-21T14:53:41Z</time>
      </trkpt>
      <trkpt lat="44.74635" lon="3.24945">
        <ele>1043.65</ele>
        <time>2016-02-21T14:53:44Z</time>
      </trkpt>
      <trkpt lat="44.74671" lon="3.24981">
        <ele>1039.32</ele>
        <time>2016-02-21T14:53:50Z</time>
      </trkpt>
      <trkpt lat="44.74682" lon="3.24993">
        <ele>1039.32</ele>
        <time>2016-02-21T14:53:52Z</time>
      </trkpt>
      <trkpt lat="44.74691" lon="3.25026">
        <ele>1035.48</ele>
        <time>2016-02-21T14:53:57Z</time>
      </trkpt>
      <trkpt lat="44.74695" lon="3.25051">
        <ele>1032.59</ele>
        <time>2016-02-21T14:54:01Z</time>
      </trkpt>
      <trkpt lat="44.74677" lon="3.25071">
        <ele>1033.07</ele>
        <time>2016-02-21T14:54:11Z</time>
      </trkpt>
      <trkpt lat="44.74674" lon="3.25073">
        <ele>1033.55</ele>
        <time>2016-02-21T14:54:21Z</time>
      </trkpt>
      <trkpt lat="44.74672" lon="3.25074">
        <ele>1034.04</ele>
        <time>2016-02-21T14:54:23Z</time>
      </trkpt>
      <trkpt lat="44.74673" lon="3.25074">
        <ele>1033.07</ele>
        <time>2016-02-21T14:54:37Z</time>
      </trkpt>
      <trkpt lat="44.74674" lon="3.25076">
        <ele>1033.07</ele>
        <time>2016-02-21T14:54:42Z</time>
      </trkpt>
      <trkpt lat="44.74679" lon="3.25094">
        <ele>1030.67</ele>
        <time>2016-02-21T14:54:48Z</time>
      </trkpt>
      <trkpt lat="44.74675" lon="3.25113">
        <ele>1027.31</ele>
        <time>2016-02-21T14:54:52Z</time>
      </trkpt>
      <trkpt lat="44.74673" lon="3.25118">
        <ele>1026.34</ele>
        <time>2016-02-21T14:54:53Z</time>
      </trkpt>
      <trkpt lat="44.74667" lon="3.25129">
        <ele>1024.9</ele>
        <time>2016-02-21T14:54:55Z</time>
      </trkpt>
      <trkpt lat="44.74665" lon="3.25135">
        <ele>1024.42</ele>
        <time>2016-02-21T14:54:56Z</time>
      </trkpt>
      <trkpt lat="44.74663" lon="3.2514">
        <ele>1023.94</ele>
        <time>2016-02-21T14:54:57Z</time>
      </trkpt>
      <trkpt lat="44.7466" lon="3.25145">
        <ele>1023.94</ele>
        <time>2016-02-21T14:54:58Z</time>
      </trkpt>
      <trkpt lat="44.74658" lon="3.25149">
        <ele>1023.46</ele>
        <time>2016-02-21T14:54:59Z</time>
      </trkpt>
      <trkpt lat="44.74656" lon="3.25153">
        <ele>1023.46</ele>
        <time>2016-02-21T14:55:00Z</time>
      </trkpt>
      <trkpt lat="44.74655" lon="3.25156">
        <ele>1022.98</ele>
        <time>2016-02-21T14:55:01Z</time>
      </trkpt>
      <trkpt lat="44.74655" lon="3.25159">
        <ele>1023.46</ele>
        <time>2016-02-21T14:55:02Z</time>
      </trkpt>
      <trkpt lat="44.74658" lon="3.25162">
        <ele>1022.5</ele>
        <time>2016-02-21T14:55:05Z</time>
      </trkpt>
      <trkpt lat="44.74698" lon="3.2514">
        <ele>1020.58</ele>
        <time>2016-02-21T14:55:18Z</time>
      </trkpt>
      <trkpt lat="44.74702" lon="3.25138">
        <ele>1020.58</ele>
        <time>2016-02-21T14:55:19Z</time>
      </trkpt>
      <trkpt lat="44.74706" lon="3.25137">
        <ele>1020.1</ele>
        <time>2016-02-21T14:55:20Z</time>
      </trkpt>
      <trkpt lat="44.7471" lon="3.25134">
        <ele>1020.1</ele>
        <time>2016-02-21T14:55:21Z</time>
      </trkpt>
      <trkpt lat="44.74714" lon="3.25132">
        <ele>1020.1</ele>
        <time>2016-02-21T14:55:22Z</time>
      </trkpt>
      <trkpt lat="44.74759" lon="3.25107">
        <ele>1016.73</ele>
        <time>2016-02-21T14:55:31Z</time>
      </trkpt>
      <trkpt lat="44.74785" lon="3.25097">
        <ele>1013.85</ele>
        <time>2016-02-21T14:55:35Z</time>
      </trkpt>
      <trkpt lat="44.74812" lon="3.25092">
        <ele>1010.96</ele>
        <time>2016-02-21T14:55:40Z</time>
      </trkpt>
      <trkpt lat="44.74817" lon="3.25092">
        <ele>1010</ele>
        <time>2016-02-21T14:55:41Z</time>
      </trkpt>
      <trkpt lat="44.74821" lon="3.25093">
        <ele>1009.52</ele>
        <time>2016-02-21T14:55:42Z</time>
      </trkpt>
      <trkpt lat="44.74855" lon="3.25092">
        <ele>1010.48</ele>
        <time>2016-02-21T14:55:53Z</time>
      </trkpt>
      <trkpt lat="44.74897" lon="3.25086">
        <ele>1010</ele>
        <time>2016-02-21T14:56:05Z</time>
      </trkpt>
      <trkpt lat="44.749" lon="3.25084">
        <ele>1010.48</ele>
        <time>2016-02-21T14:56:07Z</time>
      </trkpt>
      <trkpt lat="44.74904" lon="3.25083">
        <ele>1008.08</ele>
        <time>2016-02-21T14:56:19Z</time>
      </trkpt>
      <trkpt lat="44.74904" lon="3.25083">
        <ele>1012.89</ele>
        <time>2016-02-21T14:56:20Z</time>
      </trkpt>
      <trkpt lat="44.74904" lon="3.25083">
        <ele>1008.08</ele>
        <time>2016-02-21T14:56:25Z</time>
      </trkpt>
      <trkpt lat="44.74904" lon="3.25083">
        <ele>1013.37</ele>
        <time>2016-02-21T14:56:26Z</time>
      </trkpt>
      <trkpt lat="44.74904" lon="3.25083">
        <ele>1010</ele>
        <time>2016-02-21T14:56:28Z</time>
      </trkpt>
      <trkpt lat="44.74904" lon="3.25083">
        <ele>1010</ele>
        <time>2016-02-21T14:56:32Z</time>
      </trkpt>
      <trkpt lat="44.74904" lon="3.25083">
        <ele>1013.85</ele>
        <time>2016-02-21T14:56:35Z</time>
      </trkpt>
      <trkpt lat="44.74904" lon="3.25083">
        <ele>1008.56</ele>
        <time>2016-02-21T14:56:37Z</time>
      </trkpt>
      <trkpt lat="44.74904" lon="3.25083">
        <ele>1012.41</ele>
        <time>2016-02-21T14:56:38Z</time>
      </trkpt>
      <trkpt lat="44.74902" lon="3.25084">
        <ele>1010.96</ele>
        <time>2016-02-21T14:56:45Z</time>
      </trkpt>
      <trkpt lat="44.74872" lon="3.25088">
        <ele>1009.04</ele>
        <time>2016-02-21T14:56:54Z</time>
      </trkpt>
      <trkpt lat="44.74824" lon="3.25092">
        <ele>1010</ele>
        <time>2016-02-21T14:57:09Z</time>
      </trkpt>
      <trkpt lat="44.74799" lon="3.25091">
        <ele>1012.41</ele>
        <time>2016-02-21T14:57:19Z</time>
      </trkpt>
      <trkpt lat="44.74778" lon="3.25097">
        <ele>1014.81</ele>
        <time>2016-02-21T14:57:30Z</time>
      </trkpt>
      <trkpt lat="44.74751" lon="3.2511">
        <ele>1017.69</ele>
        <time>2016-02-21T14:57:44Z</time>
      </trkpt>
      <trkpt lat="44.74723" lon="3.25124">
        <ele>1019.62</ele>
        <time>2016-02-21T14:57:58Z</time>
      </trkpt>
      <trkpt lat="44.74688" lon="3.25141">
        <ele>1021.54</ele>
        <time>2016-02-21T14:58:14Z</time>
      </trkpt>
      <trkpt lat="44.74658" lon="3.25159">
        <ele>1024.9</ele>
        <time>2016-02-21T14:58:29Z</time>
      </trkpt>
      <trkpt lat="44.74621" lon="3.25172">
        <ele>1024.9</ele>
        <time>2016-02-21T14:58:46Z</time>
      </trkpt>
      <trkpt lat="44.74591" lon="3.25193">
        <ele>1024.9</ele>
        <time>2016-02-21T14:58:59Z</time>
      </trkpt>
      <trkpt lat="44.74582" lon="3.2523">
        <ele>1025.38</ele>
        <time>2016-02-21T14:59:10Z</time>
      </trkpt>
      <trkpt lat="44.74554" lon="3.2529">
        <ele>1025.38</ele>
        <time>2016-02-21T14:59:30Z</time>
      </trkpt>
      <trkpt lat="44.74544" lon="3.25304">
        <ele>1025.86</ele>
        <time>2016-02-21T14:59:36Z</time>
      </trkpt>
      <trkpt lat="44.74543" lon="3.25307">
        <ele>1025.86</ele>
        <time>2016-02-21T14:59:37Z</time>
      </trkpt>
      <trkpt lat="44.74543" lon="3.25309">
        <ele>1025.86</ele>
        <time>2016-02-21T14:59:38Z</time>
      </trkpt>
      <trkpt lat="44.74542" lon="3.25313">
        <ele>1023.94</ele>
        <time>2016-02-21T14:59:48Z</time>
      </trkpt>
      <trkpt lat="44.74542" lon="3.25313">
        <ele>1028.75</ele>
        <time>2016-02-21T14:59:49Z</time>
      </trkpt>
      <trkpt lat="44.7454" lon="3.25313">
        <ele>1026.34</ele>
        <time>2016-02-21T14:59:58Z</time>
      </trkpt>
      <trkpt lat="44.74538" lon="3.25314">
        <ele>1026.34</ele>
        <time>2016-02-21T14:59:59Z</time>
      </trkpt>
      <trkpt lat="44.74537" lon="3.25315">
        <ele>1026.34</ele>
        <time>2016-02-21T15:00:00Z</time>
      </trkpt>
      <trkpt lat="44.74535" lon="3.25316">
        <ele>1026.34</ele>
        <time>2016-02-21T15:00:01Z</time>
      </trkpt>
      <trkpt lat="44.74533" lon="3.25318">
        <ele>1026.34</ele>
        <time>2016-02-21T15:00:02Z</time>
      </trkpt>
      <trkpt lat="44.74531" lon="3.25318">
        <ele>1026.34</ele>
        <time>2016-02-21T15:00:03Z</time>
      </trkpt>
      <trkpt lat="44.74529" lon="3.25319">
        <ele>1026.83</ele>
        <time>2016-02-21T15:00:04Z</time>
      </trkpt>
      <trkpt lat="44.74502" lon="3.25332">
        <ele>1027.79</ele>
        <time>2016-02-21T15:00:17Z</time>
      </trkpt>
      <trkpt lat="44.74484" lon="3.25346">
        <ele>1028.27</ele>
        <time>2016-02-21T15:00:28Z</time>
      </trkpt>
      <trkpt lat="44.74466" lon="3.25367">
        <ele>1030.19</ele>
        <time>2016-02-21T15:00:41Z</time>
      </trkpt>
      <trkpt lat="44.74442" lon="3.25366">
        <ele>1032.11</ele>
        <time>2016-02-21T15:00:53Z</time>
      </trkpt>
      <trkpt lat="44.7444" lon="3.25366">
        <ele>1032.59</ele>
        <time>2016-02-21T15:00:54Z</time>
      </trkpt>
      <trkpt lat="44.74439" lon="3.25364">
        <ele>1032.59</ele>
        <time>2016-02-21T15:00:55Z</time>
      </trkpt>
      <trkpt lat="44.74437" lon="3.25362">
        <ele>1033.07</ele>
        <time>2016-02-21T15:00:56Z</time>
      </trkpt>
      <trkpt lat="44.74435" lon="3.25362">
        <ele>1033.07</ele>
        <time>2016-02-21T15:00:57Z</time>
      </trkpt>
      <trkpt lat="44.74433" lon="3.25362">
        <ele>1033.55</ele>
        <time>2016-02-21T15:00:58Z</time>
      </trkpt>
      <trkpt lat="44.74431" lon="3.25364">
        <ele>1033.55</ele>
        <time>2016-02-21T15:00:59Z</time>
      </trkpt>
      <trkpt lat="44.74429" lon="3.25365">
        <ele>1033.55</ele>
        <time>2016-02-21T15:01:00Z</time>
      </trkpt>
      <trkpt lat="44.74428" lon="3.25366">
        <ele>1034.04</ele>
        <time>2016-02-21T15:01:01Z</time>
      </trkpt>
      <trkpt lat="44.74427" lon="3.25368">
        <ele>1034.04</ele>
        <time>2016-02-21T15:01:02Z</time>
      </trkpt>
      <trkpt lat="44.74426" lon="3.2537">
        <ele>1034.52</ele>
        <time>2016-02-21T15:01:03Z</time>
      </trkpt>
      <trkpt lat="44.74426" lon="3.25372">
        <ele>1034.52</ele>
        <time>2016-02-21T15:01:04Z</time>
      </trkpt>
      <trkpt lat="44.74426" lon="3.25375">
        <ele>1035</ele>
        <time>2016-02-21T15:01:05Z</time>
      </trkpt>
      <trkpt lat="44.74427" lon="3.25376">
        <ele>1035</ele>
        <time>2016-02-21T15:01:06Z</time>
      </trkpt>
      <trkpt lat="44.74428" lon="3.25378">
        <ele>1035</ele>
        <time>2016-02-21T15:01:07Z</time>
      </trkpt>
      <trkpt lat="44.7443" lon="3.2538">
        <ele>1035.48</ele>
        <time>2016-02-21T15:01:08Z</time>
      </trkpt>
      <trkpt lat="44.74431" lon="3.25382">
        <ele>1035.48</ele>
        <time>2016-02-21T15:01:09Z</time>
      </trkpt>
      <trkpt lat="44.74433" lon="3.25386">
        <ele>1035.96</ele>
        <time>2016-02-21T15:01:13Z</time>
      </trkpt>
      <trkpt lat="44.74434" lon="3.25388">
        <ele>1036.44</ele>
        <time>2016-02-21T15:01:14Z</time>
      </trkpt>
      <trkpt lat="44.74435" lon="3.2539">
        <ele>1036.44</ele>
        <time>2016-02-21T15:01:15Z</time>
      </trkpt>
      <trkpt lat="44.74436" lon="3.25392">
        <ele>1036.44</ele>
        <time>2016-02-21T15:01:16Z</time>
      </trkpt>
      <trkpt lat="44.74436" lon="3.25395">
        <ele>1036.92</ele>
        <time>2016-02-21T15:01:17Z</time>
      </trkpt>
      <trkpt lat="44.74436" lon="3.25397">
        <ele>1037.4</ele>
        <time>2016-02-21T15:01:18Z</time>
      </trkpt>
      <trkpt lat="44.74437" lon="3.25402">
        <ele>1037.88</ele>
        <time>2016-02-21T15:01:20Z</time>
      </trkpt>
      <trkpt lat="44.74437" lon="3.25404">
        <ele>1037.88</ele>
        <time>2016-02-21T15:01:21Z</time>
      </trkpt>
      <trkpt lat="44.74438" lon="3.25406">
        <ele>1038.36</ele>
        <time>2016-02-21T15:01:22Z</time>
      </trkpt>
      <trkpt lat="44.74439" lon="3.25408">
        <ele>1038.84</ele>
        <time>2016-02-21T15:01:23Z</time>
      </trkpt>
      <trkpt lat="44.74439" lon="3.25411">
        <ele>1038.84</ele>
        <time>2016-02-21T15:01:24Z</time>
      </trkpt>
      <trkpt lat="44.7444" lon="3.25413">
        <ele>1038.84</ele>
        <time>2016-02-21T15:01:25Z</time>
      </trkpt>
      <trkpt lat="44.74441" lon="3.25416">
        <ele>1039.32</ele>
        <time>2016-02-21T15:01:26Z</time>
      </trkpt>
      <trkpt lat="44.74442" lon="3.25418">
        <ele>1039.8</ele>
        <time>2016-02-21T15:01:27Z</time>
      </trkpt>
      <trkpt lat="44.74443" lon="3.2542">
        <ele>1039.8</ele>
        <time>2016-02-21T15:01:28Z</time>
      </trkpt>
      <trkpt lat="44.74444" lon="3.25422">
        <ele>1040.28</ele>
        <time>2016-02-21T15:01:29Z</time>
      </trkpt>
      <trkpt lat="44.74443" lon="3.25425">
        <ele>1040.28</ele>
        <time>2016-02-21T15:01:30Z</time>
      </trkpt>
      <trkpt lat="44.74443" lon="3.25427">
        <ele>1040.28</ele>
        <time>2016-02-21T15:01:31Z</time>
      </trkpt>
      <trkpt lat="44.74442" lon="3.2543">
        <ele>1040.76</ele>
        <time>2016-02-21T15:01:32Z</time>
      </trkpt>
      <trkpt lat="44.74441" lon="3.25432">
        <ele>1040.76</ele>
        <time>2016-02-21T15:01:33Z</time>
      </trkpt>
      <trkpt lat="44.74441" lon="3.25435">
        <ele>1040.76</ele>
        <time>2016-02-21T15:01:34Z</time>
      </trkpt>
      <trkpt lat="44.7444" lon="3.25437">
        <ele>1040.76</ele>
        <time>2016-02-21T15:01:35Z</time>
      </trkpt>
      <trkpt lat="44.74439" lon="3.2544">
        <ele>1041.25</ele>
        <time>2016-02-21T15:01:36Z</time>
      </trkpt>
      <trkpt lat="44.74438" lon="3.25442">
        <ele>1041.25</ele>
        <time>2016-02-21T15:01:37Z</time>
      </trkpt>
      <trkpt lat="44.74437" lon="3.25444">
        <ele>1041.73</ele>
        <time>2016-02-21T15:01:38Z</time>
      </trkpt>
      <trkpt lat="44.74437" lon="3.25446">
        <ele>1041.73</ele>
        <time>2016-02-21T15:01:39Z</time>
      </trkpt>
      <trkpt lat="44.74435" lon="3.25448">
        <ele>1041.73</ele>
        <time>2016-02-21T15:01:40Z</time>
      </trkpt>
      <trkpt lat="44.7442" lon="3.25468">
        <ele>1043.65</ele>
        <time>2016-02-21T15:01:51Z</time>
      </trkpt>
      <trkpt lat="44.74419" lon="3.2547">
        <ele>1044.13</ele>
        <time>2016-02-21T15:01:52Z</time>
      </trkpt>
      <trkpt lat="44.74418" lon="3.25472">
        <ele>1044.13</ele>
        <time>2016-02-21T15:01:53Z</time>
      </trkpt>
      <trkpt lat="44.74417" lon="3.25474">
        <ele>1044.61</ele>
        <time>2016-02-21T15:01:54Z</time>
      </trkpt>
      <trkpt lat="44.74416" lon="3.25476">
        <ele>1044.61</ele>
        <time>2016-02-21T15:01:55Z</time>
      </trkpt>
      <trkpt lat="44.74403" lon="3.255">
        <ele>1047.49</ele>
        <time>2016-02-21T15:02:09Z</time>
      </trkpt>
      <trkpt lat="44.74395" lon="3.25505">
        <ele>1048.94</ele>
        <time>2016-02-21T15:02:18Z</time>
      </trkpt>
      <trkpt lat="44.74383" lon="3.25515">
        <ele>1051.34</ele>
        <time>2016-02-21T15:02:30Z</time>
      </trkpt>
      <trkpt lat="44.74374" lon="3.25527">
        <ele>1052.78</ele>
        <time>2016-02-21T15:02:39Z</time>
      </trkpt>
      <trkpt lat="44.74373" lon="3.25529">
        <ele>1052.78</ele>
        <time>2016-02-21T15:02:40Z</time>
      </trkpt>
      <trkpt lat="44.74372" lon="3.2553">
        <ele>1052.78</ele>
        <time>2016-02-21T15:02:41Z</time>
      </trkpt>
      <trkpt lat="44.7437" lon="3.25532">
        <ele>1053.26</ele>
        <time>2016-02-21T15:02:42Z</time>
      </trkpt>
      <trkpt lat="44.74369" lon="3.25533">
        <ele>1053.74</ele>
        <time>2016-02-21T15:02:43Z</time>
      </trkpt>
      <trkpt lat="44.74368" lon="3.25534">
        <ele>1053.74</ele>
        <time>2016-02-21T15:02:44Z</time>
      </trkpt>
      <trkpt lat="44.74367" lon="3.25535">
        <ele>1053.74</ele>
        <time>2016-02-21T15:02:45Z</time>
      </trkpt>
      <trkpt lat="44.74364" lon="3.25549">
        <ele>1054.7</ele>
        <time>2016-02-21T15:02:52Z</time>
      </trkpt>
      <trkpt lat="44.74363" lon="3.25551">
        <ele>1055.18</ele>
        <time>2016-02-21T15:02:53Z</time>
      </trkpt>
      <trkpt lat="44.74363" lon="3.25552">
        <ele>1055.18</ele>
        <time>2016-02-21T15:02:54Z</time>
      </trkpt>
      <trkpt lat="44.74362" lon="3.25554">
        <ele>1055.67</ele>
        <time>2016-02-21T15:02:55Z</time>
      </trkpt>
      <trkpt lat="44.74362" lon="3.25555">
        <ele>1055.67</ele>
        <time>2016-02-21T15:02:56Z</time>
      </trkpt>
      <trkpt lat="44.74361" lon="3.25557">
        <ele>1056.15</ele>
        <time>2016-02-21T15:02:57Z</time>
      </trkpt>
      <trkpt lat="44.74361" lon="3.25559">
        <ele>1056.15</ele>
        <time>2016-02-21T15:02:58Z</time>
      </trkpt>
      <trkpt lat="44.74361" lon="3.25561">
        <ele>1056.63</ele>
        <time>2016-02-21T15:02:59Z</time>
      </trkpt>
      <trkpt lat="44.7436" lon="3.25562">
        <ele>1056.63</ele>
        <time>2016-02-21T15:03:00Z</time>
      </trkpt>
      <trkpt lat="44.7436" lon="3.25564">
        <ele>1056.63</ele>
        <time>2016-02-21T15:03:01Z</time>
      </trkpt>
      <trkpt lat="44.7436" lon="3.25566">
        <ele>1057.11</ele>
        <time>2016-02-21T15:03:02Z</time>
      </trkpt>
      <trkpt lat="44.7436" lon="3.25568">
        <ele>1057.11</ele>
        <time>2016-02-21T15:03:03Z</time>
      </trkpt>
      <trkpt lat="44.74348" lon="3.25587">
        <ele>1059.51</ele>
        <time>2016-02-21T15:03:16Z</time>
      </trkpt>
      <trkpt lat="44.74347" lon="3.25588">
        <ele>1059.99</ele>
        <time>2016-02-21T15:03:17Z</time>
      </trkpt>
      <trkpt lat="44.74346" lon="3.25589">
        <ele>1059.99</ele>
        <time>2016-02-21T15:03:18Z</time>
      </trkpt>
      <trkpt lat="44.74345" lon="3.25591">
        <ele>1060.47</ele>
        <time>2016-02-21T15:03:19Z</time>
      </trkpt>
      <trkpt lat="44.74345" lon="3.25592">
        <ele>1060.47</ele>
        <time>2016-02-21T15:03:20Z</time>
      </trkpt>
      <trkpt lat="44.74336" lon="3.25613">
        <ele>1063.36</ele>
        <time>2016-02-21T15:03:34Z</time>
      </trkpt>
      <trkpt lat="44.74332" lon="3.25616">
        <ele>1063.36</ele>
        <time>2016-02-21T15:03:47Z</time>
      </trkpt>
      <trkpt lat="44.74316" lon="3.25624">
        <ele>1064.32</ele>
        <time>2016-02-21T15:03:57Z</time>
      </trkpt>
      <trkpt lat="44.74292" lon="3.25632">
        <ele>1065.28</ele>
        <time>2016-02-21T15:04:10Z</time>
      </trkpt>
      <trkpt lat="44.74289" lon="3.25632">
        <ele>1065.28</ele>
        <time>2016-02-21T15:04:12Z</time>
      </trkpt>
      <trkpt lat="44.74287" lon="3.25631">
        <ele>1065.28</ele>
        <time>2016-02-21T15:04:13Z</time>
      </trkpt>
      <trkpt lat="44.74286" lon="3.2563">
        <ele>1065.28</ele>
        <time>2016-02-21T15:04:14Z</time>
      </trkpt>
      <trkpt lat="44.74284" lon="3.25629">
        <ele>1065.28</ele>
        <time>2016-02-21T15:04:15Z</time>
      </trkpt>
      <trkpt lat="44.74283" lon="3.25628">
        <ele>1065.28</ele>
        <time>2016-02-21T15:04:16Z</time>
      </trkpt>
      <trkpt lat="44.74281" lon="3.25626">
        <ele>1065.28</ele>
        <time>2016-02-21T15:04:17Z</time>
      </trkpt>
      <trkpt lat="44.74279" lon="3.25624">
        <ele>1065.28</ele>
        <time>2016-02-21T15:04:18Z</time>
      </trkpt>
      <trkpt lat="44.74277" lon="3.25622">
        <ele>1065.76</ele>
        <time>2016-02-21T15:04:19Z</time>
      </trkpt>
      <trkpt lat="44.74275" lon="3.25621">
        <ele>1065.76</ele>
        <time>2016-02-21T15:04:20Z</time>
      </trkpt>
      <trkpt lat="44.74272" lon="3.25619">
        <ele>1065.76</ele>
        <time>2016-02-21T15:04:21Z</time>
      </trkpt>
      <trkpt lat="44.74224" lon="3.25609">
        <ele>1064.8</ele>
        <time>2016-02-21T15:04:36Z</time>
      </trkpt>
      <trkpt lat="44.74179" lon="3.25605">
        <ele>1064.32</ele>
        <time>2016-02-21T15:04:48Z</time>
      </trkpt>
      <trkpt lat="44.74122" lon="3.25599">
        <ele>1065.28</ele>
        <time>2016-02-21T15:05:05Z</time>
      </trkpt>
      <trkpt lat="44.74074" lon="3.2558">
        <ele>1065.28</ele>
        <time>2016-02-21T15:05:20Z</time>
      </trkpt>
      <trkpt lat="44.74031" lon="3.25562">
        <ele>1066.72</ele>
        <time>2016-02-21T15:05:34Z</time>
      </trkpt>
      <trkpt lat="44.73991" lon="3.2554">
        <ele>1067.68</ele>
        <time>2016-02-21T15:05:49Z</time>
      </trkpt>
      <trkpt lat="44.73983" lon="3.25533">
        <ele>1067.68</ele>
        <time>2016-02-21T15:05:52Z</time>
      </trkpt>
      <trkpt lat="44.73949" lon="3.25509">
        <ele>1068.16</ele>
        <time>2016-02-21T15:06:05Z</time>
      </trkpt>
      <trkpt lat="44.73933" lon="3.25484">
        <ele>1067.68</ele>
        <time>2016-02-21T15:06:16Z</time>
      </trkpt>
      <trkpt lat="44.73926" lon="3.25456">
        <ele>1067.68</ele>
        <time>2016-02-21T15:06:27Z</time>
      </trkpt>
      <trkpt lat="44.73903" lon="3.25397">
        <ele>1068.16</ele>
        <time>2016-02-21T15:06:42Z</time>
      </trkpt>
      <trkpt lat="44.73872" lon="3.25334">
        <ele>1069.12</ele>
        <time>2016-02-21T15:06:59Z</time>
      </trkpt>
      <trkpt lat="44.73847" lon="3.25267">
        <ele>1070.57</ele>
        <time>2016-02-21T15:07:14Z</time>
      </trkpt>
      <trkpt lat="44.7382" lon="3.25185">
        <ele>1072.49</ele>
        <time>2016-02-21T15:07:32Z</time>
      </trkpt>
      <trkpt lat="44.73818" lon="3.25182">
        <ele>1072.49</ele>
        <time>2016-02-21T15:07:33Z</time>
      </trkpt>
      <trkpt lat="44.73816" lon="3.25179">
        <ele>1072.49</ele>
        <time>2016-02-21T15:07:34Z</time>
      </trkpt>
      <trkpt lat="44.73808" lon="3.25185">
        <ele>1072.49</ele>
        <time>2016-02-21T15:07:37Z</time>
      </trkpt>
      <trkpt lat="44.73788" lon="3.25236">
        <ele>1074.41</ele>
        <time>2016-02-21T15:07:50Z</time>
      </trkpt>
      <trkpt lat="44.73755" lon="3.25282">
        <ele>1075.37</ele>
        <time>2016-02-21T15:08:05Z</time>
      </trkpt>
      <trkpt lat="44.73747" lon="3.25299">
        <ele>1076.33</ele>
        <time>2016-02-21T15:08:11Z</time>
      </trkpt>
      <trkpt lat="44.73741" lon="3.25311">
        <ele>1075.37</ele>
        <time>2016-02-21T15:08:22Z</time>
      </trkpt>
      <trkpt lat="44.73745" lon="3.25307">
        <ele>1076.33</ele>
        <time>2016-02-21T15:08:32Z</time>
      </trkpt>
      <trkpt lat="44.73747" lon="3.25302">
        <ele>1076.81</ele>
        <time>2016-02-21T15:08:36Z</time>
      </trkpt>
      <trkpt lat="44.73749" lon="3.25299">
        <ele>1076.81</ele>
        <time>2016-02-21T15:08:38Z</time>
      </trkpt>
      <trkpt lat="44.73764" lon="3.2527">
        <ele>1075.37</ele>
        <time>2016-02-21T15:08:46Z</time>
      </trkpt>
      <trkpt lat="44.7378" lon="3.2525">
        <ele>1074.41</ele>
        <time>2016-02-21T15:08:51Z</time>
      </trkpt>
      <trkpt lat="44.73795" lon="3.2523">
        <ele>1074.41</ele>
        <time>2016-02-21T15:08:56Z</time>
      </trkpt>
      <trkpt lat="44.73797" lon="3.25225">
        <ele>1073.93</ele>
        <time>2016-02-21T15:08:57Z</time>
      </trkpt>
      <trkpt lat="44.73799" lon="3.25219">
        <ele>1073.45</ele>
        <time>2016-02-21T15:08:58Z</time>
      </trkpt>
      <trkpt lat="44.73801" lon="3.25213">
        <ele>1073.45</ele>
        <time>2016-02-21T15:08:59Z</time>
      </trkpt>
      <trkpt lat="44.73806" lon="3.25196">
        <ele>1072.97</ele>
        <time>2016-02-21T15:09:02Z</time>
      </trkpt>
      <trkpt lat="44.73807" lon="3.25191">
        <ele>1072.97</ele>
        <time>2016-02-21T15:09:03Z</time>
      </trkpt>
      <trkpt lat="44.7381" lon="3.25186">
        <ele>1072.97</ele>
        <time>2016-02-21T15:09:04Z</time>
      </trkpt>
      <trkpt lat="44.73812" lon="3.25182">
        <ele>1072.97</ele>
        <time>2016-02-21T15:09:05Z</time>
      </trkpt>
      <trkpt lat="44.73821" lon="3.25186">
        <ele>1072.01</ele>
        <time>2016-02-21T15:09:08Z</time>
      </trkpt>
      <trkpt lat="44.73822" lon="3.25192">
        <ele>1072.01</ele>
        <time>2016-02-21T15:09:09Z</time>
      </trkpt>
      <trkpt lat="44.73823" lon="3.25199">
        <ele>1071.53</ele>
        <time>2016-02-21T15:09:10Z</time>
      </trkpt>
      <trkpt lat="44.73862" lon="3.25306">
        <ele>1068.64</ele>
        <time>2016-02-21T15:09:25Z</time>
      </trkpt>
      <trkpt lat="44.73875" lon="3.25345">
        <ele>1068.16</ele>
        <time>2016-02-21T15:09:30Z</time>
      </trkpt>
      <trkpt lat="44.73879" lon="3.25352">
        <ele>1068.16</ele>
        <time>2016-02-21T15:09:31Z</time>
      </trkpt>
      <trkpt lat="44.73883" lon="3.25358">
        <ele>1067.68</ele>
        <time>2016-02-21T15:09:32Z</time>
      </trkpt>
      <trkpt lat="44.73895" lon="3.25378">
        <ele>1067.2</ele>
        <time>2016-02-21T15:09:35Z</time>
      </trkpt>
      <trkpt lat="44.73935" lon="3.25481">
        <ele>1066.72</ele>
        <time>2016-02-21T15:09:50Z</time>
      </trkpt>
      <trkpt lat="44.73937" lon="3.25488">
        <ele>1066.72</ele>
        <time>2016-02-21T15:09:51Z</time>
      </trkpt>
      <trkpt lat="44.7394" lon="3.25493">
        <ele>1066.72</ele>
        <time>2016-02-21T15:09:52Z</time>
      </trkpt>
      <trkpt lat="44.73944" lon="3.25498">
        <ele>1066.72</ele>
        <time>2016-02-21T15:09:53Z</time>
      </trkpt>
      <trkpt lat="44.73947" lon="3.25502">
        <ele>1066.72</ele>
        <time>2016-02-21T15:09:54Z</time>
      </trkpt>
      <trkpt lat="44.73951" lon="3.25506">
        <ele>1067.2</ele>
        <time>2016-02-21T15:09:55Z</time>
      </trkpt>
      <trkpt lat="44.73978" lon="3.25534">
        <ele>1067.2</ele>
        <time>2016-02-21T15:10:03Z</time>
      </trkpt>
      <trkpt lat="44.73981" lon="3.25537">
        <ele>1067.2</ele>
        <time>2016-02-21T15:10:04Z</time>
      </trkpt>
      <trkpt lat="44.73985" lon="3.25539">
        <ele>1067.68</ele>
        <time>2016-02-21T15:10:05Z</time>
      </trkpt>
      <trkpt lat="44.74" lon="3.25548">
        <ele>1067.2</ele>
        <time>2016-02-21T15:10:09Z</time>
      </trkpt>
      <trkpt lat="44.7405" lon="3.25571">
        <ele>1065.76</ele>
        <time>2016-02-21T15:10:20Z</time>
      </trkpt>
      <trkpt lat="44.74067" lon="3.25575">
        <ele>1065.76</ele>
        <time>2016-02-21T15:10:23Z</time>
      </trkpt>
      <trkpt lat="44.74131" lon="3.25599">
        <ele>1065.28</ele>
        <time>2016-02-21T15:10:35Z</time>
      </trkpt>
      <trkpt lat="44.74211" lon="3.25607">
        <ele>1063.84</ele>
        <time>2016-02-21T15:10:49Z</time>
      </trkpt>
      <trkpt lat="44.74276" lon="3.25624">
        <ele>1065.28</ele>
        <time>2016-02-21T15:11:04Z</time>
      </trkpt>
      <trkpt lat="44.74277" lon="3.25628">
        <ele>1065.28</ele>
        <time>2016-02-21T15:11:05Z</time>
      </trkpt>
      <trkpt lat="44.74278" lon="3.25631">
        <ele>1065.28</ele>
        <time>2016-02-21T15:11:06Z</time>
      </trkpt>
      <trkpt lat="44.74278" lon="3.25634">
        <ele>1065.28</ele>
        <time>2016-02-21T15:11:09Z</time>
      </trkpt>
      <trkpt lat="44.74277" lon="3.25636">
        <ele>1065.28</ele>
        <time>2016-02-21T15:11:10Z</time>
      </trkpt>
      <trkpt lat="44.74275" lon="3.25637">
        <ele>1064.8</ele>
        <time>2016-02-21T15:11:11Z</time>
      </trkpt>
      <trkpt lat="44.74242" lon="3.25653">
        <ele>1062.87</ele>
        <time>2016-02-21T15:11:22Z</time>
      </trkpt>
      <trkpt lat="44.74238" lon="3.25657">
        <ele>1062.87</ele>
        <time>2016-02-21T15:11:23Z</time>
      </trkpt>
      <trkpt lat="44.74232" lon="3.25666">
        <ele>1062.39</ele>
        <time>2016-02-21T15:11:25Z</time>
      </trkpt>
      <trkpt lat="44.74214" lon="3.25684">
        <ele>1060.47</ele>
        <time>2016-02-21T15:11:29Z</time>
      </trkpt>
      <trkpt lat="44.74193" lon="3.25706">
        <ele>1056.63</ele>
        <time>2016-02-21T15:11:33Z</time>
      </trkpt>
      <trkpt lat="44.74156" lon="3.25752">
        <ele>1053.26</ele>
        <time>2016-02-21T15:11:40Z</time>
      </trkpt>
      <trkpt lat="44.74138" lon="3.25783">
        <ele>1050.86</ele>
        <time>2016-02-21T15:11:44Z</time>
      </trkpt>
      <trkpt lat="44.74129" lon="3.25812">
        <ele>1049.42</ele>
        <time>2016-02-21T15:11:47Z</time>
      </trkpt>
      <trkpt lat="44.74121" lon="3.25865">
        <ele>1047.01</ele>
        <time>2016-02-21T15:11:52Z</time>
      </trkpt>
      <trkpt lat="44.74122" lon="3.25875">
        <ele>1047.01</ele>
        <time>2016-02-21T15:11:53Z</time>
      </trkpt>
      <trkpt lat="44.74123" lon="3.25885">
        <ele>1046.53</ele>
        <time>2016-02-21T15:11:54Z</time>
      </trkpt>
      <trkpt lat="44.74124" lon="3.25893">
        <ele>1046.53</ele>
        <time>2016-02-21T15:11:55Z</time>
      </trkpt>
      <trkpt lat="44.74127" lon="3.25901">
        <ele>1047.01</ele>
        <time>2016-02-21T15:11:56Z</time>
      </trkpt>
      <trkpt lat="44.74128" lon="3.25906">
        <ele>1047.49</ele>
        <time>2016-02-21T15:11:57Z</time>
      </trkpt>
      <trkpt lat="44.74128" lon="3.25909">
        <ele>1047.97</ele>
        <time>2016-02-21T15:11:58Z</time>
      </trkpt>
      <trkpt lat="44.74129" lon="3.25911">
        <ele>1047.97</ele>
        <time>2016-02-21T15:11:59Z</time>
      </trkpt>
      <trkpt lat="44.74131" lon="3.25913">
        <ele>1048.45</ele>
        <time>2016-02-21T15:12:01Z</time>
      </trkpt>
      <trkpt lat="44.74132" lon="3.25914">
        <ele>1048.45</ele>
        <time>2016-02-21T15:12:02Z</time>
      </trkpt>
      <trkpt lat="44.74133" lon="3.25914">
        <ele>1048.45</ele>
        <time>2016-02-21T15:12:03Z</time>
      </trkpt>
      <trkpt lat="44.74135" lon="3.25914">
        <ele>1048.45</ele>
        <time>2016-02-21T15:12:04Z</time>
      </trkpt>
      <trkpt lat="44.74136" lon="3.25913">
        <ele>1048.45</ele>
        <time>2016-02-21T15:12:05Z</time>
      </trkpt>
      <trkpt lat="44.74137" lon="3.25912">
        <ele>1048.94</ele>
        <time>2016-02-21T15:12:06Z</time>
      </trkpt>
      <trkpt lat="44.74137" lon="3.2591">
        <ele>1048.94</ele>
        <time>2016-02-21T15:12:07Z</time>
      </trkpt>
      <trkpt lat="44.74136" lon="3.25909">
        <ele>1048.94</ele>
        <time>2016-02-21T15:12:18Z</time>
      </trkpt>
      <trkpt lat="44.74136" lon="3.25909">
        <ele>1048.94</ele>
        <time>2016-02-21T15:12:19Z</time>
      </trkpt>
      <trkpt lat="44.74135" lon="3.25911">
        <ele>1048.45</ele>
        <time>2016-02-21T15:12:20Z</time>
      </trkpt>
      <trkpt lat="44.74134" lon="3.25914">
        <ele>1048.45</ele>
        <time>2016-02-21T15:12:21Z</time>
      </trkpt>
      <trkpt lat="44.74132" lon="3.25918">
        <ele>1047.49</ele>
        <time>2016-02-21T15:12:22Z</time>
      </trkpt>
      <trkpt lat="44.74132" lon="3.25923">
        <ele>1046.53</ele>
        <time>2016-02-21T15:12:23Z</time>
      </trkpt>
      <trkpt lat="44.74131" lon="3.25929">
        <ele>1046.05</ele>
        <time>2016-02-21T15:12:24Z</time>
      </trkpt>
      <trkpt lat="44.7413" lon="3.25943">
        <ele>1045.09</ele>
        <time>2016-02-21T15:12:26Z</time>
      </trkpt>
      <trkpt lat="44.74128" lon="3.25951">
        <ele>1044.61</ele>
        <time>2016-02-21T15:12:27Z</time>
      </trkpt>
      <trkpt lat="44.74127" lon="3.25959">
        <ele>1044.13</ele>
        <time>2016-02-21T15:12:28Z</time>
      </trkpt>
      <trkpt lat="44.74122" lon="3.25994">
        <ele>1042.21</ele>
        <time>2016-02-21T15:12:32Z</time>
      </trkpt>
      <trkpt lat="44.74117" lon="3.26077">
        <ele>1039.32</ele>
        <time>2016-02-21T15:12:44Z</time>
      </trkpt>
      <trkpt lat="44.74129" lon="3.26128">
        <ele>1040.76</ele>
        <time>2016-02-21T15:12:55Z</time>
      </trkpt>
      <trkpt lat="44.7413" lon="3.26205">
        <ele>1038.84</ele>
        <time>2016-02-21T15:13:08Z</time>
      </trkpt>
      <trkpt lat="44.74121" lon="3.26243">
        <ele>1036.92</ele>
        <time>2016-02-21T15:13:13Z</time>
      </trkpt>
      <trkpt lat="44.7412" lon="3.26251">
        <ele>1036.44</ele>
        <time>2016-02-21T15:13:14Z</time>
      </trkpt>
      <trkpt lat="44.74121" lon="3.2626">
        <ele>1036.44</ele>
        <time>2016-02-21T15:13:15Z</time>
      </trkpt>
      <trkpt lat="44.74124" lon="3.26288">
        <ele>1035</ele>
        <time>2016-02-21T15:13:18Z</time>
      </trkpt>
      <trkpt lat="44.74147" lon="3.264">
        <ele>1035.48</ele>
        <time>2016-02-21T15:13:31Z</time>
      </trkpt>
      <trkpt lat="44.74172" lon="3.26504">
        <ele>1035.48</ele>
        <time>2016-02-21T15:13:45Z</time>
      </trkpt>
      <trkpt lat="44.74199" lon="3.26607">
        <ele>1036.44</ele>
        <time>2016-02-21T15:14:00Z</time>
      </trkpt>
      <trkpt lat="44.7421" lon="3.26629">
        <ele>1035.96</ele>
        <time>2016-02-21T15:14:04Z</time>
      </trkpt>
      <trkpt lat="44.74247" lon="3.26676">
        <ele>1034.04</ele>
        <time>2016-02-21T15:14:13Z</time>
      </trkpt>
      <trkpt lat="44.7425" lon="3.26679">
        <ele>1034.04</ele>
        <time>2016-02-21T15:14:14Z</time>
      </trkpt>
      <trkpt lat="44.74251" lon="3.26683">
        <ele>1034.04</ele>
        <time>2016-02-21T15:14:15Z</time>
      </trkpt>
      <trkpt lat="44.74251" lon="3.26688">
        <ele>1033.55</ele>
        <time>2016-02-21T15:14:16Z</time>
      </trkpt>
      <trkpt lat="44.7425" lon="3.26694">
        <ele>1033.07</ele>
        <time>2016-02-21T15:14:17Z</time>
      </trkpt>
      <trkpt lat="44.74247" lon="3.26701">
        <ele>1032.11</ele>
        <time>2016-02-21T15:14:18Z</time>
      </trkpt>
      <trkpt lat="44.74243" lon="3.26707">
        <ele>1031.15</ele>
        <time>2016-02-21T15:14:19Z</time>
      </trkpt>
      <trkpt lat="44.74239" lon="3.26713">
        <ele>1030.19</ele>
        <time>2016-02-21T15:14:20Z</time>
      </trkpt>
      <trkpt lat="44.74235" lon="3.2672">
        <ele>1029.71</ele>
        <time>2016-02-21T15:14:21Z</time>
      </trkpt>
      <trkpt lat="44.74231" lon="3.26728">
        <ele>1029.23</ele>
        <time>2016-02-21T15:14:22Z</time>
      </trkpt>
      <trkpt lat="44.74228" lon="3.26736">
        <ele>1029.23</ele>
        <time>2016-02-21T15:14:23Z</time>
      </trkpt>
      <trkpt lat="44.74222" lon="3.2675">
        <ele>1029.23</ele>
        <time>2016-02-21T15:14:25Z</time>
      </trkpt>
      <trkpt lat="44.74218" lon="3.26755">
        <ele>1029.71</ele>
        <time>2016-02-21T15:14:26Z</time>
      </trkpt>
      <trkpt lat="44.74213" lon="3.26758">
        <ele>1029.71</ele>
        <time>2016-02-21T15:14:27Z</time>
      </trkpt>
      <trkpt lat="44.74185" lon="3.26776">
        <ele>1028.75</ele>
        <time>2016-02-21T15:14:33Z</time>
      </trkpt>
      <trkpt lat="44.74179" lon="3.26779">
        <ele>1028.27</ele>
        <time>2016-02-21T15:14:34Z</time>
      </trkpt>
      <trkpt lat="44.74168" lon="3.26782">
        <ele>1027.79</ele>
        <time>2016-02-21T15:14:36Z</time>
      </trkpt>
      <trkpt lat="44.74162" lon="3.26786">
        <ele>1027.79</ele>
        <time>2016-02-21T15:14:37Z</time>
      </trkpt>
      <trkpt lat="44.74158" lon="3.26791">
        <ele>1027.31</ele>
        <time>2016-02-21T15:14:38Z</time>
      </trkpt>
      <trkpt lat="44.74154" lon="3.26798">
        <ele>1026.83</ele>
        <time>2016-02-21T15:14:39Z</time>
      </trkpt>
      <trkpt lat="44.74151" lon="3.26806">
        <ele>1026.83</ele>
        <time>2016-02-21T15:14:40Z</time>
      </trkpt>
      <trkpt lat="44.74148" lon="3.26813">
        <ele>1026.83</ele>
        <time>2016-02-21T15:14:41Z</time>
      </trkpt>
      <trkpt lat="44.7414" lon="3.26834">
        <ele>1026.83</ele>
        <time>2016-02-21T15:14:44Z</time>
      </trkpt>
      <trkpt lat="44.74137" lon="3.2684">
        <ele>1026.34</ele>
        <time>2016-02-21T15:14:45Z</time>
      </trkpt>
      <trkpt lat="44.74133" lon="3.26846">
        <ele>1026.34</ele>
        <time>2016-02-21T15:14:46Z</time>
      </trkpt>
      <trkpt lat="44.74077" lon="3.26926">
        <ele>1022.98</ele>
        <time>2016-02-21T15:15:01Z</time>
      </trkpt>
      <trkpt lat="44.74068" lon="3.26937">
        <ele>1022.5</ele>
        <time>2016-02-21T15:15:03Z</time>
      </trkpt>
      <trkpt lat="44.74065" lon="3.26944">
        <ele>1022.02</ele>
        <time>2016-02-21T15:15:04Z</time>
      </trkpt>
      <trkpt lat="44.74062" lon="3.26952">
        <ele>1021.54</ele>
        <time>2016-02-21T15:15:05Z</time>
      </trkpt>
      <trkpt lat="44.74061" lon="3.26961">
        <ele>1021.06</ele>
        <time>2016-02-21T15:15:06Z</time>
      </trkpt>
      <trkpt lat="44.74061" lon="3.2697">
        <ele>1020.58</ele>
        <time>2016-02-21T15:15:07Z</time>
      </trkpt>
      <trkpt lat="44.74061" lon="3.26979">
        <ele>1020.58</ele>
        <time>2016-02-21T15:15:08Z</time>
      </trkpt>
      <trkpt lat="44.74061" lon="3.26988">
        <ele>1020.1</ele>
        <time>2016-02-21T15:15:09Z</time>
      </trkpt>
      <trkpt lat="44.74058" lon="3.27037">
        <ele>1016.73</ele>
        <time>2016-02-21T15:15:14Z</time>
      </trkpt>
      <trkpt lat="44.74054" lon="3.27057">
        <ele>1015.77</ele>
        <time>2016-02-21T15:15:16Z</time>
      </trkpt>
      <trkpt lat="44.74035" lon="3.27118">
        <ele>1011.93</ele>
        <time>2016-02-21T15:15:23Z</time>
      </trkpt>
      <trkpt lat="44.74024" lon="3.27142">
        <ele>1010.48</ele>
        <time>2016-02-21T15:15:26Z</time>
      </trkpt>
      <trkpt lat="44.74021" lon="3.2715">
        <ele>1010.48</ele>
        <time>2016-02-21T15:15:27Z</time>
      </trkpt>
      <trkpt lat="44.74019" lon="3.27159">
        <ele>1010</ele>
        <time>2016-02-21T15:15:28Z</time>
      </trkpt>
      <trkpt lat="44.74014" lon="3.27187">
        <ele>1008.08</ele>
        <time>2016-02-21T15:15:31Z</time>
      </trkpt>
      <trkpt lat="44.74013" lon="3.27197">
        <ele>1007.12</ele>
        <time>2016-02-21T15:15:32Z</time>
      </trkpt>
      <trkpt lat="44.74011" lon="3.27206">
        <ele>1006.64</ele>
        <time>2016-02-21T15:15:33Z</time>
      </trkpt>
      <trkpt lat="44.74009" lon="3.27214">
        <ele>1006.16</ele>
        <time>2016-02-21T15:15:34Z</time>
      </trkpt>
      <trkpt lat="44.74005" lon="3.27223">
        <ele>1005.68</ele>
        <time>2016-02-21T15:15:35Z</time>
      </trkpt>
      <trkpt lat="44.73988" lon="3.27269">
        <ele>1002.31</ele>
        <time>2016-02-21T15:15:40Z</time>
      </trkpt>
      <trkpt lat="44.73983" lon="3.27277">
        <ele>1001.35</ele>
        <time>2016-02-21T15:15:41Z</time>
      </trkpt>
      <trkpt lat="44.73977" lon="3.27284">
        <ele>999.91</ele>
        <time>2016-02-21T15:15:42Z</time>
      </trkpt>
      <trkpt lat="44.73971" lon="3.2729">
        <ele>998.95</ele>
        <time>2016-02-21T15:15:43Z</time>
      </trkpt>
      <trkpt lat="44.73964" lon="3.27294">
        <ele>997.99</ele>
        <time>2016-02-21T15:15:44Z</time>
      </trkpt>
      <trkpt lat="44.73957" lon="3.27299">
        <ele>997.02</ele>
        <time>2016-02-21T15:15:45Z</time>
      </trkpt>
      <trkpt lat="44.73891" lon="3.27318">
        <ele>995.58</ele>
        <time>2016-02-21T15:15:54Z</time>
      </trkpt>
      <trkpt lat="44.73887" lon="3.2732">
        <ele>996.06</ele>
        <time>2016-02-21T15:15:55Z</time>
      </trkpt>
      <trkpt lat="44.73874" lon="3.27327">
        <ele>997.99</ele>
        <time>2016-02-21T15:15:59Z</time>
      </trkpt>
      <trkpt lat="44.7386" lon="3.27339">
        <ele>1000.87</ele>
        <time>2016-02-21T15:16:07Z</time>
      </trkpt>
      <trkpt lat="44.73838" lon="3.27363">
        <ele>1003.27</ele>
        <time>2016-02-21T15:16:21Z</time>
      </trkpt>
      <trkpt lat="44.73818" lon="3.27374">
        <ele>1006.16</ele>
        <time>2016-02-21T15:16:34Z</time>
      </trkpt>
      <trkpt lat="44.73802" lon="3.27384">
        <ele>1008.56</ele>
        <time>2016-02-21T15:16:45Z</time>
      </trkpt>
      <trkpt lat="44.738" lon="3.27385">
        <ele>1008.56</ele>
        <time>2016-02-21T15:16:46Z</time>
      </trkpt>
      <trkpt lat="44.73775" lon="3.27392">
        <ele>1011.44</ele>
        <time>2016-02-21T15:17:01Z</time>
      </trkpt>
      <trkpt lat="44.73747" lon="3.274">
        <ele>1013.85</ele>
        <time>2016-02-21T15:17:14Z</time>
      </trkpt>
      <trkpt lat="44.73713" lon="3.2741">
        <ele>1013.85</ele>
        <time>2016-02-21T15:17:30Z</time>
      </trkpt>
      <trkpt lat="44.73677" lon="3.27413">
        <ele>1014.33</ele>
        <time>2016-02-21T15:17:45Z</time>
      </trkpt>
      <trkpt lat="44.73629" lon="3.2741">
        <ele>1014.33</ele>
        <time>2016-02-21T15:18:00Z</time>
      </trkpt>
      <trkpt lat="44.73579" lon="3.27419">
        <ele>1016.25</ele>
        <time>2016-02-21T15:18:17Z</time>
      </trkpt>
      <trkpt lat="44.73536" lon="3.27432">
        <ele>1018.65</ele>
        <time>2016-02-21T15:18:32Z</time>
      </trkpt>
      <trkpt lat="44.73484" lon="3.27455">
        <ele>1018.17</ele>
        <time>2016-02-21T15:18:47Z</time>
      </trkpt>
      <trkpt lat="44.73456" lon="3.275">
        <ele>1020.1</ele>
        <time>2016-02-21T15:19:01Z</time>
      </trkpt>
      <trkpt lat="44.7345" lon="3.27544">
        <ele>1022.02</ele>
        <time>2016-02-21T15:19:14Z</time>
      </trkpt>
      <trkpt lat="44.73442" lon="3.27598">
        <ele>1023.94</ele>
        <time>2016-02-21T15:19:30Z</time>
      </trkpt>
      <trkpt lat="44.73439" lon="3.27611">
        <ele>1023.94</ele>
        <time>2016-02-21T15:19:41Z</time>
      </trkpt>
      <trkpt lat="44.73439" lon="3.27611">
        <ele>1023.94</ele>
        <time>2016-02-21T15:20:09Z</time>
      </trkpt>
      <trkpt lat="44.73439" lon="3.27611">
        <ele>1023.94</ele>
        <time>2016-02-21T15:20:33Z</time>
      </trkpt>
      <trkpt lat="44.73434" lon="3.27626">
        <ele>1022.98</ele>
        <time>2016-02-21T15:20:50Z</time>
      </trkpt>
      <trkpt lat="44.73417" lon="3.2765">
        <ele>1022.02</ele>
        <time>2016-02-21T15:20:56Z</time>
      </trkpt>
      <trkpt lat="44.73414" lon="3.27654">
        <ele>1022.02</ele>
        <time>2016-02-21T15:20:57Z</time>
      </trkpt>
      <trkpt lat="44.7335" lon="3.277">
        <ele>1020.58</ele>
        <time>2016-02-21T15:21:14Z</time>
      </trkpt>
      <trkpt lat="44.73322" lon="3.27711">
        <ele>1020.58</ele>
        <time>2016-02-21T15:21:21Z</time>
      </trkpt>
      <trkpt lat="44.73305" lon="3.27713">
        <ele>1019.62</ele>
        <time>2016-02-21T15:21:25Z</time>
      </trkpt>
      <trkpt lat="44.73251" lon="3.277">
        <ele>1016.25</ele>
        <time>2016-02-21T15:21:36Z</time>
      </trkpt>
      <trkpt lat="44.73245" lon="3.27697">
        <ele>1015.77</ele>
        <time>2016-02-21T15:21:37Z</time>
      </trkpt>
      <trkpt lat="44.73226" lon="3.27685">
        <ele>1013.37</ele>
        <time>2016-02-21T15:21:40Z</time>
      </trkpt>
      <trkpt lat="44.73219" lon="3.27682">
        <ele>1012.89</ele>
        <time>2016-02-21T15:21:41Z</time>
      </trkpt>
      <trkpt lat="44.7319" lon="3.27678">
        <ele>1009.04</ele>
        <time>2016-02-21T15:21:45Z</time>
      </trkpt>
      <trkpt lat="44.73164" lon="3.27679">
        <ele>1005.68</ele>
        <time>2016-02-21T15:21:48Z</time>
      </trkpt>
      <trkpt lat="44.73146" lon="3.27684">
        <ele>1002.79</ele>
        <time>2016-02-21T15:21:50Z</time>
      </trkpt>
      <trkpt lat="44.73138" lon="3.27688">
        <ele>1002.31</ele>
        <time>2016-02-21T15:21:51Z</time>
      </trkpt>
      <trkpt lat="44.73108" lon="3.27707">
        <ele>1000.87</ele>
        <time>2016-02-21T15:21:55Z</time>
      </trkpt>
      <trkpt lat="44.731" lon="3.27706">
        <ele>1000.87</ele>
        <time>2016-02-21T15:21:56Z</time>
      </trkpt>
      <trkpt lat="44.73093" lon="3.27704">
        <ele>999.91</ele>
        <time>2016-02-21T15:21:57Z</time>
      </trkpt>
      <trkpt lat="44.73087" lon="3.27699">
        <ele>1001.35</ele>
        <time>2016-02-21T15:21:58Z</time>
      </trkpt>
      <trkpt lat="44.73081" lon="3.27695">
        <ele>1001.35</ele>
        <time>2016-02-21T15:21:59Z</time>
      </trkpt>
      <trkpt lat="44.73075" lon="3.2769">
        <ele>1001.35</ele>
        <time>2016-02-21T15:22:00Z</time>
      </trkpt>
      <trkpt lat="44.73051" lon="3.27673">
        <ele>999.43</ele>
        <time>2016-02-21T15:22:04Z</time>
      </trkpt>
      <trkpt lat="44.73045" lon="3.2767">
        <ele>998.95</ele>
        <time>2016-02-21T15:22:05Z</time>
      </trkpt>
      <trkpt lat="44.73038" lon="3.27668">
        <ele>998.47</ele>
        <time>2016-02-21T15:22:06Z</time>
      </trkpt>
      <trkpt lat="44.73026" lon="3.27667">
        <ele>998.47</ele>
        <time>2016-02-21T15:22:08Z</time>
      </trkpt>
      <trkpt lat="44.72993" lon="3.27668">
        <ele>1001.35</ele>
        <time>2016-02-21T15:22:18Z</time>
      </trkpt>
      <trkpt lat="44.72981" lon="3.27665">
        <ele>1003.27</ele>
        <time>2016-02-21T15:22:24Z</time>
      </trkpt>
      <trkpt lat="44.72979" lon="3.27664">
        <ele>1003.75</ele>
        <time>2016-02-21T15:22:25Z</time>
      </trkpt>
      <trkpt lat="44.72977" lon="3.27663">
        <ele>1004.23</ele>
        <time>2016-02-21T15:22:26Z</time>
      </trkpt>
      <trkpt lat="44.72973" lon="3.27662">
        <ele>1005.2</ele>
        <time>2016-02-21T15:22:28Z</time>
      </trkpt>
      <trkpt lat="44.72972" lon="3.27661">
        <ele>1005.2</ele>
        <time>2016-02-21T15:22:29Z</time>
      </trkpt>
      <trkpt lat="44.7297" lon="3.2766">
        <ele>1005.68</ele>
        <time>2016-02-21T15:22:30Z</time>
      </trkpt>
      <trkpt lat="44.72968" lon="3.27658">
        <ele>1006.64</ele>
        <time>2016-02-21T15:22:31Z</time>
      </trkpt>
      <trkpt lat="44.72966" lon="3.27658">
        <ele>1006.64</ele>
        <time>2016-02-21T15:22:32Z</time>
      </trkpt>
      <trkpt lat="44.72965" lon="3.27658">
        <ele>1007.12</ele>
        <time>2016-02-21T15:22:33Z</time>
      </trkpt>
      <trkpt lat="44.72963" lon="3.27657">
        <ele>1007.6</ele>
        <time>2016-02-21T15:22:34Z</time>
      </trkpt>
      <trkpt lat="44.72961" lon="3.27655">
        <ele>1008.08</ele>
        <time>2016-02-21T15:22:35Z</time>
      </trkpt>
      <trkpt lat="44.7296" lon="3.27654">
        <ele>1008.08</ele>
        <time>2016-02-21T15:22:36Z</time>
      </trkpt>
      <trkpt lat="44.72958" lon="3.27653">
        <ele>1008.56</ele>
        <time>2016-02-21T15:22:37Z</time>
      </trkpt>
      <trkpt lat="44.72956" lon="3.27652">
        <ele>1009.04</ele>
        <time>2016-02-21T15:22:38Z</time>
      </trkpt>
      <trkpt lat="44.72954" lon="3.27652">
        <ele>1009.04</ele>
        <time>2016-02-21T15:22:39Z</time>
      </trkpt>
      <trkpt lat="44.7295" lon="3.27651">
        <ele>1010</ele>
        <time>2016-02-21T15:22:41Z</time>
      </trkpt>
      <trkpt lat="44.72948" lon="3.27649">
        <ele>1010</ele>
        <time>2016-02-21T15:22:42Z</time>
      </trkpt>
      <trkpt lat="44.72947" lon="3.27648">
        <ele>1010.48</ele>
        <time>2016-02-21T15:22:43Z</time>
      </trkpt>
      <trkpt lat="44.72945" lon="3.27648">
        <ele>1010.48</ele>
        <time>2016-02-21T15:22:44Z</time>
      </trkpt>
      <trkpt lat="44.72943" lon="3.27648">
        <ele>1010.96</ele>
        <time>2016-02-21T15:22:45Z</time>
      </trkpt>
      <trkpt lat="44.72941" lon="3.27647">
        <ele>1011.44</ele>
        <time>2016-02-21T15:22:46Z</time>
      </trkpt>
      <trkpt lat="44.7294" lon="3.27646">
        <ele>1011.93</ele>
        <time>2016-02-21T15:22:47Z</time>
      </trkpt>
      <trkpt lat="44.72938" lon="3.27644">
        <ele>1011.93</ele>
        <time>2016-02-21T15:22:48Z</time>
      </trkpt>
      <trkpt lat="44.72936" lon="3.27644">
        <ele>1011.93</ele>
        <time>2016-02-21T15:22:49Z</time>
      </trkpt>
      <trkpt lat="44.72934" lon="3.27643">
        <ele>1012.41</ele>
        <time>2016-02-21T15:22:50Z</time>
      </trkpt>
      <trkpt lat="44.72932" lon="3.27643">
        <ele>1012.41</ele>
        <time>2016-02-21T15:22:51Z</time>
      </trkpt>
      <trkpt lat="44.7293" lon="3.27643">
        <ele>1012.89</ele>
        <time>2016-02-21T15:22:52Z</time>
      </trkpt>
      <trkpt lat="44.72888" lon="3.27626">
        <ele>1011.44</ele>
        <time>2016-02-21T15:23:06Z</time>
      </trkpt>
      <trkpt lat="44.72812" lon="3.27593">
        <ele>1011.44</ele>
        <time>2016-02-21T15:23:24Z</time>
      </trkpt>
      <trkpt lat="44.72765" lon="3.27579">
        <ele>1011.93</ele>
        <time>2016-02-21T15:23:38Z</time>
      </trkpt>
      <trkpt lat="44.72763" lon="3.27582">
        <ele>1011.93</ele>
        <time>2016-02-21T15:23:39Z</time>
      </trkpt>
      <trkpt lat="44.72761" lon="3.27586">
        <ele>1011.93</ele>
        <time>2016-02-21T15:23:40Z</time>
      </trkpt>
      <trkpt lat="44.72737" lon="3.27669">
        <ele>1010.48</ele>
        <time>2016-02-21T15:23:55Z</time>
      </trkpt>
      <trkpt lat="44.7272" lon="3.27732">
        <ele>1009.52</ele>
        <time>2016-02-21T15:24:05Z</time>
      </trkpt>
      <trkpt lat="44.72676" lon="3.27812">
        <ele>1011.93</ele>
        <time>2016-02-21T15:24:22Z</time>
      </trkpt>
      <trkpt lat="44.72629" lon="3.27867">
        <ele>1014.33</ele>
        <time>2016-02-21T15:24:38Z</time>
      </trkpt>
      <trkpt lat="44.72596" lon="3.27916">
        <ele>1016.25</ele>
        <time>2016-02-21T15:24:51Z</time>
      </trkpt>
      <trkpt lat="44.72582" lon="3.27932">
        <ele>1015.77</ele>
        <time>2016-02-21T15:24:56Z</time>
      </trkpt>
      <trkpt lat="44.7251" lon="3.27963">
        <ele>1013.85</ele>
        <time>2016-02-21T15:25:12Z</time>
      </trkpt>
      <trkpt lat="44.72426" lon="3.27954">
        <ele>1012.89</ele>
        <time>2016-02-21T15:25:28Z</time>
      </trkpt>
      <trkpt lat="44.72416" lon="3.27956">
        <ele>1012.89</ele>
        <time>2016-02-21T15:25:30Z</time>
      </trkpt>
      <trkpt lat="44.72411" lon="3.27957">
        <ele>1012.89</ele>
        <time>2016-02-21T15:25:31Z</time>
      </trkpt>
      <trkpt lat="44.72407" lon="3.2796">
        <ele>1012.89</ele>
        <time>2016-02-21T15:25:32Z</time>
      </trkpt>
      <trkpt lat="44.72372" lon="3.27984">
        <ele>1013.85</ele>
        <time>2016-02-21T15:25:40Z</time>
      </trkpt>
      <trkpt lat="44.72368" lon="3.27989">
        <ele>1014.33</ele>
        <time>2016-02-21T15:25:41Z</time>
      </trkpt>
      <trkpt lat="44.72313" lon="3.28017">
        <ele>1016.73</ele>
        <time>2016-02-21T15:25:56Z</time>
      </trkpt>
      <trkpt lat="44.72305" lon="3.28021">
        <ele>1017.69</ele>
        <time>2016-02-21T15:25:59Z</time>
      </trkpt>
      <trkpt lat="44.72303" lon="3.28024">
        <ele>1018.17</ele>
        <time>2016-02-21T15:26:00Z</time>
      </trkpt>
      <trkpt lat="44.72302" lon="3.28028">
        <ele>1018.17</ele>
        <time>2016-02-21T15:26:01Z</time>
      </trkpt>
      <trkpt lat="44.72302" lon="3.28032">
        <ele>1018.65</ele>
        <time>2016-02-21T15:26:02Z</time>
      </trkpt>
      <trkpt lat="44.72303" lon="3.28035">
        <ele>1019.13</ele>
        <time>2016-02-21T15:26:03Z</time>
      </trkpt>
      <trkpt lat="44.72304" lon="3.28038">
        <ele>1019.62</ele>
        <time>2016-02-21T15:26:04Z</time>
      </trkpt>
      <trkpt lat="44.72306" lon="3.28041">
        <ele>1020.1</ele>
        <time>2016-02-21T15:26:05Z</time>
      </trkpt>
      <trkpt lat="44.72329" lon="3.28077">
        <ele>1022.5</ele>
        <time>2016-02-21T15:26:20Z</time>
      </trkpt>
      <trkpt lat="44.72323" lon="3.28107">
        <ele>1024.9</ele>
        <time>2016-02-21T15:26:31Z</time>
      </trkpt>
      <trkpt lat="44.72314" lon="3.28146">
        <ele>1027.31</ele>
        <time>2016-02-21T15:26:46Z</time>
      </trkpt>
      <trkpt lat="44.72308" lon="3.2817">
        <ele>1030.19</ele>
        <time>2016-02-21T15:26:57Z</time>
      </trkpt>
      <trkpt lat="44.72305" lon="3.28183">
        <ele>1032.59</ele>
        <time>2016-02-21T15:27:04Z</time>
      </trkpt>
      <trkpt lat="44.72302" lon="3.28193">
        <ele>1034.04</ele>
        <time>2016-02-21T15:27:10Z</time>
      </trkpt>
      <trkpt lat="44.72301" lon="3.28195">
        <ele>1034.52</ele>
        <time>2016-02-21T15:27:11Z</time>
      </trkpt>
      <trkpt lat="44.72301" lon="3.28197">
        <ele>1035</ele>
        <time>2016-02-21T15:27:12Z</time>
      </trkpt>
      <trkpt lat="44.723" lon="3.28199">
        <ele>1035.48</ele>
        <time>2016-02-21T15:27:13Z</time>
      </trkpt>
      <trkpt lat="44.723" lon="3.28201">
        <ele>1035.48</ele>
        <time>2016-02-21T15:27:14Z</time>
      </trkpt>
      <trkpt lat="44.72301" lon="3.28204">
        <ele>1035.96</ele>
        <time>2016-02-21T15:27:15Z</time>
      </trkpt>
      <trkpt lat="44.72301" lon="3.28205">
        <ele>1036.44</ele>
        <time>2016-02-21T15:27:16Z</time>
      </trkpt>
      <trkpt lat="44.72301" lon="3.28207">
        <ele>1036.92</ele>
        <time>2016-02-21T15:27:17Z</time>
      </trkpt>
      <trkpt lat="44.723" lon="3.28209">
        <ele>1037.4</ele>
        <time>2016-02-21T15:27:18Z</time>
      </trkpt>
      <trkpt lat="44.723" lon="3.28211">
        <ele>1037.88</ele>
        <time>2016-02-21T15:27:19Z</time>
      </trkpt>
      <trkpt lat="44.72299" lon="3.28212">
        <ele>1037.88</ele>
        <time>2016-02-21T15:27:20Z</time>
      </trkpt>
      <trkpt lat="44.72299" lon="3.28214">
        <ele>1038.36</ele>
        <time>2016-02-21T15:27:21Z</time>
      </trkpt>
      <trkpt lat="44.72299" lon="3.28217">
        <ele>1038.36</ele>
        <time>2016-02-21T15:27:22Z</time>
      </trkpt>
      <trkpt lat="44.72299" lon="3.28219">
        <ele>1038.84</ele>
        <time>2016-02-21T15:27:23Z</time>
      </trkpt>
      <trkpt lat="44.72299" lon="3.28222">
        <ele>1038.84</ele>
        <time>2016-02-21T15:27:24Z</time>
      </trkpt>
      <trkpt lat="44.72299" lon="3.28224">
        <ele>1038.84</ele>
        <time>2016-02-21T15:27:25Z</time>
      </trkpt>
      <trkpt lat="44.72299" lon="3.28227">
        <ele>1038.84</ele>
        <time>2016-02-21T15:27:26Z</time>
      </trkpt>
      <trkpt lat="44.72299" lon="3.28229">
        <ele>1039.32</ele>
        <time>2016-02-21T15:27:27Z</time>
      </trkpt>
      <trkpt lat="44.72299" lon="3.28267">
        <ele>1042.21</ele>
        <time>2016-02-21T15:27:43Z</time>
      </trkpt>
      <trkpt lat="44.72301" lon="3.283">
        <ele>1045.57</ele>
        <time>2016-02-21T15:27:56Z</time>
      </trkpt>
      <trkpt lat="44.72302" lon="3.2831">
        <ele>1045.57</ele>
        <time>2016-02-21T15:28:00Z</time>
      </trkpt>
      <trkpt lat="44.72304" lon="3.28312">
        <ele>1046.05</ele>
        <time>2016-02-21T15:28:02Z</time>
      </trkpt>
      <trkpt lat="44.72306" lon="3.28311">
        <ele>1046.05</ele>
        <time>2016-02-21T15:28:03Z</time>
      </trkpt>
      <trkpt lat="44.72307" lon="3.28311">
        <ele>1046.05</ele>
        <time>2016-02-21T15:28:04Z</time>
      </trkpt>
      <trkpt lat="44.72309" lon="3.28311">
        <ele>1046.05</ele>
        <time>2016-02-21T15:28:05Z</time>
      </trkpt>
      <trkpt lat="44.7231" lon="3.28309">
        <ele>1045.57</ele>
        <time>2016-02-21T15:28:06Z</time>
      </trkpt>
      <trkpt lat="44.72311" lon="3.28309">
        <ele>1046.05</ele>
        <time>2016-02-21T15:28:07Z</time>
      </trkpt>
      <trkpt lat="44.72313" lon="3.28309">
        <ele>1046.05</ele>
        <time>2016-02-21T15:28:08Z</time>
      </trkpt>
      <trkpt lat="44.72315" lon="3.28309">
        <ele>1046.05</ele>
        <time>2016-02-21T15:28:09Z</time>
      </trkpt>
      <trkpt lat="44.72344" lon="3.28308">
        <ele>1045.57</ele>
        <time>2016-02-21T15:28:20Z</time>
      </trkpt>
      <trkpt lat="44.72359" lon="3.28312">
        <ele>1046.53</ele>
        <time>2016-02-21T15:28:26Z</time>
      </trkpt>
      <trkpt lat="44.7236" lon="3.28315">
        <ele>1046.53</ele>
        <time>2016-02-21T15:28:27Z</time>
      </trkpt>
      <trkpt lat="44.72361" lon="3.28317">
        <ele>1046.53</ele>
        <time>2016-02-21T15:28:28Z</time>
      </trkpt>
      <trkpt lat="44.72361" lon="3.28322">
        <ele>1047.01</ele>
        <time>2016-02-21T15:28:30Z</time>
      </trkpt>
      <trkpt lat="44.7236" lon="3.28324">
        <ele>1047.01</ele>
        <time>2016-02-21T15:28:31Z</time>
      </trkpt>
      <trkpt lat="44.72341" lon="3.2834">
        <ele>1045.57</ele>
        <time>2016-02-21T15:28:38Z</time>
      </trkpt>
      <trkpt lat="44.72337" lon="3.28343">
        <ele>1045.57</ele>
        <time>2016-02-21T15:28:39Z</time>
      </trkpt>
      <trkpt lat="44.72334" lon="3.28347">
        <ele>1045.57</ele>
        <time>2016-02-21T15:28:40Z</time>
      </trkpt>
      <trkpt lat="44.72313" lon="3.2837">
        <ele>1043.17</ele>
        <time>2016-02-21T15:28:46Z</time>
      </trkpt>
      <trkpt lat="44.72303" lon="3.28379">
        <ele>1044.13</ele>
        <time>2016-02-21T15:28:50Z</time>
      </trkpt>
      <trkpt lat="44.72303" lon="3.28384">
        <ele>1044.13</ele>
        <time>2016-02-21T15:28:51Z</time>
      </trkpt>
      <trkpt lat="44.72302" lon="3.28388">
        <ele>1043.65</ele>
        <time>2016-02-21T15:28:52Z</time>
      </trkpt>
      <trkpt lat="44.72301" lon="3.28391">
        <ele>1043.65</ele>
        <time>2016-02-21T15:28:53Z</time>
      </trkpt>
      <trkpt lat="44.72298" lon="3.28393">
        <ele>1043.65</ele>
        <time>2016-02-21T15:28:54Z</time>
      </trkpt>
      <trkpt lat="44.72296" lon="3.28395">
        <ele>1043.65</ele>
        <time>2016-02-21T15:28:55Z</time>
      </trkpt>
      <trkpt lat="44.72275" lon="3.28418">
        <ele>1045.57</ele>
        <time>2016-02-21T15:29:06Z</time>
      </trkpt>
      <trkpt lat="44.72256" lon="3.28418">
        <ele>1047.01</ele>
        <time>2016-02-21T15:29:16Z</time>
      </trkpt>
      <trkpt lat="44.72255" lon="3.28417">
        <ele>1047.49</ele>
        <time>2016-02-21T15:29:18Z</time>
      </trkpt>
      <trkpt lat="44.72253" lon="3.28414">
        <ele>1047.01</ele>
        <time>2016-02-21T15:29:19Z</time>
      </trkpt>
      <trkpt lat="44.72252" lon="3.28411">
        <ele>1047.01</ele>
        <time>2016-02-21T15:29:20Z</time>
      </trkpt>
      <trkpt lat="44.72233" lon="3.28367">
        <ele>1047.49</ele>
        <time>2016-02-21T15:29:34Z</time>
      </trkpt>
      <trkpt lat="44.72206" lon="3.28341">
        <ele>1048.45</ele>
        <time>2016-02-21T15:29:46Z</time>
      </trkpt>
      <trkpt lat="44.72177" lon="3.28318">
        <ele>1047.97</ele>
        <time>2016-02-21T15:29:59Z</time>
      </trkpt>
      <trkpt lat="44.72159" lon="3.28302">
        <ele>1047.49</ele>
        <time>2016-02-21T15:30:06Z</time>
      </trkpt>
      <trkpt lat="44.72156" lon="3.28303">
        <ele>1047.49</ele>
        <time>2016-02-21T15:30:07Z</time>
      </trkpt>
      <trkpt lat="44.72153" lon="3.28307">
        <ele>1047.49</ele>
        <time>2016-02-21T15:30:08Z</time>
      </trkpt>
      <trkpt lat="44.72153" lon="3.28311">
        <ele>1047.49</ele>
        <time>2016-02-21T15:30:09Z</time>
      </trkpt>
      <trkpt lat="44.72153" lon="3.28313">
        <ele>1047.97</ele>
        <time>2016-02-21T15:30:10Z</time>
      </trkpt>
      <trkpt lat="44.72154" lon="3.28315">
        <ele>1047.97</ele>
        <time>2016-02-21T15:30:23Z</time>
      </trkpt>
      <trkpt lat="44.72158" lon="3.28318">
        <ele>1048.45</ele>
        <time>2016-02-21T15:30:29Z</time>
      </trkpt>
      <trkpt lat="44.7216" lon="3.28319">
        <ele>1048.45</ele>
        <time>2016-02-21T15:30:30Z</time>
      </trkpt>
      <trkpt lat="44.72162" lon="3.28321">
        <ele>1048.45</ele>
        <time>2016-02-21T15:30:31Z</time>
      </trkpt>
      <trkpt lat="44.72165" lon="3.28322">
        <ele>1048.45</ele>
        <time>2016-02-21T15:30:32Z</time>
      </trkpt>
      <trkpt lat="44.72168" lon="3.28323">
        <ele>1048.45</ele>
        <time>2016-02-21T15:30:33Z</time>
      </trkpt>
      <trkpt lat="44.72171" lon="3.28325">
        <ele>1047.97</ele>
        <time>2016-02-21T15:30:34Z</time>
      </trkpt>
      <trkpt lat="44.72175" lon="3.28328">
        <ele>1048.45</ele>
        <time>2016-02-21T15:30:35Z</time>
      </trkpt>
      <trkpt lat="44.72178" lon="3.28331">
        <ele>1047.97</ele>
        <time>2016-02-21T15:30:36Z</time>
      </trkpt>
      <trkpt lat="44.72182" lon="3.28333">
        <ele>1047.97</ele>
        <time>2016-02-21T15:30:37Z</time>
      </trkpt>
      <trkpt lat="44.72192" lon="3.28344">
        <ele>1048.45</ele>
        <time>2016-02-21T15:30:41Z</time>
      </trkpt>
      <trkpt lat="44.72193" lon="3.28348">
        <ele>1048.45</ele>
        <time>2016-02-21T15:30:42Z</time>
      </trkpt>
      <trkpt lat="44.72192" lon="3.28352">
        <ele>1048.45</ele>
        <time>2016-02-21T15:30:43Z</time>
      </trkpt>
      <trkpt lat="44.72191" lon="3.28355">
        <ele>1048.94</ele>
        <time>2016-02-21T15:30:44Z</time>
      </trkpt>
      <trkpt lat="44.72191" lon="3.28358">
        <ele>1048.94</ele>
        <time>2016-02-21T15:30:45Z</time>
      </trkpt>
      <trkpt lat="44.72191" lon="3.2836">
        <ele>1049.42</ele>
        <time>2016-02-21T15:30:46Z</time>
      </trkpt>
      <trkpt lat="44.72192" lon="3.28362">
        <ele>1049.42</ele>
        <time>2016-02-21T15:30:47Z</time>
      </trkpt>
      <trkpt lat="44.72192" lon="3.28365">
        <ele>1049.42</ele>
        <time>2016-02-21T15:30:48Z</time>
      </trkpt>
      <trkpt lat="44.72192" lon="3.28367">
        <ele>1049.9</ele>
        <time>2016-02-21T15:30:49Z</time>
      </trkpt>
      <trkpt lat="44.72179" lon="3.28382">
        <ele>1051.34</ele>
        <time>2016-02-21T15:30:57Z</time>
      </trkpt>
      <trkpt lat="44.72178" lon="3.28384">
        <ele>1051.34</ele>
        <time>2016-02-21T15:30:58Z</time>
      </trkpt>
      <trkpt lat="44.72176" lon="3.28387">
        <ele>1051.82</ele>
        <time>2016-02-21T15:30:59Z</time>
      </trkpt>
      <trkpt lat="44.72173" lon="3.28392">
        <ele>1051.82</ele>
        <time>2016-02-21T15:31:01Z</time>
      </trkpt>
      <trkpt lat="44.72173" lon="3.28395">
        <ele>1052.3</ele>
        <time>2016-02-21T15:31:02Z</time>
      </trkpt>
      <trkpt lat="44.72174" lon="3.28399">
        <ele>1052.3</ele>
        <time>2016-02-21T15:31:03Z</time>
      </trkpt>
      <trkpt lat="44.72175" lon="3.28402">
        <ele>1052.3</ele>
        <time>2016-02-21T15:31:04Z</time>
      </trkpt>
      <trkpt lat="44.72176" lon="3.28406">
        <ele>1052.78</ele>
        <time>2016-02-21T15:31:05Z</time>
      </trkpt>
      <trkpt lat="44.72179" lon="3.2841">
        <ele>1052.78</ele>
        <time>2016-02-21T15:31:06Z</time>
      </trkpt>
      <trkpt lat="44.72198" lon="3.28469">
        <ele>1053.74</ele>
        <time>2016-02-21T15:31:21Z</time>
      </trkpt>
      <trkpt lat="44.72196" lon="3.28485">
        <ele>1054.22</ele>
        <time>2016-02-21T15:31:27Z</time>
      </trkpt>
      <trkpt lat="44.72202" lon="3.28482">
        <ele>1054.22</ele>
        <time>2016-02-21T15:31:31Z</time>
      </trkpt>
      <trkpt lat="44.72207" lon="3.28473">
        <ele>1053.26</ele>
        <time>2016-02-21T15:31:33Z</time>
      </trkpt>
      <trkpt lat="44.72211" lon="3.28469">
        <ele>1052.3</ele>
        <time>2016-02-21T15:31:34Z</time>
      </trkpt>
      <trkpt lat="44.72216" lon="3.28466">
        <ele>1051.82</ele>
        <time>2016-02-21T15:31:35Z</time>
      </trkpt>
      <trkpt lat="44.7222" lon="3.28466">
        <ele>1051.34</ele>
        <time>2016-02-21T15:31:36Z</time>
      </trkpt>
      <trkpt lat="44.72223" lon="3.28468">
        <ele>1051.34</ele>
        <time>2016-02-21T15:31:37Z</time>
      </trkpt>
      <trkpt lat="44.72225" lon="3.28471">
        <ele>1051.82</ele>
        <time>2016-02-21T15:31:38Z</time>
      </trkpt>
      <trkpt lat="44.72228" lon="3.28473">
        <ele>1051.82</ele>
        <time>2016-02-21T15:31:39Z</time>
      </trkpt>
      <trkpt lat="44.72232" lon="3.28472">
        <ele>1051.82</ele>
        <time>2016-02-21T15:31:40Z</time>
      </trkpt>
      <trkpt lat="44.72235" lon="3.28471">
        <ele>1051.34</ele>
        <time>2016-02-21T15:31:41Z</time>
      </trkpt>
      <trkpt lat="44.72239" lon="3.28469">
        <ele>1050.86</ele>
        <time>2016-02-21T15:31:42Z</time>
      </trkpt>
      <trkpt lat="44.72243" lon="3.28468">
        <ele>1050.86</ele>
        <time>2016-02-21T15:31:43Z</time>
      </trkpt>
      <trkpt lat="44.7225" lon="3.28468">
        <ele>1049.9</ele>
        <time>2016-02-21T15:31:48Z</time>
      </trkpt>
      <trkpt lat="44.72251" lon="3.28469">
        <ele>1049.9</ele>
        <time>2016-02-21T15:31:49Z</time>
      </trkpt>
      <trkpt lat="44.72253" lon="3.28472">
        <ele>1049.42</ele>
        <time>2016-02-21T15:31:50Z</time>
      </trkpt>
      <trkpt lat="44.72258" lon="3.28481">
        <ele>1047.49</ele>
        <time>2016-02-21T15:31:53Z</time>
      </trkpt>
      <trkpt lat="44.72258" lon="3.28485">
        <ele>1047.49</ele>
        <time>2016-02-21T15:31:54Z</time>
      </trkpt>
      <trkpt lat="44.72257" lon="3.2851">
        <ele>1047.49</ele>
        <time>2016-02-21T15:32:02Z</time>
      </trkpt>
      <trkpt lat="44.72256" lon="3.28513">
        <ele>1047.49</ele>
        <time>2016-02-21T15:32:03Z</time>
      </trkpt>
      <trkpt lat="44.72231" lon="3.28564">
        <ele>1048.94</ele>
        <time>2016-02-21T15:32:18Z</time>
      </trkpt>
      <trkpt lat="44.7223" lon="3.28567">
        <ele>1048.94</ele>
        <time>2016-02-21T15:32:19Z</time>
      </trkpt>
      <trkpt lat="44.7222" lon="3.28601">
        <ele>1050.86</ele>
        <time>2016-02-21T15:32:29Z</time>
      </trkpt>
      <trkpt lat="44.72202" lon="3.28649">
        <ele>1052.78</ele>
        <time>2016-02-21T15:32:43Z</time>
      </trkpt>
      <trkpt lat="44.72175" lon="3.28652">
        <ele>1056.15</ele>
        <time>2016-02-21T15:32:55Z</time>
      </trkpt>
      <trkpt lat="44.72164" lon="3.28654">
        <ele>1057.11</ele>
        <time>2016-02-21T15:33:00Z</time>
      </trkpt>
    </trkseg>
  </trk>
</gpx>